[[{"header":{"parameterUnit":"m.s-1","parameterCategory":1,"la1":31.0,"la2":29.5877,"lo1":-88.7671,"lo2":-86.6584,"dy":0.0162,"dx":0.0185,"nx":115,"ny":88,"refTime":"2023-03-16T18:00:00:Z","depth":0,"parameterNumber":2,"parameterNumberName":"U-component_of_WINDS"},"data":[0.0,0.0,0.0,0.0,0.0,0.0,0.0,0.0,0.0,0.0,0.0,0.0,0.0,0.0,0.0,0.0,0.0,0.0,0.0,0.0,0.0,0.0,0.0,0.0,0.0,0.0,0.0,0.0,0.0,0.0,0.0,0.0,0.0,0.0,0.0,0.0,0.0,0.0,0.0,0.0,0.0,0.0,0.0,0.0,0.0,0.0,0.0,0.0,0.0,0.0,0.0,0.0,0.0,0.0,0.0,0.0,0.0,0.0,0.0,0.0,0.0,0.0,0.0,0.0,0.0,0.0,0.0,0.0,0.0,0.0,0.0,0.0,0.0,0.0,0.0,0.0,0.0,0.0,0.0,0.0,0.0,0.0,0.0,0.0,0.0,0.0,0.0,0.0,0.0,0.0,0.0,0.0,0.0,0.0,0.0,0.0,0.0,0.0,0.0,0.0,0.0,0.0,0.0,0.0,0.0,0.0,0.0,0.0,0.0,0.0,0.0,0.0,0.0,0.0,0.0,0.0,0.0,0.0,0.0,0.0,0.0,0.0,0.0,0.0,0.0,0.0,0.0,0.0,0.0,0.0,0.0,0.0,0.0,0.0,0.0,0.0,0.0,0.0,0.0,0.0,0.0,0.0,0.0,0.0,0.0,0.0,0.0,0.0,0.0,0.0,0.0,0.0,0.0,0.0,0.0,0.0,0.0,0.0,0.0,0.0,0.0,0.0,0.0,0.0,0.0,0.0,0.0,0.0,0.0,0.0,0.0,0.0,0.0,0.0,0.0,0.0,0.0,0.0,0.0,0.0,0.0,0.0,0.0,0.0,0.0,0.0,0.0,0.0,0.0,0.0,0.0,0.0,0.0,0.0,0.0,0.0,0.0,0.0,0.0,0.0,0.0,0.0,0.0,0.0,0.0,0.0,0.0,0.0,0.0,0.0,0.0,0.0,0.0,0.0,0.0,0.0,0.0,0.0,0.0,0.0,0.0,0.0,0.0,0.0,0.0,0.0,0.0,0.0,0.0,0.0,0.0,0.0,0.0,0.0,0.0,0.0,0.0,0.0,0.0,0.0,0.0,0.0,0.0,0.0,0.0,0.0,0.0,0.0,0.0,0.0,0.0,0.0,0.0,0.0,0.0,0.0,0.0,0.0,0.0,0.0,0.0,0.0,0.0,0.0,0.0,0.0,0.0,0.0,0.0,0.0,0.0,0.0,0.0,0.0,0.0,0.0,0.0,0.0,0.0,0.0,0.0,0.0,0.0,0.0,0.0,0.0,0.0,0.0,0.0,0.0,0.0,0.0,0.0,0.0,0.0,0.0,0.0,0.0,0.0,0.0,0.0,0.0,0.0,0.0,0.0,0.0,0.0,0.0,0.0,0.0,0.0,0.0,0.0,0.0,0.0,0.0,0.0,0.0,0.0,0.0,0.0,0.0,0.0,0.0,0.0,0.0,0.0,0.0,0.0,0.0,0.0,0.0,0.0,0.0,0.0,0.0,0.0,0.0,0.0,0.0,0.0,0.0,0.0,0.0,0.0,0.0,0.0,0.0,0.0,0.0,0.0,0.0,0.0,0.0,0.0,0.0,0.0,0.0,0.0,0.0,0.0,0.0,0.0,0.0,0.0,0.0,0.0,0.0,0.0,0.0,0.0,0.0,0.0,0.0,0.0,0.0,0.0,0.0,0.0,0.0,0.0,0.0,0.0,0.0,0.0,0.0,0.0,0.0,0.0,0.0,0.0,0.0,0.0,0.0,0.0,0.0,0.0,0.0,0.0,0.0,0.0,0.0,0.0,0.0,0.0,0.0,0.0,0.0,0.0,0.0,0.0,0.0,0.0,0.0,0.0,0.0,0.0,0.0,0.0,0.0,0.0,0.0,0.0,0.0,0.0,0.0,0.0,0.0,0.0,0.0,0.0,0.0,0.0,0.0,0.0,0.0,0.0,0.0,0.0,0.0,0.0,0.0,0.0,0.0,0.0,0.0,0.0,0.0,0.0,0.0,0.0,0.0,0.0,0.0,0.0,0.0,0.0,0.0,0.0,0.0,0.0,0.0,0.0,0.0,0.0,0.0,0.0,0.0,0.0,0.0,0.0,0.0,0.0,0.0,0.0,0.0,0.0,0.0,0.0,0.0,0.0,0.0,0.0,0.0,0.0,0.0,0.0,0.0,0.0,0.0,0.0,0.0,0.0,0.0,0.0,0.0,0.0,0.0,0.0,0.0,0.0,0.0,0.0,0.0,0.0,0.0,0.0,0.0,0.0,0.0,0.0,0.0,0.0,0.0,0.0,0.0,0.0,0.0,0.0,0.0,0.0,0.0,0.0,0.0,0.0,0.0,0.0,0.0,0.0,0.0,0.0,0.0,0.0,0.0,0.0,0.0,0.0,0.0,0.0,0.0,0.0,0.0,0.0,0.0,0.0,0.0,0.0,0.0,0.0,0.0,0.0,0.0,0.0,0.0,0.0,0.0,0.0,0.0,0.0,0.0,0.0,0.0,0.0,0.0,0.0,0.0,0.0,0.0,0.0,0.0,0.0,0.0,0.0,0.0,0.0,0.0,0.0,0.0,0.0,0.0,0.0,0.0,0.0,0.0,0.0,0.0,0.0,0.0,0.0,0.0,0.0,0.0,0.0,0.0,0.0,0.0,0.0,0.0,0.0,0.0,0.0,0.0,0.0,0.0,0.0,0.0,0.0,0.0,0.0,0.0,0.0,0.0,0.0,0.0,0.0,0.0,0.0,0.0,0.0,0.0,0.0,0.0,0.0,0.0,0.0,0.0,0.0,0.0,0.0,0.0,0.0,0.0,0.0,0.0,0.0,0.0,0.0,0.0,0.0,0.0,0.0,0.0,0.0,0.0,0.0,0.0,0.0,0.0,0.0,0.0,0.0,0.0,0.0,0.0,0.0,0.0,0.0,0.0,0.0,0.0,0.0,0.0,0.0,0.0,0.0,0.0,0.0,0.0,0.0,0.0,0.0,0.0,0.0,0.0,0.0,0.0,0.0,0.0,0.0,0.0,0.0,0.0,0.0,0.0,0.0,0.0,0.0,0.0,0.0,0.0,0.0,0.0,0.0,0.0,0.0,0.0,0.0,0.0,0.0,0.0,0.0,0.0,0.0,0.0,0.0,0.0,0.0,0.0,0.0,0.0,0.0,0.0,0.0,0.0,0.0,0.0,0.0,0.0,0.0,0.0,0.0,0.0,0.0,0.0,0.0,0.0,0.0,0.0,0.0,0.0,0.0,0.0,0.0,0.0,0.0,0.0,0.0,0.0,0.0,0.0,0.0,0.0,0.0,0.0,0.0,0.0,0.0,0.0,0.0,0.0,0.0,0.0,0.0,0.0,0.0,0.0,0.0,0.0,0.0,0.0,0.0,0.0,0.0,0.0,0.0,0.0,0.0,0.0,0.0,0.0,0.0,0.0,0.0,0.0,0.0,0.0,0.0,0.0,0.0,0.0,0.0,0.0,0.0,0.0,0.0,0.0,0.0,0.0,0.0,0.0,0.0,0.0,0.0,0.0,0.0,0.0,0.0,0.0,0.0,0.0,0.0,0.0,0.0,0.0,0.0,0.0,0.0,0.0,0.0,0.0,0.0,0.0,0.0,0.0,0.0,0.0,0.0,0.0,0.0,0.0,0.0,0.0,0.0,0.0,0.0,0.0,0.0,0.0,0.0,0.0,0.0,0.0,0.0,0.0,0.0,0.0,0.0,0.0,0.0,0.0,0.0,0.0,0.0,0.0,0.0,0.0,0.0,0.0,0.0,0.0,0.0,0.0,0.0,0.0,0.0,0.0,0.0,0.0,0.0,0.0,0.0,0.0,0.0,0.0,0.0,0.0,0.0,0.0,0.0,0.0,0.0,0.0,0.0,0.0,0.0,0.0,0.0,0.0,0.0,0.0,0.0,0.0,0.0,0.0,0.0,0.0,0.0,0.0,0.0,0.0,0.0,0.0,0.0,0.0,0.0,0.0,0.0,0.0,0.0,0.0,0.0,0.0,0.0,0.0,0.0,0.0,0.0,0.0,0.0,0.0,0.0,0.0,0.0,0.0,0.0,0.0,0.0,0.0,0.0,0.0,0.0,0.0,0.0,0.0,0.0,0.0,0.0,0.0,0.0,0.0,0.0,0.0,0.0,0.0,0.0,0.0,0.0,0.0,0.0,0.0,0.0,0.0,0.0,0.0,0.0,0.0,0.0,0.0,0.0,0.0,0.0,0.0,0.0,0.0,0.0,0.0,0.0,0.0,0.0,0.0,0.0,0.0,0.0,0.0,0.0,0.0,1.1406,0.0,0.0,0.0,0.0,0.0,0.0,0.0,0.0,0.0,0.0,0.0,0.0,0.0,0.0,0.0,0.0,0.0,0.0,0.0,0.0,0.0,0.0,0.0,0.0,0.0,0.0,0.0,0.0,0.0,0.0,0.0,0.0,0.0,0.0,0.0,0.0,0.0,0.0,0.0,0.0,0.0,0.0,0.0,0.0,0.0,0.0,0.0,0.0,0.0,0.0,0.0,0.0,0.0,0.0,0.0,0.0,0.0,0.0,0.0,0.0,0.0,0.0,0.0,0.0,0.0,0.0,0.0,0.0,0.0,0.0,0.0,0.0,0.0,0.0,0.0,0.0,0.0,0.0,0.0,0.0,0.0,0.0,0.0,0.0,0.0,0.0,0.0,0.0,0.0,0.0,0.0,0.0,0.0,0.0,0.0,0.0,0.0,0.0,0.0,0.0,0.0,0.0,0.0,0.0,0.0,0.0,0.0,0.0,0.0,0.0,1.1728,1.1815,1.1678,1.1603,1.1615,0.0,0.0,0.0,0.0,0.0,0.0,0.0,0.0,0.0,0.0,0.0,0.0,0.0,0.0,0.0,0.0,0.0,0.0,0.0,0.0,0.0,0.0,0.0,0.0,0.0,0.0,0.0,0.0,0.0,0.0,0.0,0.0,0.0,0.0,0.0,0.0,0.0,0.0,0.0,0.0,0.0,0.0,0.0,0.0,0.0,0.0,0.0,0.0,0.0,0.0,0.0,0.0,0.0,0.0,0.0,0.0,0.0,0.0,0.0,0.0,0.0,0.0,0.0,0.0,0.0,0.0,0.0,0.0,0.0,0.0,0.0,0.0,0.0,0.0,0.0,0.0,0.0,0.0,0.0,0.0,0.0,0.0,0.0,0.0,0.0,0.0,0.0,0.0,0.0,0.0,0.0,0.0,0.0,0.0,0.0,0.0,0.0,0.0,0.0,0.0,0.0,0.0,0.0,0.0,0.0,0.0,0.0,0.0,0.0,0.0,0.0,0.0,1.1902,1.1815,1.179,0.0,0.0,0.0,0.0,0.0,0.0,0.0,0.0,0.0,0.0,0.0,0.0,0.0,0.0,0.0,0.0,0.0,0.0,0.0,0.0,0.0,0.0,0.0,0.0,0.0,0.0,0.0,0.0,0.0,0.0,0.0,0.0,0.0,0.0,0.0,0.0,0.0,0.0,0.0,0.0,0.0,0.0,0.0,0.0,0.0,0.0,0.0,0.0,0.0,0.0,0.0,0.0,0.0,0.0,0.0,0.0,0.0,0.0,0.0,0.0,0.0,0.0,0.0,0.0,0.0,0.0,0.0,0.0,0.0,0.0,0.0,0.0,0.0,0.0,0.0,0.0,0.0,0.0,0.0,0.0,0.0,0.0,0.0,0.0,0.0,0.0,0.0,0.0,0.0,0.0,0.0,0.0,0.0,0.0,0.0,0.0,0.0,0.0,0.0,0.0,0.0,0.0,0.0,0.0,0.0,0.0,0.0,0.0,0.0,0.0,1.2431,1.2455,1.2311,0.0,1.2064,0.0,0.0,0.0,0.0,0.0,0.0,0.0,0.0,0.0,0.0,0.0,0.0,0.0,0.0,0.0,0.0,0.0,0.0,0.0,0.0,0.0,0.0,0.0,0.0,0.0,0.0,0.0,0.0,0.0,0.0,0.0,0.0,0.0,0.0,0.0,0.0,0.0,0.0,0.0,0.0,0.0,0.0,0.0,0.0,0.0,0.0,0.0,0.0,0.0,0.0,0.0,0.0,0.0,0.0,0.0,0.0,0.0,0.0,0.0,0.0,0.0,0.0,0.0,0.0,0.0,0.0,0.0,0.0,0.0,0.0,0.0,0.0,0.0,0.0,0.0,0.0,0.0,0.0,0.0,0.0,0.0,0.0,0.0,0.0,0.0,0.0,0.0,0.0,0.0,0.0,0.0,0.0,0.0,0.0,0.0,0.0,0.0,0.0,0.0,0.0,0.0,0.0,0.0,0.0,0.0,0.0,0.0,0.0,0.0,0.0,1.2761,1.2798,1.2639,1.2458,0.0,0.0,0.0,0.0,0.0,0.0,0.0,0.0,0.0,0.0,0.0,0.0,0.0,0.0,0.0,0.0,0.0,0.0,0.0,0.0,0.0,0.0,0.0,0.0,0.0,0.0,0.0,0.0,0.0,0.0,0.0,0.0,0.0,0.0,0.0,0.0,0.0,0.0,0.0,0.0,0.0,0.0,0.0,0.0,0.0,0.0,0.0,0.0,0.0,0.0,0.0,0.0,0.0,0.0,0.0,0.0,0.0,0.0,0.0,0.0,0.0,0.0,0.0,0.0,0.0,0.0,0.0,0.0,0.0,0.0,0.0,0.0,0.0,0.0,0.0,0.0,0.0,0.0,0.0,0.0,0.0,0.0,0.0,0.0,0.0,0.0,0.0,0.0,0.0,0.0,0.0,0.0,0.0,0.0,0.0,0.0,0.0,0.0,0.0,0.0,0.0,0.0,0.0,0.0,0.0,0.0,0.0,0.0,0.0,0.0,1.2966,1.2966,1.2968,1.2881,1.2747,1.2624,0.0,0.0,0.0,0.0,0.0,0.0,0.0,0.0,0.0,0.0,0.0,0.0,0.0,0.0,0.0,0.0,0.0,0.0,0.0,0.0,0.0,0.0,0.0,0.0,0.0,0.0,0.0,0.0,0.0,0.0,0.0,0.0,0.0,0.0,0.0,0.0,0.0,0.0,0.0,0.0,0.0,0.0,0.0,0.0,0.0,0.0,0.0,0.0,0.0,0.0,0.0,0.0,0.0,0.0,0.0,0.0,0.0,0.0,0.0,0.0,0.0,0.0,0.0,0.0,0.0,0.0,0.0,0.0,0.0,0.0,0.0,0.0,0.0,0.0,0.0,0.0,0.0,0.0,0.0,0.0,0.0,0.0,0.0,0.0,0.0,0.0,0.0,0.0,0.0,0.0,0.0,0.0,0.0,0.0,0.0,0.0,0.0,0.0,0.0,0.0,0.0,0.0,0.0,0.0,0.0,0.0,0.0,0.0,1.317,1.3126,1.3027,1.2917,1.3024,1.3014,0.0,0.0,0.0,0.0,0.0,0.0,0.0,0.0,0.0,0.0,0.0,0.0,0.0,0.0,0.0,0.0,0.0,0.0,0.0,0.0,0.0,0.0,0.0,0.0,0.0,0.0,0.0,0.0,0.0,0.0,0.0,0.0,0.0,0.0,0.0,0.0,0.0,0.0,0.0,0.0,0.0,0.0,0.0,0.0,0.0,0.0,0.0,0.0,0.0,0.0,0.0,0.0,0.0,0.0,0.0,0.0,0.0,0.0,0.0,0.0,0.0,0.0,0.0,0.0,0.0,0.0,0.0,0.0,0.0,0.0,0.0,0.0,0.0,0.0,0.0,0.0,0.0,0.0,0.0,0.0,0.0,0.0,0.0,0.0,0.0,0.0,0.0,0.0,0.0,0.0,0.0,0.0,0.0,0.0,0.0,0.0,0.0,0.0,0.0,0.0,0.0,0.0,0.0,0.0,0.0,0.0,0.0,0.0,0.0,1.3206,1.318,1.3116,1.3036,1.3116,1.3079,0.0,0.0,0.0,0.0,0.0,0.0,0.0,0.0,0.0,0.0,0.0,0.0,0.0,0.0,0.0,0.0,0.0,0.0,0.0,0.0,0.0,0.0,0.0,0.0,0.0,0.0,0.0,0.0,0.0,0.0,0.0,0.0,0.0,0.0,0.0,0.0,0.0,0.0,0.0,0.0,0.0,0.0,0.0,0.0,0.0,0.0,0.0,0.0,0.0,0.0,0.0,0.0,0.0,0.0,0.0,0.0,0.0,0.0,0.0,0.0,0.0,0.0,0.0,0.0,0.0,0.0,0.0,0.0,0.0,0.0,0.0,0.0,0.0,0.0,0.0,0.0,0.0,0.0,0.0,0.0,0.0,0.0,0.0,0.0,0.0,0.0,0.0,0.0,0.0,0.0,0.0,0.0,0.0,0.0,0.0,0.0,0.0,0.0,0.0,0.0,0.0,0.0,0.0,0.0,0.0,0.0,0.0,0.0,0.0,1.3108,0.0,1.3067,1.2966,1.3045,1.3033,0.0,0.0,0.0,0.0,0.0,0.0,0.0,0.0,0.0,0.0,0.0,0.0,0.0,0.0,0.0,0.0,0.0,0.0,0.0,0.0,0.0,0.0,0.0,0.0,0.0,0.0,0.0,0.0,0.0,0.0,0.0,0.0,0.0,0.0,0.0,0.0,0.0,0.0,0.0,0.0,0.0,0.0,0.0,0.0,0.0,0.0,0.0,0.0,0.0,0.0,0.0,0.0,0.0,0.0,0.0,0.0,0.0,0.0,0.0,0.0,0.0,0.0,0.0,0.0,0.0,0.0,0.0,0.0,0.0,0.0,0.0,0.0,0.0,0.0,0.0,0.0,0.0,0.0,0.0,0.0,0.0,0.0,0.0,0.0,0.0,0.0,0.0,0.0,0.0,0.0,0.0,0.0,0.0,0.0,0.0,0.0,0.0,0.0,0.0,0.0,0.0,0.0,0.0,0.0,0.0,0.0,0.0,0.0,1.3248,1.2927,1.2925,1.2861,1.272,1.2893,1.2935,0.0,0.0,0.0,0.0,0.0,0.0,0.0,0.0,0.0,0.0,0.0,0.0,0.0,0.0,0.0,0.0,0.0,0.0,0.0,0.0,0.0,0.0,0.0,0.0,0.0,0.0,0.0,0.0,0.0,0.0,0.0,0.0,0.0,0.0,0.0,0.0,0.0,0.0,0.0,0.0,0.0,0.0,0.0,0.0,0.0,0.0,0.0,0.0,0.0,0.0,0.0,0.0,0.0,0.0,0.0,0.0,0.0,0.0,0.0,0.0,0.0,0.0,0.0,0.0,0.0,0.0,0.0,0.0,0.0,0.0,0.0,0.0,0.0,0.0,0.0,0.0,0.0,0.0,0.0,0.0,0.0,0.0,0.0,0.0,0.0,0.0,0.0,0.0,0.0,0.0,0.0,0.0,0.0,0.0,0.0,0.0,0.0,0.0,0.0,0.0,0.0,0.0,0.0,0.0,0.0,0.0,0.0,0.0,0.0,1.3115,1.3061,1.3154,1.3385,1.3607,1.3737,0.0,0.0,0.0,0.0,0.0,0.0,0.0,0.0,0.0,0.0,0.0,0.0,0.0,0.0,0.0,0.0,0.0,0.0,0.0,0.0,0.0,0.0,0.0,0.0,0.0,0.0,0.0,0.0,0.0,0.0,0.0,0.0,0.0,0.0,0.0,0.0,0.0,0.0,0.0,0.0,0.0,0.0,0.0,0.0,0.0,0.0,0.0,0.0,0.0,0.0,0.0,0.0,0.0,0.0,0.0,0.0,0.0,0.0,0.0,0.0,0.0,0.0,0.0,0.0,0.0,0.0,0.0,0.0,0.0,0.0,0.0,0.0,0.0,0.0,0.0,0.0,0.0,0.0,0.0,0.0,0.0,0.0,0.0,0.0,0.0,0.0,0.0,0.0,0.0,0.0,0.0,0.0,0.0,0.0,0.0,0.0,0.0,0.0,0.0,0.0,0.0,0.0,0.0,0.0,0.0,0.0,0.0,0.0,0.0,1.3645,1.3391,1.3363,1.3608,1.3819,1.4037,1.4204,0.0,0.0,0.0,0.0,0.0,0.0,0.0,0.0,0.0,0.0,0.0,0.0,0.0,0.0,0.0,0.0,0.0,0.0,0.0,0.0,0.0,0.0,0.0,0.0,0.0,0.0,0.0,0.0,0.0,0.0,0.0,0.0,0.0,0.0,0.0,0.0,0.0,0.0,0.0,0.0,0.0,0.0,0.0,0.0,0.0,0.0,0.0,0.0,0.0,0.0,0.0,0.0,0.0,0.0,0.0,0.0,0.0,0.0,0.0,0.0,0.0,0.0,0.0,0.0,0.0,0.0,0.0,0.0,0.0,0.0,0.0,0.0,0.0,0.0,0.0,0.0,0.0,0.0,0.0,0.0,0.0,0.0,0.0,0.0,0.0,0.0,0.0,0.0,0.0,0.0,0.0,0.0,0.0,0.0,0.0,0.0,0.0,0.0,0.0,0.0,0.0,0.0,0.0,0.0,0.0,0.0,0.0,0.0,1.4389,1.3885,1.3644,1.3667,1.3798,1.4022,0.0,0.0,0.0,0.0,0.0,0.0,0.0,0.0,0.0,0.0,0.0,0.0,0.0,0.0,0.0,0.0,0.0,0.0,0.0,0.0,0.0,0.0,0.0,0.0,0.0,0.0,0.0,0.0,0.0,0.0,0.0,0.0,0.0,0.0,0.0,0.0,0.0,0.0,0.0,0.0,0.0,0.0,0.0,0.0,0.0,0.0,0.0,0.0,0.0,0.0,0.0,0.0,0.0,0.0,0.0,0.0,0.0,0.0,0.0,0.0,0.0,0.0,0.0,0.0,0.0,0.0,0.0,0.0,0.0,0.0,0.0,0.0,0.0,0.0,0.0,0.0,0.0,0.0,0.0,0.0,0.0,0.0,0.0,0.0,0.0,0.0,0.0,0.0,0.0,0.0,0.0,0.0,0.0,0.0,0.0,0.0,0.0,0.0,0.0,0.0,0.0,0.0,0.0,0.0,0.0,0.0,0.0,0.0,0.0,1.4339,1.4842,1.5198,1.5337,1.5189,1.533,0.0,0.0,0.0,0.0,0.0,0.0,0.0,0.0,0.0,0.0,0.0,0.0,0.0,0.0,0.0,0.0,0.0,0.0,0.0,0.0,0.0,0.0,0.0,0.0,0.0,0.0,0.0,0.0,0.0,0.0,0.0,0.0,0.0,0.0,0.0,0.0,0.0,0.0,0.0,0.0,0.0,0.0,0.0,0.0,0.0,0.0,0.0,0.0,0.0,0.0,0.0,0.0,0.0,0.0,0.0,0.0,0.0,0.0,0.0,0.0,0.0,0.0,0.0,0.0,0.0,0.0,0.0,0.0,0.0,0.0,0.0,0.0,0.0,0.0,0.0,0.0,0.0,0.0,0.0,0.0,0.0,0.0,0.0,0.0,0.0,0.0,0.0,0.0,0.0,0.0,0.0,0.0,0.0,0.0,0.0,0.0,0.0,0.0,0.0,0.0,0.0,0.0,0.0,0.0,0.0,0.0,0.0,0.0,1.4409,1.4801,1.5544,1.6136,1.6501,1.5905,1.5831,0.0,0.0,0.0,0.0,0.0,0.0,0.0,0.0,0.0,0.0,0.0,0.0,0.0,0.0,0.0,0.0,0.0,0.0,0.0,0.0,0.0,0.0,0.0,0.0,0.0,0.0,0.0,0.0,0.0,0.0,0.0,0.0,0.0,0.0,0.0,0.0,0.0,0.0,0.0,0.0,0.0,0.0,0.0,0.0,0.0,0.0,0.0,0.0,0.0,0.0,0.0,0.0,0.0,0.0,0.0,0.0,0.0,0.0,0.0,0.0,0.0,0.0,0.0,0.0,0.0,0.0,0.0,0.0,0.0,0.0,0.0,0.0,0.0,0.0,0.0,0.0,0.0,0.0,0.0,0.0,0.0,0.0,0.0,0.0,0.0,0.0,0.0,0.0,0.0,0.0,0.0,0.0,0.0,0.0,0.0,0.0,0.0,0.0,0.0,0.0,0.0,0.0,0.0,0.0,0.0,0.0,0.0,0.0,1.4704,1.5413,1.5989,1.6575,1.7103,1.6181,1.5842,0.0,0.0,0.0,0.0,0.0,0.0,0.0,0.0,0.0,0.0,0.0,0.0,0.0,0.0,0.0,0.0,0.0,0.0,0.0,0.0,0.0,0.0,0.0,0.0,0.0,0.0,0.0,0.0,0.0,0.0,0.0,0.0,0.0,0.0,0.0,0.0,0.0,0.0,0.0,0.0,0.0,0.0,0.0,0.0,0.0,0.0,0.0,0.0,0.0,0.0,0.0,0.0,0.0,0.0,0.0,0.0,0.0,0.0,0.0,0.0,0.0,0.0,0.0,0.0,0.0,0.0,0.0,0.0,0.0,0.0,0.0,0.0,0.0,0.0,0.0,0.0,0.0,0.0,0.0,0.0,0.0,0.0,0.0,0.0,0.0,0.0,0.0,0.0,0.0,0.0,0.0,0.0,0.0,0.0,0.0,0.0,0.0,0.0,0.0,0.0,0.0,0.0,0.0,0.0,0.0,0.0,0.0,0.0,1.4384,1.5016,1.5863,1.6523,1.6942,1.6225,1.6094,0.0,0.0,0.0,0.0,0.0,0.0,0.0,0.0,0.0,0.0,0.0,0.0,0.0,0.0,0.0,0.0,0.0,0.0,0.0,0.0,0.0,0.0,0.0,0.0,0.0,0.0,0.0,0.0,0.0,0.0,0.0,0.0,0.0,0.0,0.0,0.0,0.0,0.0,0.0,0.0,0.0,0.0,0.0,0.0,0.0,0.0,0.0,0.0,1.6228,0.0,0.0,0.0,0.0,0.0,0.0,0.0,0.0,0.0,0.0,0.0,0.0,0.0,0.0,0.0,0.0,0.0,0.0,0.0,0.0,0.0,0.0,0.0,0.0,0.0,0.0,0.0,0.0,0.0,0.0,0.0,0.0,0.0,0.0,0.0,0.0,0.0,0.0,0.0,0.0,0.0,0.0,0.0,0.0,0.0,0.0,0.0,0.0,0.0,0.0,0.0,0.0,0.0,0.0,0.0,0.0,0.0,0.0,0.0,1.4416,1.4906,1.5825,1.6482,1.6855,1.6444,1.6377,0.0,0.0,0.0,0.0,0.0,0.0,0.0,0.0,0.0,0.0,0.0,0.0,0.0,0.0,0.0,0.0,0.0,0.0,0.0,0.0,0.0,0.0,0.0,0.0,0.0,0.0,0.0,0.0,0.0,0.0,0.0,0.0,0.0,0.0,0.0,0.0,0.0,0.0,0.0,0.0,0.0,0.0,0.0,0.0,0.0,0.0,0.0,0.0,0.0,0.0,0.0,0.0,0.0,0.0,0.0,0.0,0.0,0.0,0.0,0.0,0.0,0.0,0.0,0.0,0.0,0.0,0.0,0.0,0.0,0.0,0.0,0.0,0.0,0.0,0.0,0.0,0.0,0.0,0.0,0.0,0.0,0.0,0.0,0.0,0.0,0.0,0.0,0.0,0.0,0.0,0.0,0.0,0.0,0.0,0.0,0.0,0.0,0.0,0.0,0.0,0.0,0.0,0.0,0.0,0.0,0.0,0.0,1.3818,1.4496,1.4872,1.5808,1.6493,1.6895,1.6725,1.6637,1.6634,0.0,0.0,0.0,0.0,0.0,0.0,0.0,0.0,0.0,0.0,0.0,0.0,0.0,0.0,0.0,0.0,0.0,0.0,0.0,0.0,0.0,0.0,0.0,0.0,0.0,0.0,0.0,0.0,0.0,0.0,0.0,0.0,0.0,0.0,0.0,0.0,0.0,0.0,1.5753,1.646,0.0,0.0,0.0,0.0,0.0,0.0,0.0,0.0,1.6875,0.0,0.0,0.0,0.0,0.0,0.0,0.0,0.0,0.0,0.0,0.0,0.0,0.0,0.0,0.0,0.0,0.0,0.0,0.0,0.0,0.0,0.0,0.0,0.0,0.0,0.0,0.0,0.0,0.0,0.0,0.0,0.0,0.0,0.0,0.0,0.0,0.0,0.0,0.0,0.0,0.0,0.0,0.0,0.0,0.0,0.0,0.0,0.0,0.0,0.0,0.0,0.0,0.0,0.0,0.0,0.0,1.2328,1.3466,1.4257,1.4668,1.5735,1.6483,1.6884,1.6808,1.6659,1.6424,0.0,0.0,0.0,0.0,0.0,0.0,0.0,0.0,0.0,0.0,0.0,0.0,0.0,0.0,0.0,0.0,0.0,0.0,0.0,0.0,0.0,0.0,0.0,0.0,0.0,0.0,0.0,0.0,0.0,0.0,0.0,0.0,0.0,0.0,0.0,0.0,0.0,0.0,0.0,1.7785,1.8067,0.0,0.0,0.0,0.0,0.0,0.0,0.0,0.0,1.7481,0.0,0.0,0.0,0.0,0.0,0.0,0.0,0.0,0.0,0.0,0.0,0.0,0.0,0.0,0.0,0.0,0.0,0.0,0.0,0.0,0.0,0.0,0.0,0.0,0.0,0.0,0.0,0.0,0.0,0.0,0.0,0.0,0.0,0.0,0.0,0.0,0.0,0.0,0.0,0.0,0.0,0.0,0.0,0.0,0.0,0.0,0.0,0.0,0.0,0.0,0.0,0.0,0.0,0.0,0.0,1.2793,1.359,1.4339,1.5014,1.5724,1.6382,1.6971,1.6973,1.6799,0.0,0.0,0.0,0.0,0.0,0.0,0.0,0.0,0.0,0.0,0.0,0.0,0.0,0.0,0.0,0.0,0.0,0.0,0.0,0.0,0.0,0.0,0.0,0.0,0.0,0.0,0.0,0.0,0.0,0.0,0.0,0.0,0.0,0.0,0.0,0.0,0.0,0.0,0.0,0.0,1.8757,1.9156,1.8958,0.0,0.0,0.0,0.0,0.0,0.0,1.8677,1.817,0.0,0.0,0.0,0.0,0.0,0.0,0.0,0.0,0.0,0.0,0.0,0.0,0.0,0.0,0.0,0.0,0.0,0.0,0.0,0.0,0.0,0.0,0.0,0.0,0.0,0.0,0.0,0.0,0.0,0.0,0.0,0.0,0.0,0.0,0.0,0.0,0.0,0.0,0.0,0.0,0.0,0.0,0.0,0.0,0.0,0.0,0.0,0.0,0.0,0.0,0.0,0.0,0.0,0.0,0.0,1.3351,1.3826,1.4512,1.5343,1.5748,1.6242,1.6827,1.6883,1.6669,0.0,0.0,0.0,0.0,0.0,0.0,0.0,0.0,0.0,0.0,0.0,0.0,0.0,0.0,0.0,0.0,0.0,0.0,0.0,0.0,0.0,0.0,0.0,0.0,0.0,0.0,0.0,0.0,0.0,0.0,0.0,0.0,0.0,0.0,0.0,0.0,0.0,0.0,0.0,0.0,0.0,2.0075,2.001,2.0128,0.0,0.0,0.0,0.0,2.0301,1.9334,0.0,0.0,0.0,0.0,0.0,0.0,0.0,0.0,0.0,0.0,0.0,0.0,0.0,0.0,0.0,0.0,0.0,0.0,0.0,0.0,0.0,0.0,0.0,0.0,0.0,0.0,0.0,0.0,0.0,0.0,0.0,0.0,0.0,0.0,0.0,0.0,0.0,0.0,0.0,0.0,0.0,0.0,0.0,0.0,0.0,0.0,0.0,0.0,0.0,0.0,0.0,0.0,0.0,0.0,0.0,0.0,1.3469,1.4124,1.4739,1.5308,1.5812,1.6057,1.6035,1.6096,1.5773,0.0,0.0,0.0,0.0,0.0,0.0,0.0,0.0,0.0,0.0,0.0,0.0,0.0,0.0,0.0,0.0,0.0,0.0,0.0,0.0,0.0,0.0,0.0,0.0,0.0,0.0,0.0,0.0,0.0,0.0,0.0,0.0,0.0,0.0,0.0,0.0,0.0,0.0,0.0,0.0,0.0,2.0723,2.1209,2.0699,2.038,0.0,0.0,2.0018,2.0063,1.9383,0.0,0.0,0.0,0.0,0.0,0.0,0.0,0.0,0.0,0.0,0.0,0.0,0.0,0.0,0.0,0.0,0.0,0.0,0.0,0.0,0.0,0.0,0.0,0.0,0.0,0.0,0.0,0.0,0.0,0.0,0.0,0.0,0.0,0.0,0.0,0.0,0.0,0.0,0.0,0.0,0.0,0.0,0.0,0.0,0.0,0.0,0.0,0.0,0.0,0.0,0.0,0.0,0.0,0.0,0.0,1.3023,1.3766,1.425,1.4845,1.5502,1.5749,1.5975,1.617,1.6034,1.5695,0.0,0.0,0.0,0.0,0.0,0.0,0.0,0.0,0.0,0.0,0.0,0.0,0.0,0.0,0.0,0.0,0.0,0.0,0.0,0.0,0.0,0.0,0.0,0.0,0.0,0.0,0.0,0.0,0.0,0.0,0.0,0.0,0.0,0.0,0.0,0.0,0.0,0.0,0.0,0.0,0.0,0.0,2.1315,2.1257,0.0,0.0,0.0,2.0659,2.0675,0.0,0.0,0.0,0.0,0.0,0.0,0.0,0.0,0.0,0.0,0.0,0.0,0.0,0.0,0.0,0.0,0.0,0.0,0.0,0.0,0.0,0.0,0.0,0.0,0.0,0.0,0.0,0.0,0.0,0.0,0.0,0.0,0.0,0.0,0.0,0.0,0.0,0.0,0.0,0.0,0.0,0.0,0.0,0.0,0.0,0.0,0.0,0.0,0.0,0.0,0.0,0.0,0.0,0.0,0.0,0.0,0.0,1.4103,1.4448,1.4933,1.5615,1.5637,1.5779,1.607,1.5736,0.0,0.0,0.0,0.0,0.0,0.0,0.0,0.0,0.0,0.0,0.0,0.0,0.0,0.0,0.0,0.0,0.0,0.0,0.0,0.0,0.0,0.0,0.0,0.0,0.0,0.0,0.0,1.7661,0.0,0.0,0.0,0.0,0.0,0.0,0.0,0.0,0.0,0.0,0.0,0.0,0.0,0.0,2.1298,2.1463,2.1666,2.1711,0.0,0.0,2.116,2.1246,2.0825,2.0393,0.0,0.0,0.0,0.0,0.0,0.0,0.0,0.0,0.0,0.0,0.0,0.0,0.0,0.0,0.0,0.0,0.0,0.0,0.0,0.0,0.0,0.0,0.0,0.0,0.0,0.0,0.0,0.0,0.0,0.0,0.0,0.0,0.0,0.0,0.0,0.0,0.0,0.0,0.0,0.0,0.0,0.0,0.0,0.0,0.0,0.0,0.0,0.0,0.0,0.0,0.0,0.0,0.0,0.0,0.0,1.4426,1.473,1.5052,1.5409,1.5431,1.538,1.527,1.4842,1.4364,0.0,0.0,0.0,0.0,0.0,0.0,0.0,0.0,0.0,0.0,0.0,0.0,0.0,0.0,0.0,0.0,0.0,0.0,0.0,0.0,0.0,0.0,0.0,0.0,0.0,0.0,0.0,0.0,0.0,0.0,0.0,0.0,0.0,0.0,0.0,0.0,0.0,0.0,0.0,0.0,0.0,2.1113,2.2077,2.1829,2.1634,0.0,0.0,2.1239,2.1373,2.0624,2.0118,2.0317,0.0,0.0,0.0,0.0,0.0,0.0,0.0,0.0,0.0,0.0,0.0,0.0,0.0,0.0,0.0,0.0,0.0,0.0,0.0,0.0,0.0,0.0,0.0,0.0,0.0,0.0,0.0,0.0,0.0,0.0,0.0,0.0,0.0,0.0,0.0,0.0,0.0,0.0,0.0,0.0,0.0,0.0,0.0,0.0,0.0,0.0,0.0,0.0,0.0,0.0,0.0,0.0,0.0,1.3484,1.4496,1.4759,1.5081,1.5395,1.541,1.5393,1.5315,1.5061,1.4698,0.0,0.0,0.0,0.0,0.0,0.0,0.0,0.0,0.0,0.0,0.0,0.0,0.0,0.0,0.0,0.0,0.0,0.0,0.0,0.0,0.0,0.0,0.0,0.0,0.0,0.0,0.0,0.0,2.051,2.1199,2.1256,0.0,0.0,0.0,0.0,0.0,0.0,0.0,0.0,0.0,0.0,2.1405,2.1985,2.1818,0.0,0.0,2.1225,2.091,2.0964,2.056,2.0211,2.0055,1.9216,0.0,0.0,0.0,0.0,0.0,0.0,0.0,0.0,0.0,0.0,0.0,0.0,0.0,0.0,0.0,0.0,0.0,0.0,0.0,0.0,0.0,0.0,0.0,0.0,0.0,0.0,0.0,0.0,0.0,0.0,0.0,0.0,0.0,0.0,0.0,0.0,0.0,0.0,0.0,0.0,0.0,0.0,0.0,0.0,0.0,0.0,0.0,0.0,0.0,0.0,0.0,0.0,1.3587,1.4484,1.4854,1.5155,1.5382,1.541,1.541,1.5402,1.5224,1.4927,0.0,0.0,0.0,0.0,0.0,0.0,0.0,0.0,0.0,0.0,0.0,0.0,0.0,0.0,0.0,0.0,0.0,0.0,0.0,0.0,0.0,0.0,0.0,0.0,0.0,0.0,0.0,0.0,2.0894,2.1341,2.059,0.0,0.0,0.0,0.0,0.0,0.0,0.0,0.0,0.0,0.0,2.114,2.1392,2.1349,2.1271,2.1125,2.0825,2.0616,2.0616,2.0388,2.012,1.9844,0.0,0.0,0.0,0.0,0.0,0.0,0.0,0.0,0.0,0.0,0.0,0.0,0.0,0.0,0.0,0.0,0.0,0.0,0.0,0.0,0.0,0.0,0.0,0.0,0.0,0.0,0.0,0.0,0.0,0.0,0.6338,0.0,0.0,0.0,0.0,0.0,0.0,0.0,0.0,0.0,0.0,0.0,0.0,0.0,0.0,0.0,0.0,0.0,0.0,0.0,0.0,0.0,0.0,1.3825,1.4484,1.5087,1.5402,1.541,1.541,1.541,1.5402,1.5096,1.4854,1.4691,0.0,0.0,0.0,0.0,0.0,0.0,0.0,0.0,0.0,0.0,0.0,0.0,0.0,0.0,0.0,0.0,0.0,0.0,0.0,0.0,0.0,0.0,0.0,0.0,0.0,0.0,2.1012,2.1209,2.0724,0.0,0.0,0.0,0.0,0.0,0.0,0.0,0.0,0.0,0.0,2.0074,2.0111,2.0324,2.04,2.0452,2.0434,2.0413,2.0392,2.0392,2.0065,1.982,0.0,0.0,0.0,0.0,0.0,0.0,0.0,0.0,0.0,0.0,0.0,0.0,0.0,0.0,0.0,0.0,0.0,0.0,0.0,0.0,0.0,0.0,0.0,0.0,0.0,0.0,0.0,0.6301,0.6289,0.0,0.0,0.0,0.0,0.0,0.0,0.0,0.0,0.0,0.0,0.0,0.9424,0.9779,0.0,0.0,0.0,0.0,0.0,0.0,0.0,0.0,0.0,0.0,0.0,0.0,1.3821,1.4477,1.5088,1.541,1.541,1.541,1.541,1.541,1.5287,1.517,1.5031,0.0,0.0,0.0,0.0,0.0,0.0,0.0,0.0,0.0,0.0,0.0,0.0,0.0,0.0,0.0,0.0,0.0,0.0,0.0,0.0,0.0,0.0,0.0,0.0,0.0,1.9782,0.0,0.0,0.0,0.0,0.0,0.0,0.0,0.0,0.0,0.0,0.0,1.9802,2.0004,2.0139,2.0294,2.0526,2.0487,2.0374,0.0,0.0,0.0,0.0,0.0,0.0,0.0,0.0,0.0,0.0,0.0,0.0,0.0,0.0,1.873,1.8,1.809,1.8329,1.8516,0.0,0.0,0.0,0.0,0.0,0.0,0.0,0.0,0.0,0.0,0.0,0.0,0.0,0.0,0.679,0.0,0.6616,0.0,0.0,0.0,0.0,0.0,0.0,0.0,0.0,0.868,0.8875,0.9131,0.9495,1.0032,0.0,1.1127,1.1652,0.0,0.0,0.0,0.0,0.0,0.0,0.0,0.0,1.3949,1.4484,1.5081,1.541,1.541,1.541,1.541,1.541,1.541,1.529,1.5102,1.4894,1.4668,0.0,0.0,0.0,0.0,0.0,0.0,0.0,0.0,0.0,0.0,0.0,0.0,0.0,0.0,0.0,0.0,0.0,0.0,0.0,0.0,0.0,0.0,0.0,2.0072,0.0,0.0,0.0,0.0,0.0,0.0,0.0,0.0,0.0,1.9178,1.952,1.972,1.9748,1.9871,2.0009,2.0111,0.0,0.0,0.0,0.0,0.0,0.0,0.0,1.9661,1.9962,2.0014,2.0065,2.0221,2.0003,1.9858,2.0014,0.0,0.0,1.8866,1.888,1.9109,1.927,1.9404,1.9694,2.0318,2.0519,2.0726,0.0,0.0,0.0,0.0,0.0,0.0,0.0,0.0,0.7339,0.7507,0.0,0.7287,0.0,0.0,0.0,0.0,0.0,0.7889,0.0,0.0,0.845,0.883,0.928,0.95,1.0055,1.0897,1.1381,1.2032,1.2844,1.2523,0.0,0.0,0.0,0.0,0.0,0.0,1.4169,1.4533,1.5109,1.541,1.541,1.5424,1.5432,1.5432,1.5411,1.5258,1.4936,1.4922,1.4849,1.4702,1.4603,0.0,0.0,0.0,0.0,0.0,0.0,0.0,0.0,0.0,0.0,0.0,0.0,0.0,0.0,0.0,0.0,0.0,0.0,0.0,0.0,2.0388,0.0,0.0,0.0,0.0,0.0,0.0,0.0,0.0,0.0,0.0,1.9137,1.9587,1.9752,1.9404,0.0,0.0,0.0,0.0,1.9316,1.9772,1.9824,1.9962,2.0361,2.0423,2.0434,2.0475,0.0,0.0,2.1095,2.1186,2.1292,2.1766,2.1818,2.148,2.0317,2.0428,2.074,2.096,2.0963,2.114,2.145,2.1572,2.1717,0.6144,0.0,0.0,0.0,0.0,0.7015,0.7208,0.7285,0.7669,0.7862,0.7849,0.7683,0.0,0.0,0.0,0.0,0.0,0.0,0.8002,0.8247,0.8359,0.862,0.9026,0.9408,1.0065,1.098,1.1593,1.226,1.2959,1.3286,1.3267,1.2917,0.0,0.0,0.0,0.0,1.4253,1.4774,1.5198,1.541,1.5417,1.5636,1.5774,1.5753,1.576,1.56,1.5258,1.525,1.5117,1.4856,1.4956,0.0,0.0,0.0,0.0,0.0,0.0,0.0,0.0,0.0,0.0,0.0,0.0,0.0,0.0,0.0,0.0,0.0,0.0,0.0,1.9893,2.0113,1.9815,0.0,0.0,0.0,0.0,0.0,0.0,0.0,0.0,0.0,1.993,1.9898,1.9881,0.0,0.0,2.0072,2.0038,2.0027,2.0079,2.0224,2.0217,0.0,2.0827,2.0899,2.1127,2.1778,2.218,2.2439,2.2573,2.2614,2.2635,2.278,2.2791,2.2665,2.2363,2.1821,2.1605,2.1731,2.1779,2.1977,2.2499,2.2754,2.2972,0.6164,0.6419,0.6424,0.6493,0.665,0.7147,0.7418,0.7508,0.7903,0.8143,0.8223,0.8069,0.8012,0.798,0.7796,0.0,0.0,0.0,0.8106,0.8292,0.8365,0.8687,0.9164,0.9544,1.0262,1.1281,1.1877,1.2548,1.3331,1.3979,1.4193,1.3993,0.0,0.0,1.3905,1.4201,1.4599,1.5075,1.5439,1.5658,1.5775,1.5994,1.6096,1.6096,1.6096,1.6001,1.5811,1.5796,1.5687,1.5497,1.5358,1.5116,0.0,0.0,0.0,0.0,0.0,0.0,0.0,0.0,0.0,0.0,0.0,1.723,0.0,0.0,0.0,0.0,1.9278,2.0129,2.0417,2.0431,0.0,0.0,0.0,0.0,0.0,0.0,0.0,1.9326,1.9516,1.9955,2.0816,2.0741,2.0552,2.0413,2.0374,2.0475,2.0651,0.0,2.0816,2.1186,2.123,2.1385,2.183,2.1932,2.2128,2.2697,2.2998,2.3287,2.3463,2.3453,2.3525,2.367,2.3701,2.3701,2.3701,2.3256,2.2769,2.2585,2.2551,2.2703,2.3172,2.3352,2.3566,0.586,0.5887,0.6143,0.6295,0.639,0.7051,0.7447,0.7691,0.8064,0.8376,0.8619,0.8452,0.8374,0.8345,0.8174,0.0,0.8089,0.8276,0.8378,0.8361,0.8554,0.8953,0.9583,0.9804,1.0494,1.1625,1.2135,1.2842,1.3728,1.4472,1.4972,1.5159,1.4786,1.4577,1.4587,1.4789,1.5075,1.5446,1.5739,1.6096,1.6418,1.6448,1.6455,1.6426,1.6448,1.6411,1.6389,1.6389,1.6382,1.6338,1.5782,1.5417,1.5344,0.0,0.0,0.0,0.0,0.0,0.0,0.0,0.0,0.0,0.0,0.0,0.0,0.0,0.0,0.0,2.0216,0.0,2.1077,2.1077,0.0,0.0,0.0,1.9741,1.9299,1.9679,1.9969,2.001,0.0,0.0,2.1807,2.1921,2.1582,2.0734,2.063,2.0775,2.1199,2.1292,2.159,2.2407,2.2552,2.2728,2.307,2.3215,2.3267,2.3318,2.3287,2.3494,2.3836,2.395,2.4105,2.4384,2.4497,2.4507,2.4528,2.4487,2.4332,2.3587,2.338,2.3359,2.3562,2.3654,2.3806,0.456,0.4792,0.5628,0.6249,0.6723,0.7214,0.771,0.8142,0.8433,0.8732,0.897,0.8926,0.8905,0.8901,0.8861,0.884,0.884,0.8885,0.8905,0.8909,0.8954,0.9152,0.9439,0.9716,1.0265,1.1096,1.1785,1.25,1.3286,1.4157,1.4709,1.497,1.5227,1.529,1.5191,1.4988,1.5185,1.5768,1.5855,1.6184,1.6763,1.6785,1.6785,1.6785,1.6785,1.6668,1.6404,1.6389,1.6279,1.603,1.5855,1.5549,1.5046,1.4865,0.0,0.0,0.0,0.0,0.0,0.0,0.0,0.0,0.0,1.701,1.784,0.0,1.8746,0.0,2.0513,2.1077,2.1077,2.1077,0.0,0.0,2.0576,2.0752,2.062,2.106,2.1455,2.1826,2.1932,2.2221,2.2811,2.2853,2.278,2.2572,2.2522,2.2563,2.2687,2.2697,2.2779,2.2987,2.306,2.3204,2.3691,2.4012,2.4198,2.4177,2.4198,2.4249,2.4353,2.4363,2.4405,2.4476,2.4507,2.4631,2.4973,2.5024,2.5108,2.515,2.4705,2.4198,2.424,2.442,2.4577,0.3858,0.4159,0.4981,0.5736,0.6465,0.7154,0.7773,0.8317,0.8454,0.8734,0.9096,0.9096,0.9096,0.9096,0.9096,0.9096,0.9096,0.9096,0.9096,0.9096,0.9096,0.9277,0.9588,0.9791,1.028,1.099,1.1733,1.2475,1.3274,1.4225,1.4858,1.5111,1.5467,1.5607,1.5523,1.529,1.5496,1.6147,1.641,1.6711,1.7047,1.7092,1.7019,1.6903,1.6895,1.6749,1.6404,1.6389,1.6316,1.6126,1.5987,1.5731,1.5373,1.5061,1.4807,0.0,0.0,0.0,0.0,0.0,0.0,0.0,0.0,0.0,0.0,0.0,1.8925,2.0318,2.1146,2.1703,2.2014,2.2016,2.1912,2.1683,2.1861,2.2035,2.2016,2.2263,2.2511,2.278,2.2831,2.2987,2.3442,2.3515,2.366,2.4012,2.4084,2.395,2.3598,2.3515,2.365,2.4022,2.4095,2.425,2.4717,2.4974,2.514,2.513,2.5108,2.514,2.5108,2.513,2.5118,2.514,2.5108,2.519,2.5461,2.5501,2.5616,2.5742,2.5492,2.5171,2.514,2.5229,2.5371,0.3349,0.3698,0.4285,0.5026,0.5874,0.6863,0.7696,0.8368,0.8416,0.8752,0.923,0.9234,0.9234,0.923,0.9258,0.9234,0.9234,0.923,0.9234,0.9234,0.9234,0.9459,0.9845,0.9961,1.038,1.1051,1.1707,1.2457,1.3269,1.425,1.4899,1.5239,1.5456,1.5592,1.5668,1.5578,1.5857,1.65,1.7009,1.7255,1.7309,1.7309,1.7201,1.6953,1.6925,1.6771,1.6485,1.6418,1.6367,1.6331,1.606,1.5877,1.5819,1.5272,1.4944,0.0,1.4833,0.0,0.0,0.0,0.0,0.0,0.0,0.0,0.0,1.8113,1.9307,2.1083,2.1846,2.2491,2.3082,2.3184,2.3194,2.3184,2.3236,2.3297,2.3287,2.3329,2.338,2.336,2.3412,2.3608,2.4023,2.4116,2.4457,2.5087,2.5211,2.4953,2.4354,2.4209,2.4478,2.5201,2.5294,2.5337,2.569,2.5846,2.5856,2.5877,2.5846,2.5908,2.5856,2.5866,2.5887,2.5877,2.5835,2.5887,2.597,2.5991,2.6011,2.6115,2.6115,2.6032,2.5877,2.5825,2.5976,0.2611,0.2972,0.3772,0.4563,0.5314,0.6282,0.748,0.8797,0.901,0.9449,0.9987,0.9987,0.9987,1.0012,0.9987,1.0012,0.9987,0.9987,0.9987,0.9987,0.9987,1.0054,1.0138,1.0145,1.0333,1.0703,1.0992,1.1606,1.2432,1.3028,1.3687,1.443,1.4679,1.5039,1.5438,0.0,0.0,0.0,1.6861,1.7129,1.7279,1.7309,1.7273,1.7238,1.7012,0.0,1.68,1.6551,1.6272,1.6016,1.595,0.0,0.0,0.0,0.0,0.0,0.0,0.0,0.0,0.0,0.0,0.0,1.6529,1.6877,1.7331,1.895,2.0397,2.1345,2.2057,2.2544,2.2859,2.3072,2.3194,2.3205,2.3536,2.3764,2.3764,2.4043,2.426,2.4249,2.458,2.4849,2.4922,2.5275,2.5566,2.5709,2.5751,2.5711,2.5533,2.5451,2.5566,2.573,2.5794,2.5815,2.5887,2.5949,2.5991,2.5908,2.5908,2.5929,2.596,2.5949,2.5929,2.5949,2.5908,2.6053,2.6384,2.6467,2.6571,2.6957,2.7029,2.6822,2.6074,2.5918,2.592,0.2214,0.0,0.3332,0.4054,0.0,0.5801,0.7061,0.8428,0.89,0.953,1.0186,1.0186,1.0186,1.0186,1.0186,1.0186,1.0186,1.0186,1.0186,1.0186,1.0186,1.0186,1.019,1.0253,1.0377,1.0505,1.0832,1.1327,1.1912,1.2416,1.2963,1.3579,1.3812,1.4242,1.4798,1.5326,1.5967,1.6753,1.7201,1.7486,1.7592,1.7559,1.747,1.7302,1.7049,0.0,0.0,0.0,0.0,0.0,0.0,0.0,0.0,0.0,0.0,1.5644,1.5796,1.5854,1.5798,1.5938,1.6151,1.6444,1.6798,1.7244,1.781,1.9036,2.0183,2.121,2.1926,2.2538,2.3083,2.3366,2.3491,2.3512,2.3695,2.3941,2.4166,2.4509,2.4778,2.4994,2.531,2.5554,2.5554,2.5618,2.5807,2.6002,2.5929,2.5954,2.6117,2.6028,2.597,2.6208,2.6467,2.6615,2.6592,2.6581,2.6571,2.6592,2.6581,2.6604,2.6581,2.6581,2.6581,2.6592,2.6581,2.6685,2.6861,2.6933,2.6996,2.7237,2.732,2.7195,2.6664,2.6604,2.6604,0.2033,0.2269,0.2856,0.3472,0.4118,0.5288,0.6633,0.8035,0.0,0.0,0.0,1.028,1.028,1.028,1.0306,1.028,1.028,1.028,1.0284,1.0306,1.0284,1.0284,1.0288,1.0408,1.0454,1.0489,1.0841,1.1208,1.1514,1.1951,1.2373,1.2723,1.3027,1.3483,1.4207,1.494,1.5802,1.6704,1.7361,1.7743,1.7811,1.7823,1.7707,1.7414,1.7171,1.6924,1.666,1.6536,1.6499,1.6499,1.6418,1.6389,1.6389,1.6389,1.6389,1.6389,1.647,1.6477,1.6499,1.6528,1.6587,1.6646,1.7054,1.759,1.827,1.8809,1.9631,2.0864,2.1683,2.2491,2.3332,2.3714,2.3897,2.3887,2.3887,2.4069,2.4476,2.4715,2.499,2.5381,2.5665,2.5886,2.585,2.5793,2.5818,2.612,2.6094,2.603,2.6363,2.6211,2.6182,2.6568,2.6881,2.7163,2.7275,2.7268,2.732,2.7237,2.7258,2.732,2.732,2.732,2.732,2.7237,2.7309,2.7289,2.7299,2.7278,2.732,2.732,2.732,2.732,2.732,2.7309,2.7268,0.1916,0.1974,0.2298,0.2827,0.3501,0.4472,0.6197,0.8398,0.9688,1.0406,1.0615,1.0646,1.0646,1.0619,1.0619,1.0615,1.0646,1.0646,1.0615,1.0619,1.0646,1.0619,1.0619,1.0643,1.0655,1.066,1.0739,1.0907,1.1158,1.1267,1.1578,1.21,1.2394,1.3077,1.4147,1.4767,1.5282,1.5704,1.6476,1.7114,1.753,1.7768,1.7856,1.783,1.7732,1.7662,1.7611,1.7107,1.6829,1.6822,1.6565,1.6389,1.6396,1.6418,1.6389,1.6404,1.6675,1.6837,1.6844,1.704,1.7295,1.7558,1.7686,1.7788,1.7966,1.8736,1.9536,2.0381,2.1513,2.2489,2.3049,2.3702,2.4114,2.418,2.4199,2.434,2.4582,2.4683,2.4847,2.5127,2.5557,2.5815,2.5832,2.6081,2.6255,2.6389,2.6182,2.6344,2.6326,2.6444,2.6526,2.6788,2.6897,2.7058,2.7225,2.7286,2.732,2.732,2.732,2.732,2.732,2.732,2.732,2.732,2.732,2.732,2.732,2.732,2.733,2.734,2.7372,2.7337,2.7403,2.7413,2.7372,0.1965,0.1996,0.2266,0.2598,0.2958,0.4436,0.6177,0.8045,0.9422,1.0287,1.0678,1.0892,1.098,1.0976,1.0952,1.0952,1.098,1.098,1.098,1.098,1.098,1.098,1.098,1.098,1.0976,1.0952,1.098,1.1037,1.1145,1.1149,1.1374,1.1843,1.2168,1.2699,1.3377,1.3833,1.431,1.4809,1.6057,1.6898,1.731,1.7569,1.779,1.7941,1.7884,1.7849,1.7859,1.7722,1.7664,1.7664,1.7501,1.7421,1.7444,1.7421,1.7444,1.7444,1.7576,1.7664,1.7664,1.7772,1.7918,1.8064,1.8079,1.8083,1.8122,1.887,1.9629,2.0228,2.1186,2.1916,2.2258,2.2762,2.3098,2.3266,2.3266,2.35,2.3989,2.4324,2.4618,2.496,2.5426,2.5745,2.5745,2.5813,2.5844,2.582,2.564,2.5445,2.5465,2.5577,2.5917,2.653,2.6794,2.6914,2.7068,2.7225,2.7296,2.732,2.732,2.732,2.732,2.732,2.733,2.732,2.732,2.732,2.733,2.732,2.7403,2.7617,2.7614,2.7686,2.7917,2.7997,2.7855,0.2008,0.2038,0.2283,0.2468,0.2775,0.4436,0.5991,0.74,0.8743,0.9815,1.0613,1.1029,1.1191,1.1191,1.1191,1.1191,1.1191,1.1191,1.1191,1.1191,1.1191,1.1191,1.1191,1.1191,1.1191,1.1191,1.1191,1.1191,1.1191,1.1191,1.1364,1.1696,1.2027,1.2323,1.2576,1.2917,1.3379,1.3998,1.5352,1.6301,1.6822,1.716,1.748,1.7801,1.7881,1.7931,1.8024,1.8203,1.8316,1.8341,1.8318,1.8299,1.8299,1.8299,1.8299,1.8299,1.8299,1.8299,1.8299,1.8299,1.8335,1.8408,1.8408,1.8445,1.8561,1.9141,1.9634,1.9957,2.0621,2.1203,2.1477,2.1803,2.2022,2.2208,2.2289,2.2624,2.3198,2.373,2.4205,2.4605,2.506,2.5319,2.5304,2.5167,2.5053,2.5024,2.4718,2.4525,2.4575,2.4799,2.5336,2.5977,2.655,2.6942,2.7059,2.73,2.7455,2.7466,2.7531,2.7607,2.7621,2.7627,2.7607,2.7669,2.7638,2.7669,2.7617,2.7617,2.7748,2.8017,2.8055,2.8183,2.8452,2.8535,2.8411,0.2008,0.2008,0.2038,0.2407,0.3022,0.4069,0.5262,0.6599,0.7942,0.9185,1.0309,1.0928,1.1207,1.1191,1.1203,1.1211,1.1211,1.1195,1.1203,1.1207,1.1191,1.1195,1.1211,1.1207,1.1195,1.1207,1.1211,1.1228,1.1252,1.1211,1.1376,1.1656,1.1725,1.1888,1.217,1.2434,1.2738,1.3084,1.3798,1.4633,1.5621,1.6393,1.6936,1.7266,1.7732,1.8117,1.827,1.8362,1.8404,1.8383,1.8349,1.8313,1.8313,1.8313,1.8313,1.8321,1.8313,1.8299,1.8313,1.8299,1.8445,1.8708,1.8745,1.888,1.9144,1.9498,1.9499,1.9414,1.998,2.0602,2.0792,2.1312,2.1669,2.1695,2.1929,2.2265,2.2541,2.3076,2.3518,2.3759,2.4071,2.4257,2.4279,2.4236,2.4212,2.4251,2.4188,2.423,2.4474,2.4792,2.5107,2.5409,2.61,2.6953,2.7407,2.7708,2.7742,2.7978,2.8074,2.8077,2.8165,2.8285,2.8438,2.8161,2.8344,2.8299,2.839,2.8458,2.8442,2.8504,2.8566,2.8597,2.8628,2.8675,2.8618,0.2008,0.2008,0.2008,0.2284,0.2807,0.3547,0.4592,0.5912,0.7225,0.8538,0.9748,1.0584,1.1185,1.1549,1.1553,1.1578,1.1553,1.1549,1.1553,1.1549,1.1549,1.1549,1.1553,1.1549,1.1549,1.1549,1.1549,1.1545,1.1553,1.1549,1.1638,1.174,1.1649,1.1708,1.1957,1.2028,1.2173,1.2459,1.286,1.3395,1.4089,1.5233,1.5982,1.6223,1.6869,1.7378,1.7687,1.7998,1.8332,1.8643,1.8675,1.8731,1.8877,1.8902,1.8869,1.8902,1.8877,1.8902,1.8877,1.8902,1.8935,1.9074,1.91,1.9166,1.9283,1.9402,1.938,1.9315,1.9811,2.0255,2.0372,2.0584,2.0832,2.0968,2.1096,2.1275,2.1522,2.2222,2.2707,2.2843,2.3218,2.3515,2.3471,2.3304,2.3116,2.3054,2.3074,2.3264,2.354,2.3938,2.4469,2.5059,2.5774,2.6388,2.6913,2.7232,2.7527,2.7844,2.7965,2.8051,2.8132,2.8116,2.8156,2.8373,2.8439,2.8515,2.8541,2.8613,2.8659,2.8876,2.9301,2.9425,2.9425,2.9435,2.9435,0.2008,0.2008,0.2008,0.2161,0.2406,0.2961,0.3884,0.5051,0.6307,0.762,0.897,0.994,1.0793,1.15,1.1712,1.1806,1.1806,1.1806,1.1806,1.1806,1.1806,1.1802,1.1806,1.1806,1.1806,1.1806,1.1798,1.1802,1.1806,1.1806,1.1806,1.1786,1.1672,1.1666,1.1853,1.1758,1.1841,1.2128,1.2327,1.2536,1.2958,1.4015,1.4844,1.5313,1.6043,1.6611,1.6937,1.7443,1.7993,1.8496,1.86,1.8843,1.9149,1.9201,1.9227,1.9272,1.9298,1.9298,1.9298,1.9298,1.9342,1.9422,1.9437,1.9474,1.952,1.9535,1.9561,1.9595,1.9896,2.0117,2.0023,2.0015,2.0101,2.0291,2.0343,2.0475,2.0596,2.1356,2.1905,2.2017,2.2527,2.2932,2.2968,2.2832,2.2652,2.2512,2.244,2.2472,2.2861,2.3383,2.3953,2.4638,2.5174,2.5819,2.6394,2.6868,2.7255,2.7633,2.7851,2.7922,2.7987,2.8048,2.8135,2.8634,2.8564,2.8651,2.8988,2.8987,2.9006,2.9415,2.9735,2.9942,2.987,2.9963,2.9973,0.2008,0.2008,0.2008,0.2007,0.2069,0.2437,0.3082,0.4067,0.5082,0.6431,0.793,0.8967,0.991,1.088,1.1466,1.1776,1.1806,1.1806,1.1806,1.1806,1.1806,1.1806,1.1806,1.1806,1.1806,1.1806,1.1806,1.1806,1.1806,1.1806,1.1806,1.1802,1.1782,1.1786,1.1804,1.1814,1.1912,1.2145,1.2205,1.2269,1.2447,1.2856,1.364,1.4671,1.5389,1.5879,1.6262,1.6825,1.7319,1.7655,1.7945,1.8314,1.8838,1.8957,1.9095,1.9282,1.9327,1.9327,1.9316,1.9356,1.9466,1.9708,1.9767,1.9884,2.0042,2.0071,2.0071,2.0144,2.0133,2.0092,1.9927,1.9907,1.99,1.99,2.0078,2.0103,1.9858,2.069,2.1125,2.1484,2.2014,2.2437,2.2745,2.286,2.2771,2.277,2.2858,2.2963,2.3231,2.3623,2.38,2.3926,2.4426,2.5182,2.6532,2.6727,2.7079,2.7469,2.7612,2.7919,2.837,2.8691,2.8757,2.8922,2.9031,2.9204,2.9484,2.9661,2.9756,2.9901,2.9891,2.9994,2.9994,2.9994,2.9994,0.2052,0.2002,0.2015,0.2008,0.2038,0.2344,0.2806,0.3391,0.4346,0.545,0.6733,0.8083,0.9271,1.0217,1.1095,1.1617,1.1806,1.1806,1.1806,1.1806,1.1806,1.1806,1.1806,1.1806,1.1806,1.1806,1.1806,1.1806,1.1806,1.1806,1.1806,1.1806,1.1806,1.1806,1.1806,1.1806,1.1833,1.1919,1.1949,1.2062,1.2265,1.2414,1.2787,1.3443,1.4171,1.4899,1.5624,1.6003,1.6615,1.7495,1.7823,1.8258,1.8808,1.9254,1.9605,1.984,1.9859,1.9859,1.9867,1.9859,1.993,2.0047,2.0035,2.0079,2.0181,2.021,2.021,2.0225,2.0217,2.021,2.0333,2.0194,2.0069,2.0062,2.0143,2.0146,2.0197,2.0661,2.1172,2.1351,2.1771,2.2165,2.2293,2.232,2.233,2.2327,2.2349,2.2548,2.2835,2.3096,2.335,2.3587,2.3917,2.4429,2.5112,2.5766,2.6224,2.6751,2.7051,2.7167,2.7474,2.778,2.7875,2.8399,2.883,2.9264,2.9365,2.9743,2.9916,2.9994,2.9994,2.9994,2.9994,2.9994,2.9994,0.2084,0.203,0.2002,0.2021,0.2051,0.2257,0.253,0.29,0.3607,0.4498,0.5602,0.7072,0.8355,0.9423,1.0486,1.1216,1.1617,1.1742,1.1806,1.1806,1.1806,1.1806,1.1806,1.1806,1.1806,1.1806,1.1806,1.1806,1.1806,1.1806,1.1806,1.1806,1.1806,1.1806,1.1806,1.1806,1.1806,1.1806,1.1806,1.1889,1.2062,1.2092,1.2212,1.2564,1.3053,1.3774,1.4627,1.5016,1.5654,1.6638,1.7157,1.7798,1.8636,1.9278,1.9772,2.0019,2.0141,2.021,2.021,2.021,2.0254,2.0356,2.0371,2.0393,2.0495,2.0524,2.0524,2.0524,2.0532,2.0634,2.0744,2.0656,2.0481,2.04,2.0364,2.0312,2.0239,2.0689,2.107,2.1371,2.1757,2.2039,2.2171,2.2221,2.2284,2.2291,2.2326,2.2446,2.2648,2.2803,2.299,2.3303,2.3468,2.3748,2.4172,2.465,2.5149,2.5681,2.6017,2.6209,2.6545,2.6799,2.7233,2.7826,2.8398,2.8877,2.93,2.9695,2.9889,2.9968,2.9994,2.9994,2.9994,2.9994,2.9994,0.2097,0.2092,0.2031,0.2017,0.2011,0.2053,0.2193,0.253,0.2899,0.3607,0.4592,0.588,0.7227,0.8477,0.9724,1.0668,1.1277,1.1617,1.1772,1.1806,1.1806,1.1806,1.1806,1.1806,1.1806,1.1806,1.1806,1.1806,1.1806,1.1806,1.1806,1.1806,1.1806,1.1806,1.1806,1.1806,1.1806,1.1806,1.1806,1.1806,1.1806,1.1833,1.1953,1.2178,1.2264,1.2626,1.3309,1.3893,1.4596,1.5268,1.592,1.6896,1.8272,1.9015,1.9471,1.9838,2.0069,2.0219,2.0261,2.0291,2.0451,2.0634,2.07,2.0837,2.1035,2.1101,2.1108,2.1094,2.1115,2.1167,2.1152,2.113,2.0985,2.0786,2.0692,2.0583,2.0422,2.0552,2.0965,2.1556,2.1892,2.2214,2.2462,2.2517,2.2583,2.2731,2.2851,2.2879,2.2919,2.2983,2.299,2.3034,2.3155,2.3332,2.3444,2.3585,2.4092,2.4565,2.4834,2.5083,2.5596,2.5962,2.6527,2.7125,2.8077,2.8611,2.9248,2.959,2.98,2.9905,2.9942,2.9994,2.9994,2.9994,2.9994,0.2095,0.2092,0.2063,0.2037,0.2019,0.2009,0.2057,0.2192,0.2499,0.3085,0.3916,0.5145,0.646,0.7772,0.9055,1.0092,1.094,1.1307,1.1583,1.1772,1.1806,1.1806,1.1806,1.1806,1.1806,1.1806,1.1806,1.1806,1.1806,1.1806,1.1806,1.1806,1.1806,1.1806,1.1806,1.1806,1.1806,1.1806,1.1806,1.1806,1.1806,1.1806,1.1863,1.1919,1.1923,1.2071,1.2286,1.3083,1.3907,1.4734,1.5412,1.6582,1.8119,1.8957,1.9563,2.0104,2.038,2.0663,2.0875,2.0903,2.089,2.1028,2.1021,2.1094,2.1189,2.1211,2.1211,2.1211,2.1211,2.1211,2.1211,2.1211,2.1152,2.1072,2.1029,2.1006,2.086,2.0941,2.1228,2.1581,2.1782,2.1945,2.223,2.24,2.2598,2.2711,2.2873,2.2986,2.2986,2.3014,2.3014,2.3014,2.3022,2.305,2.3163,2.3275,2.352,2.3848,2.4044,2.4295,2.4748,2.5274,2.5825,2.6691,2.7647,2.8424,2.9052,2.9448,2.9633,2.9879,2.9968,2.9994,2.9994,2.9994,2.9994,0.2126,0.2156,0.2093,0.207,0.2018,0.2041,0.2019,0.2026,0.2209,0.2635,0.3302,0.4346,0.551,0.6764,0.8144,0.9302,1.0247,1.0823,1.1307,1.1587,1.1772,1.1806,1.1806,1.1806,1.1806,1.1806,1.1806,1.1806,1.1806,1.1806,1.1806,1.1806,1.1806,1.1806,1.1806,1.1806,1.1806,1.1806,1.1806,1.1806,1.1806,1.1806,1.1806,1.1806,1.1806,1.1806,1.1867,1.2401,1.3054,1.3913,1.4833,1.6196,1.7736,1.8525,1.9265,1.9866,2.0407,2.0795,2.0996,2.1081,2.1211,2.1211,2.1211,2.1203,2.1211,2.1211,2.1211,2.1211,2.1211,2.1211,2.1211,2.1211,2.1211,2.1203,2.1196,2.1211,2.1211,2.1211,2.1261,2.1439,2.1533,2.1668,2.1917,2.2088,2.2379,2.2541,2.274,2.2901,2.2958,2.3014,2.3014,2.3014,2.3014,2.3014,2.3014,2.3014,2.3014,2.3211,2.3408,2.3689,2.4052,2.4646,2.5191,2.65,2.7557,2.8318,2.8973,2.9211,2.9422,2.9669,2.9994,2.9994,2.9994,2.9994,2.9994,0.2188,0.2184,0.2124,0.2109,0.2101,0.2109,0.2081,0.2023,0.2017,0.2252,0.2725,0.3517,0.4467,0.5571,0.7041,0.8297,0.9305,1.0277,1.094,1.1337,1.1647,1.1806,1.1806,1.1806,1.1806,1.1806,1.1806,1.1806,1.1806,1.1806,1.1806,1.1806,1.1806,1.1806,1.1806,1.1806,1.1806,1.1806,1.1806,1.1806,1.1806,1.1806,1.1806,1.1806,1.1806,1.1806,1.1837,1.1953,1.2221,1.2874,1.4306,1.5639,1.682,1.783,1.8561,1.9229,2.0119,2.0579,2.0752,2.1031,2.1211,2.1211,2.1211,2.1211,2.1211,2.1211,2.1211,2.1211,2.1211,2.1211,2.1211,2.1211,2.1211,2.1211,2.1211,2.1211,2.1211,2.1211,2.1239,2.1239,2.1239,2.1325,2.1639,2.1725,2.2031,2.2371,2.2598,2.274,2.2929,2.3014,2.3014,2.3014,2.3014,2.3014,2.3014,2.3014,2.3014,2.3042,2.3155,2.3304,2.3661,2.422,2.5053,2.6327,2.7368,2.8147,2.8787,2.9079,2.9422,2.9827,2.9994,2.9994,2.9994,2.9994,2.9994,0.2188,0.2188,0.2179,0.2163,0.211,0.2099,0.2112,0.205,0.2028,0.2174,0.2566,0.3006,0.3764,0.4744,0.5908,0.7225,0.8568,0.9636,1.0547,1.1273,1.1647,1.1806,1.1806,1.1806,1.1806,1.1806,1.1806,1.1806,1.1806,1.1806,1.1806,1.1806,1.1806,1.1806,1.1806,1.1806,1.1806,1.1806,1.1806,1.1806,1.1806,1.1806,1.1806,1.1806,1.1806,1.1806,1.1833,1.2005,1.2393,1.308,1.4097,1.5075,1.5946,1.6885,1.7766,1.8619,1.949,2.0263,2.0673,2.0996,2.1182,2.1211,2.1211,2.1211,2.1211,2.1211,2.1211,2.1211,2.1211,2.1211,2.1211,2.1211,2.1211,2.1211,2.1211,2.1211,2.1211,2.1211,2.1211,2.1211,2.1211,2.1268,2.1354,2.1554,2.1831,2.2173,2.2428,2.2683,2.2901,2.3014,2.3014,2.3014,2.3014,2.3014,2.3014,2.3014,2.3014,2.3014,2.3042,2.307,2.3512,2.4072,2.5146,2.64,2.7071,2.7799,2.8575,2.9095,2.9527,2.9853,2.9994,2.9994,2.9994,2.9994,2.9994,0.2188,0.2188,0.2188,0.2178,0.2163,0.2128,0.2111,0.2116,0.2065,0.2136,0.2367,0.2658,0.3258,0.407,0.5049,0.6307,0.7772,0.8873,0.9906,1.0849,1.1526,1.1772,1.1806,1.1806,1.1806,1.1806,1.1806,1.1806,1.1806,1.1806,1.1806,1.1806,1.1806,1.1806,1.1806,1.1806,1.1806,1.1806,1.1806,1.1806,1.1806,1.1806,1.1806,1.1806,1.1806,1.1806,1.1833,1.2186,1.2599,1.308,1.3769,1.4515,1.517,1.6083,1.7032,1.7977,1.8881,1.9751,2.0414,2.0816,2.106,2.1182,2.1211,2.1211,2.1211,2.1211,2.1211,2.1211,2.1211,2.1211,2.1211,2.1211,2.1211,2.1211,2.1211,2.1211,2.1211,2.1211,2.1211,2.1211,2.1211,2.1211,2.1211,2.1382,2.1696,2.2002,2.2258,2.2562,2.2873,2.2958,2.3014,2.3014,2.3014,2.3014,2.3014,2.3014,2.3014,2.3014,2.3014,2.3014,2.3408,2.398,2.4953,2.6008,2.6718,2.7512,2.8308,2.8999,2.9343,2.9643,2.9837,2.9994,2.9994,2.9994,2.9994,0.2188,0.2188,0.2188,0.2188,0.2187,0.2188,0.2171,0.2116,0.2106,0.2078,0.2102,0.2338,0.2848,0.3495,0.4413,0.56,0.7011,0.8291,0.9447,1.0516,1.1345,1.1806,1.1806,1.1806,1.1806,1.1806,1.1806,1.1806,1.1806,1.1806,1.1806,1.1806,1.1806,1.1806,1.1806,1.1806,1.1806,1.1806,1.1806,1.1806,1.1806,1.1806,1.1806,1.1806,1.1806,1.1806,1.1953,1.2307,1.2715,1.2685,1.3329,1.4013,1.4629,1.5496,1.6414,1.7361,1.8327,1.9258,2.0068,2.0493,2.0809,2.106,2.1146,2.1211,2.1211,2.1211,2.1211,2.1211,2.1211,2.1211,2.1211,2.1211,2.1211,2.1211,2.1211,2.1211,2.1211,2.1211,2.1211,2.1211,2.1211,2.1211,2.1211,2.1268,2.1439,2.2002,2.2222,2.2477,2.2788,2.2986,2.3014,2.3014,2.3014,2.3014,2.3014,2.3014,2.3014,2.3014,2.3014,2.307,2.3332,2.3941,2.4721,2.5578,2.6527,2.7368,2.8184,2.8734,2.9185,2.9527,2.9827,2.9942,2.9994,2.9994,2.9994,0.2188,0.2188,0.2188,0.2188,0.2188,0.2188,0.2184,0.2176,0.212,0.2069,0.208,0.2105,0.2522,0.3168,0.3907,0.5109,0.686,0.808,0.9359,1.1031,1.1526,1.1806,1.1806,1.1806,1.1806,1.1806,1.1806,1.1806,1.1806,1.1806,1.1806,1.1806,1.1806,1.1806,1.1806,1.1806,1.1806,1.1806,1.1806,1.1806,1.1806,1.1806,1.1806,1.1806,1.1806,1.1806,1.1923,1.2367,1.2689,1.287,1.3324,1.3868,1.4346,1.4937,1.5763,1.6708,1.7801,1.8765,1.9468,2.0206,2.0716,2.0816,2.1053,2.1211,2.1211,2.1211,2.1211,2.1211,2.1211,2.1211,2.1211,2.1211,2.1211,2.1211,2.1211,2.1211,2.1211,2.1211,2.1211,2.1211,2.1211,2.1211,2.1211,2.1211,2.1489,2.1966,2.2222,2.2392,2.2647,2.2958,2.3014,2.3014,2.3014,2.3014,2.3014,2.3014,2.3014,2.3014,2.3014,2.3014,2.3304,2.3809,2.4562,2.5467,2.6418,2.7233,2.7987,2.8708,2.9185,2.9501,2.9774,2.9916,2.9994,2.9994,2.9994,0.2188,0.2188,0.2188,0.2188,0.2188,0.2188,0.2188,0.2186,0.2172,0.2123,0.2105,0.204,0.2399,0.3029,0.3719,0.4902,0.6556,0.8324,0.9754,1.097,1.1526,1.1806,1.1806,1.1806,1.1806,1.1806,1.1806,1.1806,1.1806,1.1806,1.1806,1.1806,1.1806,1.1806,1.1806,1.1806,1.1806,1.1806,1.1806,1.1806,1.1806,1.1806,1.1806,1.1806,1.1806,1.1806,1.1867,1.2216,1.2509,1.2779,1.3174,1.3629,1.3958,1.4436,1.5145,1.6053,1.6915,1.8064,1.8968,1.9809,2.0371,2.0694,2.0996,2.1146,2.1211,2.1211,2.1211,2.1211,2.1211,2.1211,2.1211,2.1211,2.1211,2.1211,2.1211,2.1211,2.1211,2.1211,2.1211,2.1211,2.1211,2.1211,2.1211,2.1211,2.1411,2.1803,2.2088,2.2286,2.2598,2.2853,2.2986,2.3014,2.3014,2.3014,2.3014,2.3014,2.3014,2.3014,2.3014,2.3014,2.3127,2.3717,2.4368,2.5266,2.6136,2.6908,2.7664,2.8415,2.9105,2.9317,2.9564,2.9837,2.9994,2.9994,2.9994,0.2188,0.2188,0.2188,0.2188,0.2188,0.2188,0.2188,0.2188,0.2188,0.2139,0.2119,0.2112,0.2434,0.3063,0.3707,0.4794,0.6623,0.8593,1.0274,1.0849,1.1526,1.1776,1.1806,1.1806,1.1806,1.1806,1.1806,1.1806,1.1806,1.1806,1.1806,1.1806,1.1806,1.1806,1.1806,1.1806,1.1806,1.1806,1.1806,1.1806,1.1806,1.1806,1.1806,1.1806,1.1806,1.1806,1.1863,1.2096,1.2324,1.2629,1.2994,1.3324,1.3629,1.4052,1.4525,1.5456,1.6148,1.7209,1.8386,1.9258,1.9924,2.0551,2.0902,2.1125,2.1182,2.1211,2.1211,2.1211,2.1211,2.1211,2.1211,2.1211,2.1211,2.1211,2.1211,2.1211,2.1211,2.1211,2.1211,2.1211,2.1211,2.1211,2.1211,2.1211,2.1411,2.1639,2.1896,2.218,2.2493,2.2747,2.2881,2.2986,2.3014,2.3014,2.3014,2.3014,2.3014,2.3014,2.3014,2.3014,2.307,2.3613,2.4248,2.4925,2.5743,2.6627,2.753,2.8378,2.892,2.9132,2.9485,2.9889,2.9994,2.9994,2.9994,0.2188,0.2188,0.2188,0.2188,0.2188,0.2188,0.2188,0.2188,0.2188,0.2186,0.2177,0.2154,0.2467,0.3131,0.3775,0.5377,0.7427,0.9263,1.0356,1.0868,1.1444,1.1742,1.1806,1.1806,1.1806,1.1806,1.1806,1.1806,1.1806,1.1806,1.1806,1.1806,1.1806,1.1806,1.1806,1.1806,1.1806,1.1806,1.1806,1.1806,1.1806,1.1806,1.1806,1.1806,1.1806,1.1806,1.1863,1.2066,1.2238,1.2354,1.287,1.3174,1.3384,1.3838,1.4311,1.4873,1.5615,1.662,1.7655,1.859,1.9432,2.0148,2.0637,2.0931,2.1117,2.1211,2.1211,2.1211,2.1211,2.1211,2.1211,2.1211,2.1211,2.1211,2.1211,2.1211,2.1211,2.1211,2.1211,2.1211,2.1211,2.1211,2.1211,2.1239,2.1354,2.1525,2.1725,2.201,2.2351,2.2578,2.274,2.2881,2.3014,2.3014,2.3014,2.3014,2.3014,2.3014,2.3014,2.3014,2.3155,2.3585,2.4164,2.4842,2.5689,2.6654,2.7547,2.8378,2.884,2.9132,2.9564,2.9994,2.9994,2.9994,2.9994,0.2188,0.2188,0.2188,0.2188,0.2188,0.2188,0.2188,0.2188,0.2188,0.2188,0.2184,0.2205,0.2521,0.3098,0.3601,0.5327,0.7628,0.9234,1.0221,1.0851,1.1327,1.1647,1.178,1.1811,1.1806,1.1806,1.1806,1.1806,1.1806,1.1806,1.1806,1.1806,1.1806,1.1806,1.1806,1.1806,1.1806,1.1806,1.1806,1.1806,1.1806,1.1806,1.1806,1.1806,1.1806,1.1806,1.1837,1.1889,1.2062,1.2238,1.2509,1.284,1.3174,1.3504,1.3898,1.4431,1.514,1.6,1.6979,1.7977,1.8975,1.97,2.0299,2.0723,2.096,2.1081,2.1211,2.1211,2.1211,2.1211,2.1211,2.1211,2.1211,2.1211,2.1211,2.1211,2.1211,2.1211,2.1211,2.1211,2.1211,2.1211,2.1211,2.1239,2.1296,2.1411,2.159,2.1867,2.2152,2.24,2.2598,2.2824,2.2958,2.3014,2.3014,2.3014,2.3014,2.3014,2.3014,2.3014,2.3183,2.3585,2.4108,2.4731,2.567,2.6708,2.7503,2.8308,2.8734,2.9185,2.9617,2.9942,2.9994,2.9994,2.9994,0.2188,0.2188,0.2188,0.2188,0.2188,0.2188,0.2188,0.2188,0.2188,0.2188,0.2188,0.2221,0.2475,0.3084,0.3919,0.5324,0.7676,0.8899,0.9972,1.0836,1.1237,1.1521,1.176,1.1819,1.1806,1.1806,1.1806,1.1806,1.1806,1.1806,1.1806,1.1806,1.1806,1.1806,1.1806,1.1806,1.1806,1.1806,1.1806,1.1806,1.1806,1.1806,1.1806,1.1806,1.1806,1.1806,1.1806,1.1833,1.1919,1.2066,1.2238,1.2479,1.2994,1.3174,1.3474,1.4047,1.4615,1.5383,1.6325,1.7273,1.8269,1.9207,1.9946,2.0378,2.0802,2.1024,2.1211,2.1211,2.1211,2.1211,2.1211,2.1211,2.1211,2.1211,2.1211,2.1211,2.1211,2.1211,2.1211,2.1211,2.1211,2.1211,2.1211,2.1211,2.1268,2.1268,2.1411,2.1611,2.1896,2.223,2.2485,2.2711,2.2881,2.2986,2.3014,2.3014,2.3014,2.3014,2.3014,2.3014,2.3239,2.3528,2.41,2.4731,2.5807,2.679,2.752,2.8254,2.8867,2.9343,2.9732,2.9916,2.9968,2.9994,2.9994,0.2188,0.2188,0.2188,0.2188,0.2188,0.2188,0.2188,0.2188,0.2188,0.2188,0.2188,0.2222,0.2388,0.3013,0.4371,0.5856,0.7315,0.8654,0.9827,1.0815,1.1243,1.163,1.191,1.1837,1.1843,1.1831,1.1819,1.1806,1.1806,1.1806,1.1806,1.1806,1.1806,1.1806,1.1806,1.1806,1.1806,1.1806,1.1806,1.1806,1.1806,1.1806,1.1806,1.1806,1.1806,1.1806,1.1806,1.1806,1.1833,1.1893,1.2092,1.2389,1.2719,1.305,1.3354,1.3748,1.4167,1.4729,1.5604,1.6467,1.7473,1.8561,1.9287,1.9866,2.0522,2.0996,2.1211,2.1211,2.1211,2.1211,2.1211,2.1211,2.1211,2.1211,2.1211,2.1211,2.1211,2.1211,2.1211,2.1211,2.1211,2.1211,2.1211,2.1211,2.1211,2.1211,2.1268,2.1439,2.166,2.2031,2.2477,2.276,2.2909,2.2986,2.3014,2.3014,2.3014,2.3014,2.3014,2.3014,2.3211,2.3492,2.4128,2.487,2.5908,2.6953,2.7816,2.8521,2.9095,2.9475,2.9784,2.9916,2.9994,2.9994,2.9994,0.2188,0.2188,0.2188,0.2188,0.2188,0.2188,0.2188,0.2188,0.2188,0.2188,0.2188,0.2188,0.2391,0.299,0.4507,0.583,0.6962,0.8318,0.9719,1.0746,1.1234,1.1658,1.2017,1.2016,1.1922,1.1898,1.1829,1.1806,1.1806,1.1811,1.1806,1.1806,1.1806,1.1806,1.1806,1.1806,1.1806,1.1806,1.1806,1.1806,1.1806,1.1806,1.1806,1.1806,1.1806,1.1806,1.1806,1.1806,1.1806,1.1863,1.2062,1.2354,1.2689,1.3024,1.3359,1.3658,1.3808,1.4282,1.5011,1.5793,1.6885,1.7912,1.8735,1.957,2.0436,2.0996,2.1211,2.1211,2.1211,2.1211,2.1211,2.1211,2.1211,2.1211,2.1211,2.1211,2.1211,2.1211,2.1211,2.1211,2.1211,2.1211,2.1211,2.1211,2.1211,2.1211,2.1239,2.1318,2.1575,2.186,2.2364,2.2901,2.2958,2.3014,2.3014,2.3014,2.3014,2.3014,2.3014,2.3042,2.3127,2.3512,2.4184,2.4981,2.5935,2.6971,2.8031,2.8681,2.9158,2.9511,2.98,2.9916,2.9994,2.9994,2.9994,0.2188,0.2188,0.2188,0.2188,0.2188,0.2188,0.2188,0.2188,0.2188,0.2188,0.2188,0.2222,0.2391,0.2963,0.4235,0.5402,0.6368,0.7962,0.9508,1.0562,1.1252,1.1741,1.2123,1.2199,1.207,1.2062,1.1935,1.187,1.1841,1.1835,1.1806,1.1806,1.1806,1.1806,1.1806,1.1806,1.1806,1.1806,1.1806,1.1806,1.1806,1.1806,1.1806,1.1806,1.1806,1.1806,1.1806,1.1806,1.1806,1.1863,1.2066,1.2354,1.2689,1.302,1.3354,1.3629,1.3748,1.3898,1.4515,1.5259,1.6266,1.7385,1.8613,1.9773,2.0407,2.0938,2.1211,2.1211,2.1211,2.1211,2.1211,2.1211,2.1211,2.1211,2.1211,2.1211,2.1211,2.1211,2.1211,2.1211,2.1211,2.1211,2.1211,2.1211,2.1211,2.1211,2.1239,2.1261,2.1546,2.1888,2.2364,2.2958,2.2986,2.3014,2.3014,2.3014,2.3014,2.3014,2.3014,2.3042,2.3127,2.3632,2.4331,2.5174,2.6045,2.7133,2.8271,2.8751,2.9211,2.959,2.9916,2.9942,2.9994,2.9994,2.9994,0.2188,0.2188,0.2188,0.2188,0.2188,0.2188,0.2188,0.2188,0.2188,0.2188,0.2188,0.2222,0.2391,0.2862,0.3701,0.4807,0.5977,0.7436,0.9118,1.0435,1.1279,1.1882,1.2295,1.2393,1.2284,1.2255,1.2105,1.1989,1.194,1.1861,1.1839,1.1806,1.1806,1.1806,1.1806,1.1806,1.1806,1.1806,1.1806,1.1806,1.1806,1.1806,1.1806,1.1806,1.1806,1.1806,1.1806,1.1806,1.1833,1.1863,1.2122,1.2449,1.2779,1.308,1.3414,1.3629,1.3688,1.3778,1.4102,1.4759,1.5793,1.7203,1.8781,2.0068,2.0385,2.091,2.1146,2.1211,2.1211,2.1211,2.1211,2.1211,2.1211,2.1211,2.1211,2.1211,2.1211,2.1211,2.1211,2.1211,2.1211,2.1211,2.1211,2.1211,2.1211,2.1211,2.1375,2.1432,2.186,2.2201,2.2534,2.2901,2.2986,2.3014,2.3014,2.3014,2.3014,2.3014,2.3014,2.3042,2.307,2.3745,2.447,2.5395,2.6291,2.7394,2.8368,2.891,2.9396,2.9784,2.9994,2.9994,2.9994,2.9994,2.9994,0.2188,0.2188,0.2188,0.2188,0.2188,0.2188,0.2188,0.2188,0.2188,0.2188,0.2188,0.2222,0.2256,0.2659,0.3632,0.4603,0.5774,0.7581,0.915,1.0442,1.1381,1.2048,1.2442,1.2568,1.2494,1.2426,1.2284,1.2117,1.1985,1.192,1.1857,1.1843,1.1815,1.1806,1.1806,1.1806,1.1806,1.1806,1.1806,1.1806,1.1806,1.1806,1.1806,1.1806,1.1806,1.1806,1.1806,1.1806,1.1889,1.2062,1.2328,1.2629,1.2964,1.3294,1.3539,1.3688,1.3688,1.3718,1.3838,1.4495,1.5531,1.7297,1.9049,2.0299,2.0328,2.0859,2.1146,2.1211,2.1211,2.1211,2.1211,2.1211,2.1211,2.1211,2.1211,2.1211,2.1211,2.1211,2.1211,2.1211,2.1211,2.1211,2.1211,2.1211,2.1211,2.1239,2.1403,2.1632,2.2031,2.24,2.2711,2.2901,2.2986,2.3014,2.3014,2.3014,2.3014,2.3014,2.3014,2.3098,2.3211,2.3837,2.461,2.5532,2.6536,2.7618,2.8511,2.9095,2.9527,2.9889,2.9994,2.9994,2.9994,2.9994,2.9994,0.2188,0.2188,0.2188,0.2188,0.2188,0.2188,0.2188,0.2188,0.2188,0.2188,0.2188,0.2188,0.2256,0.2693,0.3565,0.4704,0.5875,0.7512,0.9117,1.0379,1.1372,1.2078,1.2463,1.2665,1.2645,1.2601,1.2471,1.2308,1.2227,1.2058,1.194,1.1878,1.1805,1.1811,1.1806,1.1806,1.1806,1.1806,1.1806,1.1806,1.1806,1.1806,1.1806,1.1806,1.1806,1.1806,1.1806,1.1837,1.1915,1.2182,1.2509,1.284,1.3174,1.3479,1.3658,1.3688,1.3718,1.3723,1.4022,1.4818,1.5882,1.7555,1.9223,2.0097,2.0443,2.0831,2.1182,2.1211,2.1211,2.1211,2.1211,2.1211,2.1211,2.1211,2.1211,2.1211,2.1211,2.1211,2.1211,2.1211,2.1211,2.1211,2.1211,2.1211,2.1211,2.1318,2.1632,2.1803,2.2059,2.2428,2.2796,2.2929,2.2986,2.3014,2.3014,2.3014,2.3014,2.3014,2.3042,2.3219,2.3472,2.4089,2.4804,2.5771,2.6771,2.787,2.8628,2.9237,2.9617,2.9931,2.9994,2.9994,2.9994,2.9994,2.9994,0.2188,0.2188,0.2188,0.2188,0.2188,0.2188,0.2188,0.2188,0.2188,0.2188,0.2188,0.2188,0.2357,0.276,0.3533,0.4571,0.591,0.7412,0.8884,1.0153,1.1314,1.1912,1.2338,1.2574,1.2738,1.2742,1.2653,1.2544,1.2531,1.2255,1.2062,1.1955,1.1853,1.1806,1.1806,1.1806,1.1806,1.1806,1.1806,1.1806,1.1806,1.1806,1.1806,1.1806,1.1806,1.1806,1.1806,1.1863,1.2005,1.2298,1.2599,1.2934,1.3269,1.3539,1.3688,1.3688,1.3688,1.3868,1.4257,1.5634,1.6779,1.787,1.9426,2.0213,2.045,2.0831,2.1211,2.1211,2.1211,2.1211,2.1211,2.1211,2.1211,2.1211,2.1211,2.1211,2.1211,2.1211,2.1211,2.1211,2.1211,2.1211,2.1211,2.1211,2.1211,2.1375,2.1795,2.2023,2.2144,2.2428,2.2768,2.2929,2.3014,2.3014,2.3014,2.3014,2.3014,2.3014,2.307,2.3247,2.3661,2.4295,2.5091,2.6008,2.7097,2.8245,2.884,2.938,2.9695,2.9968,2.9994,2.9994,2.9994,2.9994,2.9994,0.2188,0.2188,0.2188,0.2188,0.2188,0.2188,0.2188,0.2188,0.2188,0.2188,0.2188,0.2188,0.2391,0.2861,0.3499,0.4472,0.5713,0.7379,0.8781,0.9851,1.1148,1.1876,1.2309,1.2572,1.277,1.2787,1.2718,1.2657,1.2576,1.2385,1.2211,1.206,1.1886,1.1815,1.1806,1.1806,1.1806,1.1806,1.1806,1.1806,1.1806,1.1806,1.1806,1.1806,1.1806,1.1806,1.1837,1.1923,1.2182,1.2479,1.2814,1.3144,1.3419,1.3688,1.3688,1.3688,1.3718,1.4197,1.5026,1.6231,1.7197,1.8315,1.9397,2.0328,2.0587,2.0938,2.1146,2.1211,2.1211,2.1211,2.1211,2.1211,2.1211,2.1211,2.1211,2.1211,2.1211,2.1211,2.1211,2.1211,2.1211,2.1211,2.1211,2.1211,2.1211,2.1268,2.1603,2.1888,2.2059,2.2371,2.2711,2.2909,2.3014,2.3014,2.3014,2.3014,2.3014,2.3014,2.3098,2.3239,2.3792,2.449,2.5367,2.6291,2.7457,2.8581,2.9095,2.9538,2.9774,2.9968,2.9994,2.9994,2.9994,2.9994,2.9994,0.2188,0.2188,0.2188,0.2188,0.2188,0.2188,0.2188,0.2188,0.2188,0.2188,0.2188,0.2222,0.2457,0.2928,0.3566,0.4505,0.5646,0.7114,0.8448,0.9513,1.0916,1.1644,1.2144,1.2539,1.277,1.2803,1.2791,1.2759,1.2702,1.2629,1.2361,1.2046,1.1918,1.1876,1.1839,1.1806,1.1806,1.1806,1.1806,1.1806,1.1806,1.1806,1.1806,1.1806,1.1806,1.1806,1.1863,1.2066,1.2359,1.2694,1.3024,1.3354,1.3599,1.3688,1.3688,1.3688,1.4018,1.4615,1.5615,1.662,1.7678,1.8881,1.9815,2.0357,2.0666,2.0996,2.1146,2.1211,2.1211,2.1211,2.1211,2.1211,2.1211,2.1211,2.1211,2.1211,2.1211,2.1211,2.1211,2.1211,2.1211,2.1211,2.1211,2.1211,2.1211,2.1296,2.1382,2.166,2.1945,2.2286,2.2598,2.2796,2.2958,2.2986,2.2986,2.3014,2.3014,2.3014,2.3127,2.3267,2.3968,2.4684,2.5624,2.66,2.7726,2.8724,2.929,2.9722,2.9879,2.9994,2.9994,2.9994,2.9994,2.9994,2.9994,0.2188,0.2188,0.2188,0.2188,0.2188,0.2188,0.2188,0.2188,0.2188,0.2188,0.2188,0.2223,0.2591,0.3161,0.3632,0.4539,0.5778,0.698,0.8048,0.925,1.0651,1.1314,1.1945,1.2441,1.2704,1.2803,1.2799,1.2787,1.28,1.2678,1.2377,1.2146,1.2001,1.1939,1.1853,1.1823,1.1815,1.1806,1.1806,1.1806,1.1806,1.1806,1.1806,1.1806,1.1806,1.1806,1.1893,1.2126,1.2389,1.2719,1.305,1.3354,1.3569,1.3688,1.3688,1.3868,1.4291,1.5086,1.6029,1.6973,1.8146,1.9316,2.0018,2.0407,2.073,2.1031,2.1146,2.1211,2.1211,2.1211,2.1211,2.1211,2.1211,2.1211,2.1211,2.1211,2.1211,2.1211,2.1211,2.1211,2.1211,2.1211,2.1211,2.1211,2.1211,2.1239,2.1296,2.1375,2.1689,2.2088,2.24,2.2655,2.2824,2.2937,2.2958,2.3014,2.3014,2.3014,2.3155,2.338,2.4136,2.4934,2.5889,2.6899,2.8004,2.8857,2.9527,2.9827,2.9942,2.9994,2.9994,2.9994,2.9994,2.9994,2.9994,0.2188,0.2188,0.2188,0.2188,0.2188,0.2188,0.2188,0.2188,0.2188,0.2188,0.2188,0.2458,0.2793,0.3229,0.3632,0.4505,0.5545,0.665,0.7717,0.8987,1.0419,1.1251,1.1912,1.2441,1.2704,1.2803,1.2803,1.2799,1.2763,1.2653,1.2596,1.245,1.2178,1.2013,1.1947,1.1841,1.1839,1.1815,1.1819,1.1806,1.1806,1.1806,1.1806,1.1806,1.1806,1.1806,1.1893,1.2242,1.2539,1.2719,1.3264,1.3599,1.3658,1.3718,1.3753,1.4112,1.4644,1.5383,1.6331,1.7267,1.8373,1.9548,2.0126,2.0565,2.091,2.1117,2.1211,2.1211,2.1211,2.1211,2.1211,2.1211,2.1211,2.1211,2.1211,2.1211,2.1211,2.1211,2.1211,2.1211,2.1211,2.1211,2.1211,2.1211,2.1211,2.1211,2.1247,2.1311,2.1475,2.1883,2.2201,2.2456,2.2683,2.2824,2.2958,2.3014,2.3014,2.3042,2.3183,2.3548,2.4303,2.5155,2.6163,2.7241,2.8432,2.9211,2.98,2.9994,2.9994,2.9994,2.9994,2.9994,2.9994,2.9994,2.9994,0.2188,0.2188,0.2188,0.2188,0.2188,0.2188,0.2188,0.2188,0.2188,0.2188,0.2256,0.2559,0.2895,0.3228,0.3666,0.4372,0.5448,0.6351,0.7419,0.882,1.0286,1.1118,1.1846,1.2441,1.2737,1.2803,1.2803,1.2803,1.2771,1.2743,1.2653,1.2564,1.2304,1.2223,1.2117,1.1991,1.1898,1.1861,1.1829,1.1819,1.1806,1.1806,1.1806,1.1806,1.1806,1.1806,1.1867,1.2307,1.2509,1.2719,1.3264,1.3569,1.3629,1.3718,1.3843,1.4202,1.4759,1.5615,1.6585,1.759,1.8693,1.9657,2.027,2.068,2.0974,2.1211,2.1211,2.1211,2.1211,2.1211,2.1211,2.1211,2.1211,2.1211,2.1211,2.1211,2.1211,2.1211,2.1211,2.1211,2.1211,2.1211,2.1211,2.1218,2.1211,2.1211,2.1254,2.1356,2.1449,2.1685,2.2012,2.2258,2.2513,2.2711,2.2873,2.3014,2.3014,2.3078,2.3275,2.3725,2.4498,2.5477,2.6563,2.7726,2.8893,2.9485,2.9931,2.9994,2.9994,2.9994,2.9994,2.9994,2.9994,2.9994,2.9994,0.2188,0.2188,0.2188,0.2188,0.2188,0.2188,0.2188,0.2188,0.2188,0.2188,0.229,0.2592,0.2928,0.3262,0.3699,0.4473,0.5347,0.6183,0.7285,0.8653,1.0087,1.1118,1.1813,1.2441,1.2737,1.2803,1.2803,1.2803,1.2803,1.2763,1.2718,1.2625,1.2568,1.2478,1.2308,1.2146,1.206,1.2005,1.1918,1.1825,1.1815,1.1806,1.1806,1.1806,1.1806,1.1806,1.1863,1.2066,1.2328,1.2659,1.302,1.3359,1.3599,1.3718,1.3903,1.4376,1.4937,1.5911,1.6938,1.7977,1.9026,1.9924,2.0551,2.0816,2.1053,2.1211,2.1211,2.1211,2.1211,2.1211,2.1211,2.1211,2.1211,2.1211,2.1211,2.1211,2.1211,2.1211,2.1211,2.1211,2.1211,2.1225,2.1372,2.1393,2.1503,2.1372,2.1423,2.154,2.162,2.1757,2.1985,2.2246,2.2302,2.2585,2.2901,2.3014,2.3014,2.3106,2.336,2.3941,2.474,2.5826,2.7006,2.8155,2.9237,2.959,2.9931,2.9968,2.9994,2.9994,2.9994,2.9994,2.9994,2.9994,2.9994,0.2188,0.2188,0.2188,0.2188,0.2188,0.2188,0.2188,0.2188,0.2188,0.2222,0.2323,0.2792,0.3128,0.3262,0.3867,0.4642,0.5379,0.615,0.7254,0.862,1.002,1.1049,1.1817,1.2408,1.2737,1.2803,1.2803,1.2803,1.2803,1.2795,1.2787,1.2755,1.267,1.2548,1.2499,1.2328,1.2239,1.2223,1.2038,1.1918,1.1876,1.1827,1.1806,1.1806,1.1806,1.1806,1.1893,1.2036,1.2178,1.2389,1.2934,1.3324,1.3688,1.3688,1.3988,1.4525,1.5294,1.6266,1.7326,1.8386,1.941,2.004,2.0551,2.0845,2.1081,2.1146,2.1211,2.1211,2.1211,2.1211,2.1211,2.1211,2.1211,2.1211,2.1211,2.1211,2.1225,2.1254,2.1247,2.1254,2.1254,2.1364,2.1525,2.1657,2.173,2.1855,2.1965,2.2038,2.2016,2.212,2.2295,2.2444,2.2202,2.2389,2.2783,2.3014,2.3042,2.3267,2.3528,2.4211,2.5036,2.65,2.7904,2.8661,2.9448,2.9748,2.9942,2.9968,2.9994,2.9994,2.9994,2.9994,2.9994,2.9994,2.9994,0.2188,0.2188,0.2188,0.2188,0.2188,0.2188,0.2188,0.2188,0.2188,0.229,0.2457,0.2927,0.3193,0.3329,0.3969,0.471,0.5414,0.6085,0.7288,0.862,0.9854,1.0916,1.1681,1.2342,1.2605,1.2737,1.277,1.2803,1.2803,1.2803,1.2795,1.2787,1.2714,1.267,1.2653,1.2519,1.2454,1.2442,1.2239,1.2105,1.1967,1.192,1.1823,1.1806,1.1806,1.1806,1.1833,1.1979,1.2062,1.2328,1.2844,1.3324,1.3599,1.3688,1.4102,1.4788,1.5615,1.6555,1.7649,1.8735,1.97,2.0213,2.073,2.1089,2.1117,2.1211,2.1211,2.1211,2.1211,2.1211,2.1211,2.1211,2.1211,2.1211,2.124,2.1262,2.1459,2.165,2.1693,2.1759,2.1759,2.1789,2.1935,2.192,2.2001,2.2038,2.2192,2.2323,2.236,2.2503,2.2669,2.2756,2.2591,2.2518,2.286,2.3042,2.3078,2.336,2.3729,2.4878,2.6008,2.7501,2.8794,2.9254,2.9617,2.9863,2.9994,3.0036,3.0005,2.9994,2.9994,2.9994,3.0025,3.0108,3.0118,0.2188,0.2188,0.2188,0.2188,0.2188,0.2188,0.2188,0.2188,0.2188,0.2357,0.2694,0.3027,0.3194,0.353,0.3969,0.4708,0.5414,0.6085,0.7252,0.8554,0.9721,1.0784,1.1615,1.218,1.2507,1.2704,1.277,1.2803,1.2803,1.2803,1.2803,1.2803,1.2803,1.2799,1.275,1.2702,1.2629,1.2588,1.245,1.2353,1.219,1.2008,1.1912,1.1851,1.1819,1.1811,1.1806,1.1833,1.1949,1.2333,1.281,1.3294,1.3629,1.3808,1.4346,1.4997,1.5876,1.6844,1.7935,1.9142,1.9837,2.0414,2.0917,2.1204,2.1247,2.1291,2.1291,2.135,2.135,2.1298,2.1306,2.1357,2.1357,2.1372,2.1408,2.1445,2.1737,2.1993,2.2074,2.2154,2.2162,2.2199,2.2235,2.2242,2.2264,2.2264,2.2345,2.2476,2.264,2.2845,2.3051,2.3194,2.3159,2.314,2.3219,2.3277,2.3406,2.3671,2.424,2.5592,2.6899,2.8084,2.8963,2.9438,2.9774,2.9983,3.0087,3.0129,3.0087,3.0149,3.0387,3.0522,3.0518,3.0522,3.0377,0.2188,0.2188,0.2188,0.2188,0.2188,0.2188,0.2188,0.2188,0.2222,0.2391,0.2761,0.3061,0.3362,0.3699,0.4104,0.471,0.5347,0.6083,0.7252,0.8587,0.9622,1.0717,1.1648,1.221,1.251,1.2671,1.2803,1.2803,1.2803,1.2803,1.2803,1.2803,1.2803,1.2803,1.2795,1.2734,1.2747,1.2698,1.2621,1.2515,1.2418,1.2231,1.2032,1.1939,1.1849,1.1835,1.1806,1.1806,1.1949,1.2303,1.281,1.3294,1.3658,1.3963,1.4466,1.5235,1.6113,1.7173,1.8292,1.9461,2.0155,2.0622,2.1075,2.1379,2.1474,2.1613,2.1679,2.1847,2.1811,2.1664,2.1672,2.1832,2.1884,2.1906,2.1935,2.1957,2.214,2.2198,2.2257,2.2286,2.2286,2.2389,2.2542,2.2586,2.2652,2.2689,2.2784,2.2901,2.291,2.3158,2.3443,2.3543,2.3647,2.3813,2.3898,2.384,2.3961,2.4195,2.4845,2.6357,2.757,2.8354,2.9125,2.9846,3.0012,3.0139,3.0191,3.0439,3.0491,3.0636,3.1015,3.1181,3.1087,3.0984,3.0812]},{"header":{"parameterUnit":"m.s-1","parameterCategory":1,"la1":31.0,"la2":29.5877,"lo1":-88.7671,"lo2":-86.6584,"dy":0.0162,"dx":0.0185,"nx":115,"ny":88,"refTime":"2023-03-16T18:00:00:Z","depth":0,"parameterNumber":3,"parameterNumberName":"V-component_of_WINDS"},"data":[0.0,0.0,0.0,0.0,0.0,0.0,0.0,0.0,0.0,0.0,0.0,0.0,0.0,0.0,0.0,0.0,0.0,0.0,0.0,0.0,0.0,0.0,0.0,0.0,0.0,0.0,0.0,0.0,0.0,0.0,0.0,0.0,0.0,0.0,0.0,0.0,0.0,0.0,0.0,0.0,0.0,0.0,0.0,0.0,0.0,0.0,0.0,0.0,0.0,0.0,0.0,0.0,0.0,0.0,0.0,0.0,0.0,0.0,0.0,0.0,0.0,0.0,0.0,0.0,0.0,0.0,0.0,0.0,0.0,0.0,0.0,0.0,0.0,0.0,0.0,0.0,0.0,0.0,0.0,0.0,0.0,0.0,0.0,0.0,0.0,0.0,0.0,0.0,0.0,0.0,0.0,0.0,0.0,0.0,0.0,0.0,0.0,0.0,0.0,0.0,0.0,0.0,0.0,0.0,0.0,0.0,0.0,0.0,0.0,0.0,0.0,0.0,0.0,0.0,0.0,0.0,0.0,0.0,0.0,0.0,0.0,0.0,0.0,0.0,0.0,0.0,0.0,0.0,0.0,0.0,0.0,0.0,0.0,0.0,0.0,0.0,0.0,0.0,0.0,0.0,0.0,0.0,0.0,0.0,0.0,0.0,0.0,0.0,0.0,0.0,0.0,0.0,0.0,0.0,0.0,0.0,0.0,0.0,0.0,0.0,0.0,0.0,0.0,0.0,0.0,0.0,0.0,0.0,0.0,0.0,0.0,0.0,0.0,0.0,0.0,0.0,0.0,0.0,0.0,0.0,0.0,0.0,0.0,0.0,0.0,0.0,0.0,0.0,0.0,0.0,0.0,0.0,0.0,0.0,0.0,0.0,0.0,0.0,0.0,0.0,0.0,0.0,0.0,0.0,0.0,0.0,0.0,0.0,0.0,0.0,0.0,0.0,0.0,0.0,0.0,0.0,0.0,0.0,0.0,0.0,0.0,0.0,0.0,0.0,0.0,0.0,0.0,0.0,0.0,0.0,0.0,0.0,0.0,0.0,0.0,0.0,0.0,0.0,0.0,0.0,0.0,0.0,0.0,0.0,0.0,0.0,0.0,0.0,0.0,0.0,0.0,0.0,0.0,0.0,0.0,0.0,0.0,0.0,0.0,0.0,0.0,0.0,0.0,0.0,0.0,0.0,0.0,0.0,0.0,0.0,0.0,0.0,0.0,0.0,0.0,0.0,0.0,0.0,0.0,0.0,0.0,0.0,0.0,0.0,0.0,0.0,0.0,0.0,0.0,0.0,0.0,0.0,0.0,0.0,0.0,0.0,0.0,0.0,0.0,0.0,0.0,0.0,0.0,0.0,0.0,0.0,0.0,0.0,0.0,0.0,0.0,0.0,0.0,0.0,0.0,0.0,0.0,0.0,0.0,0.0,0.0,0.0,0.0,0.0,0.0,0.0,0.0,0.0,0.0,0.0,0.0,0.0,0.0,0.0,0.0,0.0,0.0,0.0,0.0,0.0,0.0,0.0,0.0,0.0,0.0,0.0,0.0,0.0,0.0,0.0,0.0,0.0,0.0,0.0,0.0,0.0,0.0,0.0,0.0,0.0,0.0,0.0,0.0,0.0,0.0,0.0,0.0,0.0,0.0,0.0,0.0,0.0,0.0,0.0,0.0,0.0,0.0,0.0,0.0,0.0,0.0,0.0,0.0,0.0,0.0,0.0,0.0,0.0,0.0,0.0,0.0,0.0,0.0,0.0,0.0,0.0,0.0,0.0,0.0,0.0,0.0,0.0,0.0,0.0,0.0,0.0,0.0,0.0,0.0,0.0,0.0,0.0,0.0,0.0,0.0,0.0,0.0,0.0,0.0,0.0,0.0,0.0,0.0,0.0,0.0,0.0,0.0,0.0,0.0,0.0,0.0,0.0,0.0,0.0,0.0,0.0,0.0,0.0,0.0,0.0,0.0,0.0,0.0,0.0,0.0,0.0,0.0,0.0,0.0,0.0,0.0,0.0,0.0,0.0,0.0,0.0,0.0,0.0,0.0,0.0,0.0,0.0,0.0,0.0,0.0,0.0,0.0,0.0,0.0,0.0,0.0,0.0,0.0,0.0,0.0,0.0,0.0,0.0,0.0,0.0,0.0,0.0,0.0,0.0,0.0,0.0,0.0,0.0,0.0,0.0,0.0,0.0,0.0,0.0,0.0,0.0,0.0,0.0,0.0,0.0,0.0,0.0,0.0,0.0,0.0,0.0,0.0,0.0,0.0,0.0,0.0,0.0,0.0,0.0,0.0,0.0,0.0,0.0,0.0,0.0,0.0,0.0,0.0,0.0,0.0,0.0,0.0,0.0,0.0,0.0,0.0,0.0,0.0,0.0,0.0,0.0,0.0,0.0,0.0,0.0,0.0,0.0,0.0,0.0,0.0,0.0,0.0,0.0,0.0,0.0,0.0,0.0,0.0,0.0,0.0,0.0,0.0,0.0,0.0,0.0,0.0,0.0,0.0,0.0,0.0,0.0,0.0,0.0,0.0,0.0,0.0,0.0,0.0,0.0,0.0,0.0,0.0,0.0,0.0,0.0,0.0,0.0,0.0,0.0,0.0,0.0,0.0,0.0,0.0,0.0,0.0,0.0,0.0,0.0,0.0,0.0,0.0,0.0,0.0,0.0,0.0,0.0,0.0,0.0,0.0,0.0,0.0,0.0,0.0,0.0,0.0,0.0,0.0,0.0,0.0,0.0,0.0,0.0,0.0,0.0,0.0,0.0,0.0,0.0,0.0,0.0,0.0,0.0,0.0,0.0,0.0,0.0,0.0,0.0,0.0,0.0,0.0,0.0,0.0,0.0,0.0,0.0,0.0,0.0,0.0,0.0,0.0,0.0,0.0,0.0,0.0,0.0,0.0,0.0,0.0,0.0,0.0,0.0,0.0,0.0,0.0,0.0,0.0,0.0,0.0,0.0,0.0,0.0,0.0,0.0,0.0,0.0,0.0,0.0,0.0,0.0,0.0,0.0,0.0,0.0,0.0,0.0,0.0,0.0,0.0,0.0,0.0,0.0,0.0,0.0,0.0,0.0,0.0,0.0,0.0,0.0,0.0,0.0,0.0,0.0,0.0,0.0,0.0,0.0,0.0,0.0,0.0,0.0,0.0,0.0,0.0,0.0,0.0,0.0,0.0,0.0,0.0,0.0,0.0,0.0,0.0,0.0,0.0,0.0,0.0,0.0,0.0,0.0,0.0,0.0,0.0,0.0,0.0,0.0,0.0,0.0,0.0,0.0,0.0,0.0,0.0,0.0,0.0,0.0,0.0,0.0,0.0,0.0,0.0,0.0,0.0,0.0,0.0,0.0,0.0,0.0,0.0,0.0,0.0,0.0,0.0,0.0,0.0,0.0,0.0,0.0,0.0,0.0,0.0,0.0,0.0,0.0,0.0,0.0,0.0,0.0,0.0,0.0,0.0,0.0,0.0,0.0,0.0,0.0,0.0,0.0,0.0,0.0,0.0,0.0,0.0,0.0,0.0,0.0,0.0,0.0,0.0,0.0,0.0,0.0,0.0,0.0,0.0,0.0,0.0,0.0,0.0,0.0,0.0,0.0,0.0,0.0,0.0,0.0,0.0,0.0,0.0,0.0,0.0,0.0,0.0,0.0,0.0,0.0,0.0,0.0,0.0,0.0,0.0,0.0,0.0,0.0,0.0,0.0,0.0,0.0,0.0,0.0,0.0,0.0,0.0,0.0,0.0,0.0,0.0,0.0,0.0,0.0,0.0,0.0,0.0,0.0,0.0,0.0,0.0,0.0,0.0,0.0,0.0,0.0,0.0,0.0,0.0,0.0,0.0,0.0,0.0,0.0,0.0,0.0,0.0,0.0,0.0,0.0,0.0,0.0,0.0,0.0,0.0,0.0,0.0,0.0,0.0,0.0,0.0,0.0,0.0,0.0,0.0,0.0,0.0,0.0,0.0,0.0,0.0,0.0,0.0,0.0,0.0,0.0,0.0,0.0,0.0,0.0,0.0,0.0,0.0,0.0,0.0,0.0,0.0,0.0,0.0,0.0,0.0,0.0,0.0,0.0,0.0,0.0,0.0,0.0,0.0,0.0,0.0,0.0,0.0,0.0,0.0,0.0,0.0,0.0,0.0,0.0,0.0,0.0,0.0,0.0,0.0,0.0,0.0,0.0,0.0,0.0,0.0,0.0,0.0,0.0,0.0,0.0,0.0,0.0,0.0,0.0,0.0,0.0,0.0,0.0,0.0,0.0,0.0,0.0,0.0,0.0,0.0,0.0,2.3034,0.0,0.0,0.0,0.0,0.0,0.0,0.0,0.0,0.0,0.0,0.0,0.0,0.0,0.0,0.0,0.0,0.0,0.0,0.0,0.0,0.0,0.0,0.0,0.0,0.0,0.0,0.0,0.0,0.0,0.0,0.0,0.0,0.0,0.0,0.0,0.0,0.0,0.0,0.0,0.0,0.0,0.0,0.0,0.0,0.0,0.0,0.0,0.0,0.0,0.0,0.0,0.0,0.0,0.0,0.0,0.0,0.0,0.0,0.0,0.0,0.0,0.0,0.0,0.0,0.0,0.0,0.0,0.0,0.0,0.0,0.0,0.0,0.0,0.0,0.0,0.0,0.0,0.0,0.0,0.0,0.0,0.0,0.0,0.0,0.0,0.0,0.0,0.0,0.0,0.0,0.0,0.0,0.0,0.0,0.0,0.0,0.0,0.0,0.0,0.0,0.0,0.0,0.0,0.0,0.0,0.0,0.0,0.0,0.0,0.0,2.2893,2.2849,2.2919,2.2957,2.2951,0.0,0.0,0.0,0.0,0.0,0.0,0.0,0.0,0.0,0.0,0.0,0.0,0.0,0.0,0.0,0.0,0.0,0.0,0.0,0.0,0.0,0.0,0.0,0.0,0.0,0.0,0.0,0.0,0.0,0.0,0.0,0.0,0.0,0.0,0.0,0.0,0.0,0.0,0.0,0.0,0.0,0.0,0.0,0.0,0.0,0.0,0.0,0.0,0.0,0.0,0.0,0.0,0.0,0.0,0.0,0.0,0.0,0.0,0.0,0.0,0.0,0.0,0.0,0.0,0.0,0.0,0.0,0.0,0.0,0.0,0.0,0.0,0.0,0.0,0.0,0.0,0.0,0.0,0.0,0.0,0.0,0.0,0.0,0.0,0.0,0.0,0.0,0.0,0.0,0.0,0.0,0.0,0.0,0.0,0.0,0.0,0.0,0.0,0.0,0.0,0.0,0.0,0.0,0.0,0.0,0.0,0.0,0.0,0.0,0.0,0.0,0.0,2.2803,2.2849,2.2861,0.0,0.0,0.0,0.0,0.0,0.0,0.0,0.0,0.0,0.0,0.0,0.0,0.0,0.0,0.0,0.0,0.0,0.0,0.0,0.0,0.0,0.0,0.0,0.0,0.0,0.0,0.0,0.0,0.0,0.0,0.0,0.0,0.0,0.0,0.0,0.0,0.0,0.0,0.0,0.0,0.0,0.0,0.0,0.0,0.0,0.0,0.0,0.0,0.0,0.0,0.0,0.0,0.0,0.0,0.0,0.0,0.0,0.0,0.0,0.0,0.0,0.0,0.0,0.0,0.0,0.0,0.0,0.0,0.0,0.0,0.0,0.0,0.0,0.0,0.0,0.0,0.0,0.0,0.0,0.0,0.0,0.0,0.0,0.0,0.0,0.0,0.0,0.0,0.0,0.0,0.0,0.0,0.0,0.0,0.0,0.0,0.0,0.0,0.0,0.0,0.0,0.0,0.0,0.0,0.0,0.0,0.0,0.0,0.0,0.0,2.2542,2.2528,2.2585,0.0,2.2718,0.0,0.0,0.0,0.0,0.0,0.0,0.0,0.0,0.0,0.0,0.0,0.0,0.0,0.0,0.0,0.0,0.0,0.0,0.0,0.0,0.0,0.0,0.0,0.0,0.0,0.0,0.0,0.0,0.0,0.0,0.0,0.0,0.0,0.0,0.0,0.0,0.0,0.0,0.0,0.0,0.0,0.0,0.0,0.0,0.0,0.0,0.0,0.0,0.0,0.0,0.0,0.0,0.0,0.0,0.0,0.0,0.0,0.0,0.0,0.0,0.0,0.0,0.0,0.0,0.0,0.0,0.0,0.0,0.0,0.0,0.0,0.0,0.0,0.0,0.0,0.0,0.0,0.0,0.0,0.0,0.0,0.0,0.0,0.0,0.0,0.0,0.0,0.0,0.0,0.0,0.0,0.0,0.0,0.0,0.0,0.0,0.0,0.0,0.0,0.0,0.0,0.0,0.0,0.0,0.0,0.0,0.0,0.0,0.0,0.0,2.2356,2.2335,2.2426,2.2504,0.0,0.0,0.0,0.0,0.0,0.0,0.0,0.0,0.0,0.0,0.0,0.0,0.0,0.0,0.0,0.0,0.0,0.0,0.0,0.0,0.0,0.0,0.0,0.0,0.0,0.0,0.0,0.0,0.0,0.0,0.0,0.0,0.0,0.0,0.0,0.0,0.0,0.0,0.0,0.0,0.0,0.0,0.0,0.0,0.0,0.0,0.0,0.0,0.0,0.0,0.0,0.0,0.0,0.0,0.0,0.0,0.0,0.0,0.0,0.0,0.0,0.0,0.0,0.0,0.0,0.0,0.0,0.0,0.0,0.0,0.0,0.0,0.0,0.0,0.0,0.0,0.0,0.0,0.0,0.0,0.0,0.0,0.0,0.0,0.0,0.0,0.0,0.0,0.0,0.0,0.0,0.0,0.0,0.0,0.0,0.0,0.0,0.0,0.0,0.0,0.0,0.0,0.0,0.0,0.0,0.0,0.0,0.0,0.0,0.0,2.2261,2.2261,2.2237,2.231,2.2387,2.2456,0.0,0.0,0.0,0.0,0.0,0.0,0.0,0.0,0.0,0.0,0.0,0.0,0.0,0.0,0.0,0.0,0.0,0.0,0.0,0.0,0.0,0.0,0.0,0.0,0.0,0.0,0.0,0.0,0.0,0.0,0.0,0.0,0.0,0.0,0.0,0.0,0.0,0.0,0.0,0.0,0.0,0.0,0.0,0.0,0.0,0.0,0.0,0.0,0.0,0.0,0.0,0.0,0.0,0.0,0.0,0.0,0.0,0.0,0.0,0.0,0.0,0.0,0.0,0.0,0.0,0.0,0.0,0.0,0.0,0.0,0.0,0.0,0.0,0.0,0.0,0.0,0.0,0.0,0.0,0.0,0.0,0.0,0.0,0.0,0.0,0.0,0.0,0.0,0.0,0.0,0.0,0.0,0.0,0.0,0.0,0.0,0.0,0.0,0.0,0.0,0.0,0.0,0.0,0.0,0.0,0.0,0.0,0.0,2.2027,2.2144,2.2225,2.2289,2.2249,2.2233,0.0,0.0,0.0,0.0,0.0,0.0,0.0,0.0,0.0,0.0,0.0,0.0,0.0,0.0,0.0,0.0,0.0,0.0,0.0,0.0,0.0,0.0,0.0,0.0,0.0,0.0,0.0,0.0,0.0,0.0,0.0,0.0,0.0,0.0,0.0,0.0,0.0,0.0,0.0,0.0,0.0,0.0,0.0,0.0,0.0,0.0,0.0,0.0,0.0,0.0,0.0,0.0,0.0,0.0,0.0,0.0,0.0,0.0,0.0,0.0,0.0,0.0,0.0,0.0,0.0,0.0,0.0,0.0,0.0,0.0,0.0,0.0,0.0,0.0,0.0,0.0,0.0,0.0,0.0,0.0,0.0,0.0,0.0,0.0,0.0,0.0,0.0,0.0,0.0,0.0,0.0,0.0,0.0,0.0,0.0,0.0,0.0,0.0,0.0,0.0,0.0,0.0,0.0,0.0,0.0,0.0,0.0,0.0,0.0,2.2006,2.2044,2.2128,2.2242,2.2128,2.2149,0.0,0.0,0.0,0.0,0.0,0.0,0.0,0.0,0.0,0.0,0.0,0.0,0.0,0.0,0.0,0.0,0.0,0.0,0.0,0.0,0.0,0.0,0.0,0.0,0.0,0.0,0.0,0.0,0.0,0.0,0.0,0.0,0.0,0.0,0.0,0.0,0.0,0.0,0.0,0.0,0.0,0.0,0.0,0.0,0.0,0.0,0.0,0.0,0.0,0.0,0.0,0.0,0.0,0.0,0.0,0.0,0.0,0.0,0.0,0.0,0.0,0.0,0.0,0.0,0.0,0.0,0.0,0.0,0.0,0.0,0.0,0.0,0.0,0.0,0.0,0.0,0.0,0.0,0.0,0.0,0.0,0.0,0.0,0.0,0.0,0.0,0.0,0.0,0.0,0.0,0.0,0.0,0.0,0.0,0.0,0.0,0.0,0.0,0.0,0.0,0.0,0.0,0.0,0.0,0.0,0.0,0.0,0.0,0.0,2.2087,0.0,2.2156,2.2261,2.2147,2.2154,0.0,0.0,0.0,0.0,0.0,0.0,0.0,0.0,0.0,0.0,0.0,0.0,0.0,0.0,0.0,0.0,0.0,0.0,0.0,0.0,0.0,0.0,0.0,0.0,0.0,0.0,0.0,0.0,0.0,0.0,0.0,0.0,0.0,0.0,0.0,0.0,0.0,0.0,0.0,0.0,0.0,0.0,0.0,0.0,0.0,0.0,0.0,0.0,0.0,0.0,0.0,0.0,0.0,0.0,0.0,0.0,0.0,0.0,0.0,0.0,0.0,0.0,0.0,0.0,0.0,0.0,0.0,0.0,0.0,0.0,0.0,0.0,0.0,0.0,0.0,0.0,0.0,0.0,0.0,0.0,0.0,0.0,0.0,0.0,0.0,0.0,0.0,0.0,0.0,0.0,0.0,0.0,0.0,0.0,0.0,0.0,0.0,0.0,0.0,0.0,0.0,0.0,0.0,0.0,0.0,0.0,0.0,0.0,2.2049,2.2306,2.233,2.2389,2.2425,2.2416,2.2347,0.0,0.0,0.0,0.0,0.0,0.0,0.0,0.0,0.0,0.0,0.0,0.0,0.0,0.0,0.0,0.0,0.0,0.0,0.0,0.0,0.0,0.0,0.0,0.0,0.0,0.0,0.0,0.0,0.0,0.0,0.0,0.0,0.0,0.0,0.0,0.0,0.0,0.0,0.0,0.0,0.0,0.0,0.0,0.0,0.0,0.0,0.0,0.0,0.0,0.0,0.0,0.0,0.0,0.0,0.0,0.0,0.0,0.0,0.0,0.0,0.0,0.0,0.0,0.0,0.0,0.0,0.0,0.0,0.0,0.0,0.0,0.0,0.0,0.0,0.0,0.0,0.0,0.0,0.0,0.0,0.0,0.0,0.0,0.0,0.0,0.0,0.0,0.0,0.0,0.0,0.0,0.0,0.0,0.0,0.0,0.0,0.0,0.0,0.0,0.0,0.0,0.0,0.0,0.0,0.0,0.0,0.0,0.0,0.0,2.3121,2.3174,2.3458,2.4023,2.3898,2.3823,0.0,0.0,0.0,0.0,0.0,0.0,0.0,0.0,0.0,0.0,0.0,0.0,0.0,0.0,0.0,0.0,0.0,0.0,0.0,0.0,0.0,0.0,0.0,0.0,0.0,0.0,0.0,0.0,0.0,0.0,0.0,0.0,0.0,0.0,0.0,0.0,0.0,0.0,0.0,0.0,0.0,0.0,0.0,0.0,0.0,0.0,0.0,0.0,0.0,0.0,0.0,0.0,0.0,0.0,0.0,0.0,0.0,0.0,0.0,0.0,0.0,0.0,0.0,0.0,0.0,0.0,0.0,0.0,0.0,0.0,0.0,0.0,0.0,0.0,0.0,0.0,0.0,0.0,0.0,0.0,0.0,0.0,0.0,0.0,0.0,0.0,0.0,0.0,0.0,0.0,0.0,0.0,0.0,0.0,0.0,0.0,0.0,0.0,0.0,0.0,0.0,0.0,0.0,0.0,0.0,0.0,0.0,0.0,0.0,2.4839,2.4377,2.4325,2.4837,2.4675,2.4529,2.4478,0.0,0.0,0.0,0.0,0.0,0.0,0.0,0.0,0.0,0.0,0.0,0.0,0.0,0.0,0.0,0.0,0.0,0.0,0.0,0.0,0.0,0.0,0.0,0.0,0.0,0.0,0.0,0.0,0.0,0.0,0.0,0.0,0.0,0.0,0.0,0.0,0.0,0.0,0.0,0.0,0.0,0.0,0.0,0.0,0.0,0.0,0.0,0.0,0.0,0.0,0.0,0.0,0.0,0.0,0.0,0.0,0.0,0.0,0.0,0.0,0.0,0.0,0.0,0.0,0.0,0.0,0.0,0.0,0.0,0.0,0.0,0.0,0.0,0.0,0.0,0.0,0.0,0.0,0.0,0.0,0.0,0.0,0.0,0.0,0.0,0.0,0.0,0.0,0.0,0.0,0.0,0.0,0.0,0.0,0.0,0.0,0.0,0.0,0.0,0.0,0.0,0.0,0.0,0.0,0.0,0.0,0.0,0.0,2.7277,2.5908,2.5195,2.5205,2.5022,2.4785,0.0,0.0,0.0,0.0,0.0,0.0,0.0,0.0,0.0,0.0,0.0,0.0,0.0,0.0,0.0,0.0,0.0,0.0,0.0,0.0,0.0,0.0,0.0,0.0,0.0,0.0,0.0,0.0,0.0,0.0,0.0,0.0,0.0,0.0,0.0,0.0,0.0,0.0,0.0,0.0,0.0,0.0,0.0,0.0,0.0,0.0,0.0,0.0,0.0,0.0,0.0,0.0,0.0,0.0,0.0,0.0,0.0,0.0,0.0,0.0,0.0,0.0,0.0,0.0,0.0,0.0,0.0,0.0,0.0,0.0,0.0,0.0,0.0,0.0,0.0,0.0,0.0,0.0,0.0,0.0,0.0,0.0,0.0,0.0,0.0,0.0,0.0,0.0,0.0,0.0,0.0,0.0,0.0,0.0,0.0,0.0,0.0,0.0,0.0,0.0,0.0,0.0,0.0,0.0,0.0,0.0,0.0,0.0,0.0,2.7326,2.7988,2.8285,2.821,2.7578,2.7097,0.0,0.0,0.0,0.0,0.0,0.0,0.0,0.0,0.0,0.0,0.0,0.0,0.0,0.0,0.0,0.0,0.0,0.0,0.0,0.0,0.0,0.0,0.0,0.0,0.0,0.0,0.0,0.0,0.0,0.0,0.0,0.0,0.0,0.0,0.0,0.0,0.0,0.0,0.0,0.0,0.0,0.0,0.0,0.0,0.0,0.0,0.0,0.0,0.0,0.0,0.0,0.0,0.0,0.0,0.0,0.0,0.0,0.0,0.0,0.0,0.0,0.0,0.0,0.0,0.0,0.0,0.0,0.0,0.0,0.0,0.0,0.0,0.0,0.0,0.0,0.0,0.0,0.0,0.0,0.0,0.0,0.0,0.0,0.0,0.0,0.0,0.0,0.0,0.0,0.0,0.0,0.0,0.0,0.0,0.0,0.0,0.0,0.0,0.0,0.0,0.0,0.0,0.0,0.0,0.0,0.0,0.0,0.0,2.7134,2.8319,2.9428,3.0109,3.0311,2.8879,2.7981,0.0,0.0,0.0,0.0,0.0,0.0,0.0,0.0,0.0,0.0,0.0,0.0,0.0,0.0,0.0,0.0,0.0,0.0,0.0,0.0,0.0,0.0,0.0,0.0,0.0,0.0,0.0,0.0,0.0,0.0,0.0,0.0,0.0,0.0,0.0,0.0,0.0,0.0,0.0,0.0,0.0,0.0,0.0,0.0,0.0,0.0,0.0,0.0,0.0,0.0,0.0,0.0,0.0,0.0,0.0,0.0,0.0,0.0,0.0,0.0,0.0,0.0,0.0,0.0,0.0,0.0,0.0,0.0,0.0,0.0,0.0,0.0,0.0,0.0,0.0,0.0,0.0,0.0,0.0,0.0,0.0,0.0,0.0,0.0,0.0,0.0,0.0,0.0,0.0,0.0,0.0,0.0,0.0,0.0,0.0,0.0,0.0,0.0,0.0,0.0,0.0,0.0,0.0,0.0,0.0,0.0,0.0,0.0,2.8171,2.9607,3.043,3.1092,3.154,2.9418,2.8108,0.0,0.0,0.0,0.0,0.0,0.0,0.0,0.0,0.0,0.0,0.0,0.0,0.0,0.0,0.0,0.0,0.0,0.0,0.0,0.0,0.0,0.0,0.0,0.0,0.0,0.0,0.0,0.0,0.0,0.0,0.0,0.0,0.0,0.0,0.0,0.0,0.0,0.0,0.0,0.0,0.0,0.0,0.0,0.0,0.0,0.0,0.0,0.0,0.0,0.0,0.0,0.0,0.0,0.0,0.0,0.0,0.0,0.0,0.0,0.0,0.0,0.0,0.0,0.0,0.0,0.0,0.0,0.0,0.0,0.0,0.0,0.0,0.0,0.0,0.0,0.0,0.0,0.0,0.0,0.0,0.0,0.0,0.0,0.0,0.0,0.0,0.0,0.0,0.0,0.0,0.0,0.0,0.0,0.0,0.0,0.0,0.0,0.0,0.0,0.0,0.0,0.0,0.0,0.0,0.0,0.0,0.0,0.0,2.8969,2.9832,3.1133,3.1782,3.1738,3.0039,2.8997,0.0,0.0,0.0,0.0,0.0,0.0,0.0,0.0,0.0,0.0,0.0,0.0,0.0,0.0,0.0,0.0,0.0,0.0,0.0,0.0,0.0,0.0,0.0,0.0,0.0,0.0,0.0,0.0,0.0,0.0,0.0,0.0,0.0,0.0,0.0,0.0,0.0,0.0,0.0,0.0,0.0,0.0,0.0,0.0,0.0,0.0,0.0,0.0,2.1029,0.0,0.0,0.0,0.0,0.0,0.0,0.0,0.0,0.0,0.0,0.0,0.0,0.0,0.0,0.0,0.0,0.0,0.0,0.0,0.0,0.0,0.0,0.0,0.0,0.0,0.0,0.0,0.0,0.0,0.0,0.0,0.0,0.0,0.0,0.0,0.0,0.0,0.0,0.0,0.0,0.0,0.0,0.0,0.0,0.0,0.0,0.0,0.0,0.0,0.0,0.0,0.0,0.0,0.0,0.0,0.0,0.0,0.0,0.0,2.9845,3.0562,3.1568,3.2001,3.1784,3.0564,2.9622,0.0,0.0,0.0,0.0,0.0,0.0,0.0,0.0,0.0,0.0,0.0,0.0,0.0,0.0,0.0,0.0,0.0,0.0,0.0,0.0,0.0,0.0,0.0,0.0,0.0,0.0,0.0,0.0,0.0,0.0,0.0,0.0,0.0,0.0,0.0,0.0,0.0,0.0,0.0,0.0,0.0,0.0,0.0,0.0,0.0,0.0,0.0,0.0,0.0,0.0,0.0,0.0,0.0,0.0,0.0,0.0,0.0,0.0,0.0,0.0,0.0,0.0,0.0,0.0,0.0,0.0,0.0,0.0,0.0,0.0,0.0,0.0,0.0,0.0,0.0,0.0,0.0,0.0,0.0,0.0,0.0,0.0,0.0,0.0,0.0,0.0,0.0,0.0,0.0,0.0,0.0,0.0,0.0,0.0,0.0,0.0,0.0,0.0,0.0,0.0,0.0,0.0,0.0,0.0,0.0,0.0,0.0,2.9761,3.0954,3.1532,3.2187,3.2369,3.2028,3.1167,3.017,2.9029,0.0,0.0,0.0,0.0,0.0,0.0,0.0,0.0,0.0,0.0,0.0,0.0,0.0,0.0,0.0,0.0,0.0,0.0,0.0,0.0,0.0,0.0,0.0,0.0,0.0,0.0,0.0,0.0,0.0,0.0,0.0,0.0,0.0,0.0,0.0,0.0,0.0,0.0,1.7747,1.8998,0.0,0.0,0.0,0.0,0.0,0.0,0.0,0.0,2.3877,0.0,0.0,0.0,0.0,0.0,0.0,0.0,0.0,0.0,0.0,0.0,0.0,0.0,0.0,0.0,0.0,0.0,0.0,0.0,0.0,0.0,0.0,0.0,0.0,0.0,0.0,0.0,0.0,0.0,0.0,0.0,0.0,0.0,0.0,0.0,0.0,0.0,0.0,0.0,0.0,0.0,0.0,0.0,0.0,0.0,0.0,0.0,0.0,0.0,0.0,0.0,0.0,0.0,0.0,0.0,0.0,2.8268,3.1202,3.269,3.2658,3.3888,3.4031,3.3002,3.2074,3.0803,2.9103,0.0,0.0,0.0,0.0,0.0,0.0,0.0,0.0,0.0,0.0,0.0,0.0,0.0,0.0,0.0,0.0,0.0,0.0,0.0,0.0,0.0,0.0,0.0,0.0,0.0,0.0,0.0,0.0,0.0,0.0,0.0,0.0,0.0,0.0,0.0,0.0,0.0,0.0,0.0,2.0641,2.1248,0.0,0.0,0.0,0.0,0.0,0.0,0.0,0.0,2.5856,0.0,0.0,0.0,0.0,0.0,0.0,0.0,0.0,0.0,0.0,0.0,0.0,0.0,0.0,0.0,0.0,0.0,0.0,0.0,0.0,0.0,0.0,0.0,0.0,0.0,0.0,0.0,0.0,0.0,0.0,0.0,0.0,0.0,0.0,0.0,0.0,0.0,0.0,0.0,0.0,0.0,0.0,0.0,0.0,0.0,0.0,0.0,0.0,0.0,0.0,0.0,0.0,0.0,0.0,0.0,3.0322,3.2211,3.3527,3.4171,3.4753,3.4685,3.3899,3.2956,3.1637,0.0,0.0,0.0,0.0,0.0,0.0,0.0,0.0,0.0,0.0,0.0,0.0,0.0,0.0,0.0,0.0,0.0,0.0,0.0,0.0,0.0,0.0,0.0,0.0,0.0,0.0,0.0,0.0,0.0,0.0,0.0,0.0,0.0,0.0,0.0,0.0,0.0,0.0,0.0,0.0,2.184,2.2603,2.277,0.0,0.0,0.0,0.0,0.0,0.0,2.7334,2.7322,0.0,0.0,0.0,0.0,0.0,0.0,0.0,0.0,0.0,0.0,0.0,0.0,0.0,0.0,0.0,0.0,0.0,0.0,0.0,0.0,0.0,0.0,0.0,0.0,0.0,0.0,0.0,0.0,0.0,0.0,0.0,0.0,0.0,0.0,0.0,0.0,0.0,0.0,0.0,0.0,0.0,0.0,0.0,0.0,0.0,0.0,0.0,0.0,0.0,0.0,0.0,0.0,0.0,0.0,0.0,3.2332,3.3277,3.4345,3.5604,3.5683,3.5332,3.4645,3.3725,3.2234,0.0,0.0,0.0,0.0,0.0,0.0,0.0,0.0,0.0,0.0,0.0,0.0,0.0,0.0,0.0,0.0,0.0,0.0,0.0,0.0,0.0,0.0,0.0,0.0,0.0,0.0,0.0,0.0,0.0,0.0,0.0,0.0,0.0,0.0,0.0,0.0,0.0,0.0,0.0,0.0,0.0,2.3924,2.4409,2.4967,0.0,0.0,0.0,0.0,2.9298,2.8799,0.0,0.0,0.0,0.0,0.0,0.0,0.0,0.0,0.0,0.0,0.0,0.0,0.0,0.0,0.0,0.0,0.0,0.0,0.0,0.0,0.0,0.0,0.0,0.0,0.0,0.0,0.0,0.0,0.0,0.0,0.0,0.0,0.0,0.0,0.0,0.0,0.0,0.0,0.0,0.0,0.0,0.0,0.0,0.0,0.0,0.0,0.0,0.0,0.0,0.0,0.0,0.0,0.0,0.0,0.0,0.0,3.3233,3.4739,3.5859,3.6616,3.7252,3.6764,3.5083,3.4129,3.2073,0.0,0.0,0.0,0.0,0.0,0.0,0.0,0.0,0.0,0.0,0.0,0.0,0.0,0.0,0.0,0.0,0.0,0.0,0.0,0.0,0.0,0.0,0.0,0.0,0.0,0.0,0.0,0.0,0.0,0.0,0.0,0.0,0.0,0.0,0.0,0.0,0.0,0.0,0.0,0.0,0.0,2.5112,2.6604,2.6583,2.6681,0.0,0.0,2.8424,2.9674,2.9354,0.0,0.0,0.0,0.0,0.0,0.0,0.0,0.0,0.0,0.0,0.0,0.0,0.0,0.0,0.0,0.0,0.0,0.0,0.0,0.0,0.0,0.0,0.0,0.0,0.0,0.0,0.0,0.0,0.0,0.0,0.0,0.0,0.0,0.0,0.0,0.0,0.0,0.0,0.0,0.0,0.0,0.0,0.0,0.0,0.0,0.0,0.0,0.0,0.0,0.0,0.0,0.0,0.0,0.0,0.0,3.1981,3.4019,3.5214,3.6343,3.7424,3.7787,3.7522,3.6586,3.5234,3.3325,0.0,0.0,0.0,0.0,0.0,0.0,0.0,0.0,0.0,0.0,0.0,0.0,0.0,0.0,0.0,0.0,0.0,0.0,0.0,0.0,0.0,0.0,0.0,0.0,0.0,0.0,0.0,0.0,0.0,0.0,0.0,0.0,0.0,0.0,0.0,0.0,0.0,0.0,0.0,0.0,0.0,0.0,2.8031,2.8466,0.0,0.0,0.0,3.0024,3.1052,0.0,0.0,0.0,0.0,0.0,0.0,0.0,0.0,0.0,0.0,0.0,0.0,0.0,0.0,0.0,0.0,0.0,0.0,0.0,0.0,0.0,0.0,0.0,0.0,0.0,0.0,0.0,0.0,0.0,0.0,0.0,0.0,0.0,0.0,0.0,0.0,0.0,0.0,0.0,0.0,0.0,0.0,0.0,0.0,0.0,0.0,0.0,0.0,0.0,0.0,0.0,0.0,0.0,0.0,0.0,0.0,0.0,3.4852,3.5703,3.6729,3.799,3.8044,3.7859,3.746,3.5816,0.0,0.0,0.0,0.0,0.0,0.0,0.0,0.0,0.0,0.0,0.0,0.0,0.0,0.0,0.0,0.0,0.0,0.0,0.0,0.0,0.0,0.0,0.0,0.0,0.0,0.0,0.0,2.0747,0.0,0.0,0.0,0.0,0.0,0.0,0.0,0.0,0.0,0.0,0.0,0.0,0.0,0.0,2.7946,2.9406,3.02,3.0791,0.0,0.0,3.1408,3.2406,3.2377,3.2166,0.0,0.0,0.0,0.0,0.0,0.0,0.0,0.0,0.0,0.0,0.0,0.0,0.0,0.0,0.0,0.0,0.0,0.0,0.0,0.0,0.0,0.0,0.0,0.0,0.0,0.0,0.0,0.0,0.0,0.0,0.0,0.0,0.0,0.0,0.0,0.0,0.0,0.0,0.0,0.0,0.0,0.0,0.0,0.0,0.0,0.0,0.0,0.0,0.0,0.0,0.0,0.0,0.0,0.0,0.0,3.5649,3.6516,3.7313,3.8138,3.8192,3.777,3.6865,3.5287,3.3283,0.0,0.0,0.0,0.0,0.0,0.0,0.0,0.0,0.0,0.0,0.0,0.0,0.0,0.0,0.0,0.0,0.0,0.0,0.0,0.0,0.0,0.0,0.0,0.0,0.0,0.0,0.0,0.0,0.0,0.0,0.0,0.0,0.0,0.0,0.0,0.0,0.0,0.0,0.0,0.0,0.0,2.8598,3.0915,3.1614,3.2149,0.0,0.0,3.2434,3.3348,3.2413,3.1808,3.2514,0.0,0.0,0.0,0.0,0.0,0.0,0.0,0.0,0.0,0.0,0.0,0.0,0.0,0.0,0.0,0.0,0.0,0.0,0.0,0.0,0.0,0.0,0.0,0.0,0.0,0.0,0.0,0.0,0.0,0.0,0.0,0.0,0.0,0.0,0.0,0.0,0.0,0.0,0.0,0.0,0.0,0.0,0.0,0.0,0.0,0.0,0.0,0.0,0.0,0.0,0.0,0.0,0.0,3.3375,3.5768,3.6588,3.7385,3.8164,3.82,3.8039,3.767,3.6529,3.4945,0.0,0.0,0.0,0.0,0.0,0.0,0.0,0.0,0.0,0.0,0.0,0.0,0.0,0.0,0.0,0.0,0.0,0.0,0.0,0.0,0.0,0.0,0.0,0.0,0.0,0.0,0.0,0.0,2.4908,2.5631,2.5786,0.0,0.0,0.0,0.0,0.0,0.0,0.0,0.0,0.0,0.0,3.0218,3.2289,3.273,0.0,0.0,3.284,3.2508,3.2868,3.2546,3.2188,3.2056,3.0715,0.0,0.0,0.0,0.0,0.0,0.0,0.0,0.0,0.0,0.0,0.0,0.0,0.0,0.0,0.0,0.0,0.0,0.0,0.0,0.0,0.0,0.0,0.0,0.0,0.0,0.0,0.0,0.0,0.0,0.0,0.0,0.0,0.0,0.0,0.0,0.0,0.0,0.0,0.0,0.0,0.0,0.0,0.0,0.0,0.0,0.0,0.0,0.0,0.0,0.0,0.0,0.0,3.3628,3.5794,3.6824,3.7629,3.8191,3.82,3.82,3.8182,3.7327,3.6204,0.0,0.0,0.0,0.0,0.0,0.0,0.0,0.0,0.0,0.0,0.0,0.0,0.0,0.0,0.0,0.0,0.0,0.0,0.0,0.0,0.0,0.0,0.0,0.0,0.0,0.0,0.0,0.0,2.6355,2.6799,2.5973,0.0,0.0,0.0,0.0,0.0,0.0,0.0,0.0,0.0,0.0,3.0903,3.2474,3.2992,3.3228,3.3321,3.2887,3.2556,3.2556,3.247,3.2199,3.1681,0.0,0.0,0.0,0.0,0.0,0.0,0.0,0.0,0.0,0.0,0.0,0.0,0.0,0.0,0.0,0.0,0.0,0.0,0.0,0.0,0.0,0.0,0.0,0.0,0.0,0.0,0.0,0.0,0.0,0.0,2.6398,0.0,0.0,0.0,0.0,0.0,0.0,0.0,0.0,0.0,0.0,0.0,0.0,0.0,0.0,0.0,0.0,0.0,0.0,0.0,0.0,0.0,0.0,3.4164,3.5794,3.7341,3.8182,3.82,3.82,3.82,3.8182,3.7421,3.6592,3.5688,0.0,0.0,0.0,0.0,0.0,0.0,0.0,0.0,0.0,0.0,0.0,0.0,0.0,0.0,0.0,0.0,0.0,0.0,0.0,0.0,0.0,0.0,0.0,0.0,0.0,0.0,2.7107,2.7423,2.7008,0.0,0.0,0.0,0.0,0.0,0.0,0.0,0.0,0.0,0.0,2.9242,3.0277,3.1259,3.2138,3.2729,3.274,3.2707,3.2674,3.2674,3.2072,3.1604,0.0,0.0,0.0,0.0,0.0,0.0,0.0,0.0,0.0,0.0,0.0,0.0,0.0,0.0,0.0,0.0,0.0,0.0,0.0,0.0,0.0,0.0,0.0,0.0,0.0,0.0,0.0,2.9331,2.9273,0.0,0.0,0.0,0.0,0.0,0.0,0.0,0.0,0.0,0.0,0.0,3.3768,3.3687,0.0,0.0,0.0,0.0,0.0,0.0,0.0,0.0,0.0,0.0,0.0,0.0,3.4208,3.5776,3.7403,3.82,3.82,3.82,3.82,3.82,3.7955,3.737,3.6456,0.0,0.0,0.0,0.0,0.0,0.0,0.0,0.0,0.0,0.0,0.0,0.0,0.0,0.0,0.0,0.0,0.0,0.0,0.0,0.0,0.0,0.0,0.0,0.0,0.0,2.7321,0.0,0.0,0.0,0.0,0.0,0.0,0.0,0.0,0.0,0.0,0.0,2.8313,2.9242,3.0211,3.1138,3.1988,3.243,3.2685,0.0,0.0,0.0,0.0,0.0,0.0,0.0,0.0,0.0,0.0,0.0,0.0,0.0,0.0,2.9613,2.8017,2.7889,2.799,2.7843,0.0,0.0,0.0,0.0,0.0,0.0,0.0,0.0,0.0,0.0,0.0,0.0,0.0,0.0,3.1943,0.0,3.1041,0.0,0.0,0.0,0.0,0.0,0.0,0.0,0.0,3.4652,3.5187,3.5706,3.5591,3.5423,0.0,3.5156,3.4388,0.0,0.0,0.0,0.0,0.0,0.0,0.0,0.0,3.4472,3.5794,3.7385,3.82,3.82,3.82,3.82,3.82,3.82,3.7785,3.6913,3.6407,3.5465,0.0,0.0,0.0,0.0,0.0,0.0,0.0,0.0,0.0,0.0,0.0,0.0,0.0,0.0,0.0,0.0,0.0,0.0,0.0,0.0,0.0,0.0,0.0,2.8934,0.0,0.0,0.0,0.0,0.0,0.0,0.0,0.0,0.0,2.7937,2.8603,2.934,2.9978,3.0598,3.1183,3.172,0.0,0.0,0.0,0.0,0.0,0.0,0.0,3.1427,3.1907,3.199,3.2072,3.2321,3.1973,3.1741,3.199,0.0,0.0,2.9758,2.9494,2.9602,2.9498,2.9386,2.9405,2.9666,2.9647,2.9669,0.0,0.0,0.0,0.0,0.0,0.0,0.0,0.0,3.4901,3.5224,0.0,3.4373,0.0,0.0,0.0,0.0,0.0,3.434,0.0,0.0,3.6876,3.759,3.7481,3.7406,3.7281,3.7084,3.6939,3.6691,3.627,3.3831,0.0,0.0,0.0,0.0,0.0,0.0,3.5015,3.5858,3.7395,3.82,3.82,3.8237,3.8255,3.8255,3.8263,3.7883,3.7085,3.7049,3.6636,3.5768,3.4879,0.0,0.0,0.0,0.0,0.0,0.0,0.0,0.0,0.0,0.0,0.0,0.0,0.0,0.0,0.0,0.0,0.0,0.0,0.0,0.0,3.0585,0.0,0.0,0.0,0.0,0.0,0.0,0.0,0.0,0.0,0.0,2.9188,2.9663,3.0163,3.0458,0.0,0.0,0.0,0.0,3.0837,3.1565,3.1648,3.1907,3.2624,3.2724,3.274,3.2807,0.0,0.0,3.3801,3.3905,3.4116,3.4833,3.4916,3.4251,3.2122,3.2144,3.2478,3.243,3.2357,3.2359,3.2178,3.2096,3.2045,3.7211,0.0,0.0,0.0,0.0,3.5166,3.5626,3.5909,3.6668,3.6986,3.6929,3.6146,0.0,0.0,0.0,0.0,0.0,0.0,3.6756,3.7882,3.8397,3.888,3.9389,3.928,3.9096,3.8849,3.8671,3.8157,3.7305,3.638,3.4845,3.2844,0.0,0.0,0.0,0.0,3.5276,3.6624,3.7675,3.82,3.8218,3.8762,3.9043,3.9052,3.907,3.8671,3.7883,3.7865,3.7476,3.6655,3.6276,0.0,0.0,0.0,0.0,0.0,0.0,0.0,0.0,0.0,0.0,0.0,0.0,0.0,0.0,0.0,0.0,0.0,0.0,0.0,3.1002,3.1232,3.0658,0.0,0.0,0.0,0.0,0.0,0.0,0.0,0.0,0.0,3.1511,3.1347,3.1358,0.0,0.0,3.2045,3.2067,3.205,3.2133,3.2365,3.2392,0.0,3.337,3.3486,3.3851,3.4894,3.5495,3.5909,3.6125,3.6146,3.6224,3.6456,3.6473,3.6228,3.5658,3.4752,3.4242,3.407,3.4062,3.4167,3.4481,3.45,3.4543,4.0787,3.9145,3.7263,3.6477,3.6548,3.731,3.7615,3.7637,3.8414,3.8723,3.8686,3.7861,3.7493,3.744,3.6581,0.0,0.0,0.0,3.8032,3.9011,3.9355,3.9905,4.06,4.0532,4.0497,4.059,4.042,3.9951,3.9201,3.8934,3.7836,3.5926,0.0,0.0,3.4363,3.515,3.619,3.743,3.8273,3.8816,3.9106,3.9586,3.984,3.984,3.984,3.9604,3.9134,3.9097,3.8889,3.8418,3.7716,3.6949,0.0,0.0,0.0,0.0,0.0,0.0,0.0,0.0,0.0,0.0,0.0,2.988,0.0,0.0,0.0,0.0,3.0814,3.194,3.2359,3.242,0.0,0.0,0.0,0.0,0.0,0.0,0.0,3.0853,3.1195,3.1934,3.3353,3.3193,3.2851,3.2707,3.2685,3.2807,3.3088,0.0,3.3353,3.3905,3.4016,3.4265,3.4977,3.5098,3.5413,3.6278,3.6804,3.7222,3.7503,3.7533,3.7649,3.788,3.7976,3.7976,3.7976,3.7218,3.6394,3.5795,3.5654,3.5766,3.6069,3.6046,3.6116,4.3592,4.3254,4.0059,3.8651,3.8576,3.9235,3.946,3.9453,4.0195,4.049,4.0439,3.9656,3.9293,3.926,3.8457,0.0,3.8156,3.8935,3.9312,3.9336,4.0134,4.0807,4.1405,4.1334,4.1607,4.2096,4.1972,4.1761,4.1479,4.1225,4.0651,3.9684,3.7356,3.6135,3.6047,3.6661,3.743,3.8291,3.9015,3.9777,4.0573,4.0583,4.0601,4.0591,4.0583,4.0555,4.0501,4.0501,4.0483,4.0374,3.9061,3.8218,3.8037,0.0,0.0,0.0,0.0,0.0,0.0,0.0,0.0,0.0,0.0,0.0,0.0,0.0,0.0,0.0,3.2669,0.0,3.3812,3.3812,0.0,0.0,0.0,3.1515,3.0847,3.1416,3.1879,3.1946,0.0,0.0,3.4899,3.5081,3.458,3.3221,3.3055,3.3287,3.3967,3.4116,3.4551,3.5814,3.6046,3.6328,3.692,3.7152,3.7235,3.7317,3.7268,3.7599,3.8146,3.8282,3.8576,3.907,3.9299,3.9315,3.9348,3.9282,3.8987,3.7702,3.7371,3.7246,3.7164,3.7129,3.7055,4.6044,4.5353,4.443,4.3262,4.2004,4.2121,4.2112,4.2011,4.2153,4.2212,4.2202,4.1991,4.1896,4.1877,4.1686,4.159,4.159,4.18,4.1896,4.1915,4.2125,4.2263,4.2359,4.2297,4.2247,4.2239,4.2051,4.1865,4.1663,4.1334,4.1037,4.0714,3.9992,3.8942,3.7657,3.7212,3.7701,3.9088,3.9305,4.0057,4.1361,4.1415,4.1415,4.1415,4.1415,4.1126,4.0537,4.0501,4.0229,3.9677,3.9305,3.8544,3.7357,3.6735,0.0,0.0,0.0,0.0,0.0,0.0,0.0,0.0,0.0,3.1657,3.1937,0.0,3.2185,0.0,3.3311,3.3812,3.3812,3.3812,0.0,0.0,3.2928,3.321,3.3039,3.3662,3.4336,3.4887,3.5098,3.5562,3.646,3.6572,3.6456,3.6079,3.6042,3.6108,3.6307,3.6324,3.6411,3.6787,3.6903,3.7089,3.7868,3.8427,3.8772,3.8785,3.8772,3.8854,3.902,3.9037,3.9103,3.9265,3.9315,3.9514,4.0014,4.0144,4.023,4.0249,3.9537,3.8772,3.8745,3.8609,3.8486,4.7696,4.7239,4.714,4.6503,4.546,4.423,4.3391,4.2912,4.2866,4.2809,4.2794,4.2794,4.2794,4.2794,4.2794,4.2794,4.2794,4.2794,4.2794,4.2794,4.2794,4.2955,4.3247,4.3602,4.387,4.408,4.4272,4.4231,4.4019,4.37,4.3303,4.2822,4.2279,4.1331,3.9983,3.8753,3.8902,4.0472,4.0808,4.1361,4.2194,4.2239,4.2058,4.1705,4.1687,4.1325,4.0537,4.0501,4.032,3.9912,3.9568,3.8997,3.811,3.7393,3.659,0.0,0.0,0.0,0.0,0.0,0.0,0.0,0.0,0.0,0.0,0.0,3.3366,3.4024,3.455,3.4987,3.523,3.5275,3.511,3.47,3.5027,3.5263,3.5275,3.5628,3.6025,3.6456,3.6493,3.6787,3.747,3.7586,3.7864,3.8473,3.8589,3.8328,3.7719,3.7586,3.7801,3.8444,3.856,3.8808,3.9507,3.9967,4.0233,4.0216,4.023,4.0233,4.023,4.0216,4.0246,4.0233,4.023,4.0362,4.0746,4.0859,4.0994,4.1146,4.0796,4.0282,4.0233,4.0131,4.0064,4.9046,4.904,4.8973,4.8844,4.8493,4.6093,4.4496,4.3559,4.355,4.3503,4.3424,4.3443,4.3443,4.3424,4.3438,4.3443,4.3443,4.3424,4.3443,4.3443,4.3443,4.3795,4.441,4.5164,4.5871,4.6478,4.7062,4.7212,4.695,4.6702,4.611,4.5216,4.4336,4.3501,4.2684,4.105,4.0775,4.1887,4.2567,4.291,4.291,4.291,4.2574,4.1895,4.1759,4.1379,4.0673,4.0573,4.0447,4.0356,3.9749,3.936,3.9215,3.7919,3.7104,0.0,3.6369,0.0,0.0,0.0,0.0,0.0,0.0,0.0,0.0,3.4609,3.4831,3.5614,3.609,3.6567,3.7074,3.7102,3.7119,3.7102,3.7185,3.7238,3.7222,3.7334,3.7371,3.7384,3.7466,3.7781,3.8397,3.8546,3.9139,4.0196,4.0395,3.9981,3.8927,3.8695,3.9126,4.0379,4.0528,4.0547,4.1063,4.1312,4.1328,4.1361,4.1312,4.1411,4.1328,4.1345,4.1378,4.1361,4.1295,4.1378,4.151,4.1543,4.1577,4.1742,4.1742,4.161,4.1361,4.1278,4.1368,5.089,5.087,5.0758,5.0262,4.952,4.8954,4.8074,4.7036,4.7035,4.6969,4.6858,4.6858,4.6858,4.6852,4.6858,4.6852,4.6858,4.6858,4.6858,4.6858,4.6858,4.6923,4.7065,4.7223,4.7342,4.742,4.7494,4.7429,4.7219,4.7078,4.6769,4.6381,4.6118,4.5859,4.5478,0.0,0.0,0.0,4.2668,4.3003,4.2901,4.291,4.2819,4.2665,4.204,0.0,4.1451,4.0836,4.0211,3.9641,3.9478,0.0,0.0,0.0,0.0,0.0,0.0,0.0,0.0,0.0,0.0,0.0,3.8071,3.7575,3.6851,3.7342,3.7664,3.7584,3.7398,3.7243,3.7257,3.7149,3.7119,3.7135,3.7619,3.7983,3.803,3.8523,3.8871,3.8901,3.9385,3.9815,3.9931,4.0448,4.0865,4.1143,4.121,4.1096,4.0862,4.0729,4.0865,4.1177,4.1229,4.1262,4.1378,4.1477,4.1543,4.1411,4.1411,4.1444,4.1494,4.1477,4.1444,4.1477,4.1411,4.1643,4.2173,4.2305,4.2471,4.3035,4.3151,4.282,4.1676,4.1428,4.138,5.2688,0.0,5.259,5.2245,0.0,5.1667,5.1254,5.0532,4.8765,4.7909,4.7794,4.7794,4.7794,4.7794,4.7794,4.7794,4.7794,4.7794,4.7794,4.7794,4.7794,4.7794,4.7813,4.8239,4.8432,4.8384,4.8733,4.882,4.8681,4.8555,4.8169,4.7552,4.7485,4.7134,4.6491,4.5887,4.4777,4.3151,4.3878,4.4248,4.4164,4.3735,4.3308,4.2892,4.213,0.0,0.0,0.0,0.0,0.0,0.0,0.0,0.0,0.0,0.0,3.878,3.9097,3.9116,3.8675,3.9019,3.9417,3.9761,4.0058,3.9719,3.8523,3.8761,3.8926,3.8911,3.8557,3.8406,3.856,3.8458,3.8382,3.8415,3.8715,3.9068,3.9435,3.9751,4.009,4.0438,4.0702,4.0895,4.0895,4.1247,4.1704,4.2019,4.2157,4.2301,4.2568,4.1958,4.151,4.1891,4.2305,4.2489,4.2504,4.2487,4.2471,4.2504,4.2487,4.2473,4.2487,4.2487,4.2487,4.2504,4.2487,4.2653,4.2934,4.305,4.315,4.3482,4.3615,4.3416,4.262,4.2473,4.2473,5.3985,5.3995,5.3928,5.3872,5.3827,5.3685,5.3536,5.3166,0.0,0.0,0.0,4.8233,4.8233,4.8233,4.8227,4.8233,4.8233,4.8233,4.8252,4.8227,4.8252,4.8252,4.8271,4.8965,4.9314,4.9347,4.993,5.0169,5.012,5.0018,4.9512,4.8758,4.8617,4.8107,4.7205,4.6937,4.6303,4.5279,4.5449,4.5553,4.5506,4.4745,4.4034,4.3373,4.2566,4.1823,4.1171,4.0863,4.0709,4.0709,4.0573,4.0501,4.0501,4.0501,4.0501,4.0501,4.0637,4.0718,4.0709,4.0845,4.099,4.1135,4.1685,4.1441,4.0032,3.9825,3.9862,4.0025,3.9832,3.9853,4.0159,4.0208,4.0167,4.015,4.015,4.0406,4.0936,4.0929,4.1082,4.1622,4.1677,4.1678,4.1723,4.1988,4.2339,4.2886,4.3108,4.3375,4.3767,4.2877,4.2207,4.2725,4.3175,4.3575,4.3597,4.3532,4.3615,4.3482,4.3515,4.3615,4.3615,4.3615,4.3615,4.3482,4.3598,4.3565,4.3582,4.3549,4.3615,4.3615,4.3615,4.3615,4.3615,4.3598,4.3532,5.4009,5.3987,5.3994,5.3949,5.3871,5.3818,5.3608,5.3208,5.1797,5.0721,4.9939,4.9952,4.9952,4.9958,4.9958,4.9939,4.9952,4.9952,4.9939,4.9958,4.9952,4.9958,4.9958,5.0073,5.013,5.0149,5.0252,5.0236,5.0201,5.0176,5.0025,4.9801,4.9709,4.9452,4.9035,4.8872,4.8652,4.8333,4.669,4.5772,4.5594,4.5397,4.5257,4.512,4.4235,4.3715,4.3588,4.2275,4.1524,4.1506,4.0872,4.0501,4.0519,4.0573,4.0501,4.0537,4.1144,4.1542,4.156,4.2176,4.2873,4.3526,4.3706,4.301,4.1258,4.1472,4.1598,4.1386,4.1493,4.1528,4.1421,4.1681,4.1873,4.188,4.1914,4.1946,4.194,4.1903,4.192,4.2026,4.2429,4.2752,4.2833,4.3299,4.3695,4.3865,4.3898,4.4006,4.4085,4.3901,4.3714,4.3714,4.3785,4.3778,4.3674,4.3613,4.3615,4.3615,4.3615,4.3615,4.3615,4.3615,4.3615,4.3615,4.3615,4.3615,4.3615,4.3615,4.3631,4.3648,4.3698,4.3696,4.3747,4.3764,4.3698,5.5414,5.5413,5.5364,5.5349,5.5292,5.5213,5.475,5.4033,5.3433,5.2617,5.1762,5.1657,5.1658,5.1639,5.1664,5.1664,5.1658,5.1658,5.1658,5.1658,5.1658,5.1658,5.1658,5.1658,5.1639,5.1664,5.1658,5.1646,5.1603,5.1622,5.1573,5.1427,5.093,5.0579,5.0363,4.9774,4.9395,4.9206,4.799,4.7307,4.7158,4.6603,4.6268,4.621,4.533,4.4882,4.4836,4.407,4.3651,4.3651,4.3317,4.3118,4.3108,4.3118,4.3108,4.3108,4.3434,4.3651,4.3651,4.3987,4.4349,4.4711,4.4747,4.4408,4.3548,4.3527,4.3447,4.3193,4.308,4.2955,4.2757,4.2866,4.2931,4.2906,4.2906,4.3001,4.3222,4.3102,4.3182,4.3505,4.3709,4.3816,4.3816,4.4207,4.4483,4.4497,4.4578,4.4689,4.4723,4.4637,4.444,4.4099,4.3939,4.3866,4.3795,4.3674,4.363,4.3615,4.3615,4.3615,4.3615,4.3615,4.3631,4.3615,4.3615,4.3615,4.3631,4.3615,4.3747,4.4143,4.4191,4.4307,4.4623,4.4804,4.4524,5.6605,5.6604,5.6536,5.6528,5.6494,5.6369,5.5832,5.5052,5.4815,5.4276,5.3508,5.3025,5.2792,5.2792,5.2792,5.2792,5.2792,5.2792,5.2792,5.2792,5.2792,5.2792,5.2792,5.2792,5.2792,5.2792,5.2792,5.2792,5.2792,5.2792,5.2755,5.2622,5.1966,5.1576,5.1514,5.0745,5.0261,5.0052,4.9633,4.9165,4.8596,4.7794,4.7303,4.7141,4.6505,4.6109,4.6051,4.5771,4.562,4.561,4.5409,4.5291,4.5291,4.5291,4.5291,4.5291,4.5291,4.5291,4.5291,4.5291,4.5381,4.5562,4.5562,4.5653,4.5796,4.5577,4.5154,4.4692,4.4411,4.4266,4.4156,4.4213,4.417,4.412,4.4101,4.4282,4.4623,4.4453,4.4464,4.5024,4.4862,4.4694,4.4725,4.4824,4.5022,4.5261,4.5585,4.5822,4.5796,4.5674,4.5356,4.4767,4.4406,4.4399,4.4373,4.4386,4.4313,4.4168,4.422,4.4288,4.4256,4.416,4.4126,4.4226,4.4176,4.4226,4.4143,4.4143,4.4406,4.4837,4.4952,4.5102,4.5533,4.5665,4.5467,5.6605,5.6605,5.6584,5.655,5.6482,5.6416,5.6258,5.6019,5.5844,5.5633,5.5118,5.3564,5.2868,5.2792,5.2849,5.2887,5.2887,5.2811,5.2849,5.2868,5.2792,5.2811,5.2887,5.2868,5.2811,5.2868,5.2887,5.2964,5.2938,5.2887,5.2812,5.2711,5.2616,5.2539,5.2454,5.2292,5.2179,5.2113,5.1949,5.0928,4.9078,4.864,4.8412,4.8337,4.8064,4.7899,4.7674,4.6989,4.6573,4.6519,4.5775,4.5327,4.5327,4.5327,4.5327,4.5345,4.5327,4.5291,4.5327,4.5291,4.5653,4.6305,4.6395,4.6657,4.7308,4.729,4.6571,4.5462,4.5408,4.5537,4.5493,4.5899,4.6141,4.6065,4.604,4.6096,4.5961,4.5783,4.5601,4.552,4.5511,4.5323,4.5422,4.5401,4.5657,4.6277,4.6838,4.7299,4.7328,4.7184,4.6973,4.6254,4.5665,4.553,4.5783,4.6058,4.5718,4.5711,4.5813,4.565,4.5458,4.543,4.5565,4.5231,4.5416,4.5398,4.5433,4.5598,4.5516,4.5616,4.5715,4.5765,4.5814,4.5946,4.5798,5.6605,5.6605,5.6605,5.6555,5.6512,5.6471,5.6376,5.6253,5.606,5.5875,5.5637,5.4768,5.4369,5.4333,5.4352,5.4327,5.4352,5.4333,5.4352,5.4333,5.4333,5.4333,5.4352,5.4333,5.4333,5.4333,5.4333,5.4314,5.4352,5.4333,5.4314,5.4212,5.3792,5.3499,5.3384,5.2888,5.2594,5.2527,5.243,5.1913,5.102,5.0119,4.9372,4.8841,4.856,4.8401,4.8267,4.7819,4.7524,4.7403,4.7033,4.6801,4.6721,4.6711,4.6703,4.6711,4.6721,4.6711,4.6721,4.6711,4.6866,4.721,4.72,4.7363,4.7652,4.7646,4.7297,4.6774,4.6672,4.6652,4.6644,4.6849,4.6996,4.6957,4.6899,4.6819,4.6684,4.6852,4.6945,4.6901,4.6695,4.6589,4.6502,4.6171,4.6112,4.6492,4.6983,4.7434,4.7668,4.7557,4.7638,4.7882,4.7656,4.6939,4.6323,4.5773,4.587,4.6112,4.6199,4.617,4.6189,4.6107,4.606,4.6019,4.607,4.6023,4.5731,4.5847,4.5864,4.6212,4.6891,4.709,4.709,4.7106,4.7106,5.6605,5.6605,5.6605,5.658,5.6531,5.6504,5.6429,5.6317,5.617,5.5988,5.5847,5.5662,5.5523,5.5441,5.5396,5.5396,5.5396,5.5396,5.5396,5.5396,5.5396,5.5377,5.5396,5.5396,5.5396,5.5396,5.5358,5.5377,5.5396,5.5396,5.5396,5.5301,5.4766,5.4448,5.4307,5.3728,5.341,5.3326,5.326,5.3111,5.2708,5.185,5.0826,4.989,4.9558,4.9288,4.8929,4.8751,4.8446,4.8026,4.7986,4.7912,4.777,4.7749,4.7738,4.7699,4.7689,4.7689,4.7689,4.7689,4.7797,4.7996,4.8033,4.8123,4.8315,4.8351,4.834,4.8348,4.8182,4.8048,4.7749,4.7731,4.7716,4.7657,4.7635,4.7514,4.7228,4.7617,4.7927,4.7897,4.7832,4.7877,4.7817,4.76,4.7557,4.7666,4.7851,4.7987,4.8473,4.8614,4.8706,4.9282,4.9142,4.843,4.707,4.6891,4.6735,4.6853,4.7223,4.7226,4.6983,4.697,4.694,4.7187,4.6841,4.6696,4.6787,4.6672,4.6476,4.7073,4.7587,4.7918,4.7802,4.7951,4.7968,5.6605,5.6624,5.6605,5.6585,5.6603,5.6529,5.6459,5.6396,5.6314,5.6176,5.5984,5.5827,5.5668,5.5486,5.5428,5.5403,5.5396,5.5396,5.5396,5.5396,5.5396,5.5396,5.5396,5.5396,5.5396,5.5396,5.5396,5.5396,5.5396,5.5396,5.5396,5.5377,5.5282,5.5301,5.5237,5.5135,5.5154,5.4923,5.491,5.4635,5.3914,5.3677,5.2979,5.1912,5.154,5.0942,5.0144,4.9834,4.9333,4.8342,4.8318,4.818,4.7977,4.7972,4.7938,4.78,4.7761,4.7761,4.7808,4.7833,4.8105,4.8703,4.8847,4.9137,4.9684,4.9756,4.9756,4.9938,4.9753,4.9495,4.9014,4.8811,4.8793,4.8793,4.8699,4.8308,4.7648,4.823,4.8297,4.8395,4.8799,4.895,4.8916,4.9659,4.9678,4.9893,5.0669,5.105,5.0756,5.0877,5.0535,5.0021,4.9736,4.9489,4.9444,4.8716,4.879,4.8862,4.8557,4.8787,4.8707,4.8587,4.8457,4.8313,4.8019,4.7892,4.7995,4.7932,4.7735,4.7852,4.7835,4.8001,4.8001,4.8001,4.8001,5.7854,5.7328,5.68,5.6605,5.6604,5.6514,5.6493,5.6461,5.6395,5.628,5.6101,5.5962,5.5778,5.5632,5.5463,5.5396,5.5396,5.5396,5.5396,5.5396,5.5396,5.5396,5.5396,5.5396,5.5396,5.5396,5.5396,5.5396,5.5396,5.5396,5.5396,5.5396,5.5396,5.5396,5.5396,5.5396,5.5371,5.5332,5.5326,5.5121,5.4756,5.4723,5.4436,5.3916,5.2658,5.1745,5.1204,5.1046,5.0665,5.0099,4.9984,4.9826,4.9642,4.9513,4.9375,4.926,4.9231,4.9231,4.9249,4.9231,4.9329,4.9619,4.9666,4.9775,5.0028,5.0101,5.0101,5.0137,5.0119,5.0101,5.0325,4.9981,4.9673,4.9655,4.9622,4.9473,4.9368,4.9726,5.0105,5.0071,5.0146,4.993,4.9488,4.9476,4.9643,4.9708,4.9976,5.0422,5.0765,5.0753,5.0723,5.0872,5.0783,5.0647,5.0573,4.9694,4.9255,4.9526,4.9563,4.9455,4.9374,4.9226,4.9082,4.8758,4.8641,4.8404,4.8274,4.8065,4.805,4.8001,4.8001,4.8001,4.8001,4.8001,4.8001,5.8752,5.8128,5.7328,5.6976,5.6955,5.6654,5.6525,5.6508,5.6447,5.6364,5.6245,5.6079,5.5902,5.5752,5.5562,5.5439,5.5396,5.539,5.5396,5.5396,5.5396,5.5396,5.5396,5.5396,5.5396,5.5396,5.5396,5.5396,5.5396,5.5396,5.5396,5.5396,5.5396,5.5396,5.5396,5.5396,5.5396,5.5396,5.5396,5.5339,5.5261,5.5255,5.5228,5.4969,5.3851,5.2904,5.2411,5.226,5.191,5.1397,5.1185,5.0966,5.0686,5.0467,5.0275,5.0177,5.0086,5.0101,5.0101,5.0101,5.0209,5.0463,5.0499,5.0553,5.0807,5.0879,5.0879,5.0879,5.0898,5.1151,5.1423,5.1205,5.0771,5.0572,5.0481,5.0354,5.0173,5.0728,5.1184,5.1356,5.1257,5.0838,5.0312,5.0204,5.0198,5.0066,5.0072,5.034,5.072,5.0843,5.0887,5.1432,5.1421,5.1292,5.118,5.0539,5.0031,5.0199,5.0179,5.008,4.9924,4.9811,4.9575,4.9245,4.894,4.8658,4.8405,4.8163,4.8066,4.8017,4.8001,4.8001,4.8001,4.8001,4.8001,5.9123,5.8986,5.8168,5.7758,5.7601,5.6994,5.6598,5.6525,5.6488,5.6447,5.6376,5.6236,5.6079,5.5884,5.5681,5.5527,5.5427,5.5396,5.5384,5.5396,5.5396,5.5396,5.5396,5.5396,5.5396,5.5396,5.5396,5.5396,5.5396,5.5396,5.5396,5.5396,5.5396,5.5396,5.5396,5.5396,5.5396,5.5396,5.5396,5.5396,5.5396,5.5371,5.5345,5.5216,5.5037,5.4554,5.3627,5.3479,5.2967,5.2065,5.1768,5.1334,5.1068,5.0775,5.0476,5.0522,5.0304,5.0202,5.0227,5.03,5.0698,5.1151,5.1314,5.1574,5.2063,5.2226,5.2245,5.2208,5.2263,5.2389,5.2353,5.2299,5.2021,5.1448,5.1296,5.1024,5.0626,5.0868,5.1565,5.204,5.2048,5.2018,5.189,5.1632,5.1475,5.1431,5.1399,5.1387,5.1476,5.1469,5.1637,5.166,5.1627,5.1569,5.1518,5.1454,5.1154,5.0928,5.0776,5.0653,5.0439,5.0274,4.9956,4.9634,4.9124,4.8815,4.8436,4.8228,4.8098,4.8033,4.8033,4.8001,4.8001,4.8001,4.8001,6.0002,5.9905,5.9065,5.8343,5.7816,5.7523,5.7131,5.6579,5.6527,5.6498,5.6446,5.6328,5.6153,5.5967,5.5793,5.5635,5.5474,5.5421,5.5384,5.5384,5.5396,5.5396,5.5396,5.5396,5.5396,5.5396,5.5396,5.5396,5.5396,5.5396,5.5396,5.5396,5.5396,5.5396,5.5396,5.5396,5.5396,5.5396,5.5396,5.5396,5.5396,5.5396,5.5364,5.5332,5.5351,5.5159,5.4852,5.4627,5.4262,5.3699,5.3528,5.3198,5.2715,5.244,5.2238,5.2032,5.1904,5.1792,5.1749,5.1737,5.1785,5.2045,5.2111,5.2208,5.2444,5.2498,5.2498,5.2498,5.2498,5.2498,5.2498,5.2498,5.2353,5.2154,5.2129,5.1991,5.1713,5.1912,5.2132,5.2262,5.2264,5.2174,5.2054,5.198,5.1895,5.1845,5.1753,5.1703,5.1703,5.169,5.169,5.169,5.1708,5.1695,5.1645,5.1594,5.1462,5.1289,5.1198,5.1079,5.0883,5.0623,5.0345,4.9869,4.9367,4.8924,4.8531,4.8292,4.8179,4.8049,4.8017,4.8001,4.8001,4.8001,4.8001,6.0881,6.0782,5.9944,5.928,5.8715,5.8441,5.7816,5.7112,5.7008,5.6794,5.6525,5.6395,5.6254,5.6097,5.5953,5.5772,5.5626,5.5517,5.5421,5.5403,5.5384,5.5396,5.5396,5.5396,5.5396,5.5396,5.5396,5.5396,5.5396,5.5396,5.5396,5.5396,5.5396,5.5396,5.5396,5.5396,5.5396,5.5396,5.5396,5.5396,5.5396,5.5396,5.5396,5.5396,5.5396,5.5396,5.5383,5.5226,5.5035,5.4784,5.4522,5.4133,5.3689,5.3422,5.3201,5.2959,5.2732,5.2538,5.2542,5.2424,5.2498,5.2498,5.2498,5.248,5.2498,5.2498,5.2498,5.2498,5.2498,5.2498,5.2498,5.2498,5.2498,5.248,5.2462,5.2498,5.2498,5.2498,5.2457,5.2405,5.2388,5.2311,5.2186,5.2114,5.2011,5.1919,5.1833,5.174,5.1715,5.169,5.169,5.169,5.169,5.169,5.169,5.169,5.169,5.1602,5.1513,5.1384,5.1215,5.0954,5.0665,4.9971,4.9396,4.8986,4.8578,4.8436,4.8308,4.8179,4.8001,4.8001,4.8001,4.8001,4.8001,6.1699,6.1582,6.0822,6.0393,6.0178,5.9474,5.8674,5.7933,5.7758,5.7319,5.6731,5.6492,5.6366,5.6248,5.6083,5.5931,5.5792,5.5621,5.5474,5.5415,5.539,5.5396,5.5396,5.5396,5.5396,5.5396,5.5396,5.5396,5.5396,5.5396,5.5396,5.5396,5.5396,5.5396,5.5396,5.5396,5.5396,5.5396,5.5396,5.5396,5.5396,5.5396,5.5396,5.5396,5.5396,5.5396,5.539,5.5345,5.5266,5.5078,5.4703,5.4317,5.3963,5.3678,5.343,5.3193,5.2842,5.2665,5.2597,5.2549,5.2498,5.2498,5.2498,5.2498,5.2498,5.2498,5.2498,5.2498,5.2498,5.2498,5.2498,5.2498,5.2498,5.2498,5.2498,5.2498,5.2498,5.2498,5.2486,5.2486,5.2486,5.2452,5.2323,5.2287,5.2138,5.1993,5.1895,5.1833,5.1728,5.169,5.169,5.169,5.169,5.169,5.169,5.169,5.169,5.1678,5.1627,5.1582,5.1397,5.1136,5.0733,5.004,4.95,4.9061,4.8689,4.8515,4.8308,4.8082,4.8001,4.8001,4.8001,4.8001,4.8001,6.1699,6.168,6.1446,6.0997,6.0432,6.0119,5.9552,5.8714,5.807,5.7752,5.7345,5.6756,5.6476,5.6344,5.6214,5.606,5.587,5.5716,5.5551,5.5408,5.539,5.5396,5.5396,5.5396,5.5396,5.5396,5.5396,5.5396,5.5396,5.5396,5.5396,5.5396,5.5396,5.5396,5.5396,5.5396,5.5396,5.5396,5.5396,5.5396,5.5396,5.5396,5.5396,5.5396,5.5396,5.5396,5.5371,5.5294,5.5188,5.5009,5.4757,5.4476,5.4268,5.3963,5.3679,5.341,5.3098,5.2787,5.2649,5.2542,5.251,5.2498,5.2498,5.2498,5.2498,5.2498,5.2498,5.2498,5.2498,5.2498,5.2498,5.2498,5.2498,5.2498,5.2498,5.2498,5.2498,5.2498,5.2498,5.2498,5.2498,5.2475,5.244,5.2358,5.2222,5.2078,5.1968,5.1858,5.174,5.169,5.169,5.169,5.169,5.169,5.169,5.169,5.169,5.169,5.1678,5.1665,5.1444,5.1184,5.0643,4.9979,4.9664,4.926,4.8814,4.8483,4.8243,4.8066,4.8001,4.8001,4.8001,4.8001,4.8001,6.1699,6.1699,6.1699,6.1407,6.0977,6.0939,6.0451,5.9669,5.9124,5.8418,5.7823,5.7302,5.6821,5.6435,5.6297,5.617,5.5967,5.5823,5.5648,5.5492,5.5415,5.5384,5.5396,5.5396,5.5396,5.5396,5.5396,5.5396,5.5396,5.5396,5.5396,5.5396,5.5396,5.5396,5.5396,5.5396,5.5396,5.5396,5.5396,5.5396,5.5396,5.5396,5.5396,5.5396,5.5396,5.5396,5.5371,5.5254,5.5121,5.5009,5.4841,5.4648,5.447,5.4187,5.3917,5.363,5.3318,5.3002,5.275,5.2593,5.2538,5.251,5.2498,5.2498,5.2498,5.2498,5.2498,5.2498,5.2498,5.2498,5.2498,5.2498,5.2498,5.2498,5.2498,5.2498,5.2498,5.2498,5.2498,5.2498,5.2498,5.2498,5.2498,5.2428,5.2299,5.215,5.2041,5.1889,5.1753,5.1715,5.169,5.169,5.169,5.169,5.169,5.169,5.169,5.169,5.169,5.169,5.1513,5.1206,5.0739,5.0228,4.9854,4.9443,4.8969,4.8563,4.8356,4.8196,4.8099,4.8001,4.8001,4.8001,4.8001,6.1699,6.1699,6.1699,6.1699,6.166,6.168,6.1211,6.0607,6.0295,5.9495,5.838,5.7902,5.7332,5.663,5.6468,5.6226,5.6087,5.5892,5.5708,5.5556,5.5453,5.5396,5.5396,5.5396,5.5396,5.5396,5.5396,5.5396,5.5396,5.5396,5.5396,5.5396,5.5396,5.5396,5.5396,5.5396,5.5396,5.5396,5.5396,5.5396,5.5396,5.5396,5.5396,5.5396,5.5396,5.5396,5.5345,5.5227,5.5075,5.5082,5.499,5.4799,5.4597,5.4378,5.4108,5.3832,5.3511,5.3183,5.2883,5.2698,5.2574,5.2538,5.2503,5.2498,5.2498,5.2498,5.2498,5.2498,5.2498,5.2498,5.2498,5.2498,5.2498,5.2498,5.2498,5.2498,5.2498,5.2498,5.2498,5.2498,5.2498,5.2498,5.2498,5.2475,5.2405,5.215,5.2036,5.1926,5.179,5.1703,5.169,5.169,5.169,5.169,5.169,5.169,5.169,5.169,5.169,5.1665,5.1569,5.1268,5.0896,5.0471,4.9956,4.95,4.9063,4.872,4.8452,4.8243,4.8082,4.8033,4.8001,4.8001,4.8001,6.1699,6.1699,6.1699,6.1699,6.1699,6.1699,6.1582,6.1348,6.0705,6.0199,5.9573,5.8439,5.7757,5.7452,5.676,5.6272,5.6125,5.5943,5.5743,5.5456,5.5415,5.5396,5.5396,5.5396,5.5396,5.5396,5.5396,5.5396,5.5396,5.5396,5.5396,5.5396,5.5396,5.5396,5.5396,5.5396,5.5396,5.5396,5.5396,5.5396,5.5396,5.5396,5.5396,5.5396,5.5396,5.5396,5.5351,5.5214,5.5101,5.5059,5.4971,5.4856,5.4733,5.4554,5.4301,5.4018,5.3688,5.3359,5.3127,5.2809,5.259,5.2593,5.2519,5.2498,5.2498,5.2498,5.2498,5.2498,5.2498,5.2498,5.2498,5.2498,5.2498,5.2498,5.2498,5.2498,5.2498,5.2498,5.2498,5.2498,5.2498,5.2498,5.2498,5.2498,5.2364,5.2144,5.2036,5.1963,5.1852,5.1715,5.169,5.169,5.169,5.169,5.169,5.169,5.169,5.169,5.169,5.169,5.1582,5.135,5.0994,5.0526,5.0014,4.9575,4.9153,4.8736,4.8452,4.826,4.8115,4.805,4.8001,4.8001,4.8001,6.1699,6.1699,6.1699,6.1699,6.1699,6.1699,6.1699,6.1641,6.1231,6.0783,6.0276,5.934,5.8603,5.7792,5.7223,5.6742,5.6181,5.5907,5.5675,5.5468,5.5415,5.5396,5.5396,5.5396,5.5396,5.5396,5.5396,5.5396,5.5396,5.5396,5.5396,5.5396,5.5396,5.5396,5.5396,5.5396,5.5396,5.5396,5.5396,5.5396,5.5396,5.5396,5.5396,5.5396,5.5396,5.5396,5.5383,5.5247,5.5142,5.508,5.5007,5.4916,5.4833,5.4709,5.4497,5.4196,5.3954,5.36,5.3287,5.298,5.2725,5.262,5.2542,5.2503,5.2498,5.2498,5.2498,5.2498,5.2498,5.2498,5.2498,5.2498,5.2498,5.2498,5.2498,5.2498,5.2498,5.2498,5.2498,5.2498,5.2498,5.2498,5.2498,5.2498,5.2417,5.2234,5.2114,5.2029,5.1895,5.1783,5.1703,5.169,5.169,5.169,5.169,5.169,5.169,5.169,5.169,5.169,5.164,5.1372,5.1088,5.0606,5.014,4.9752,4.9335,4.8907,4.8499,4.8372,4.8244,4.8099,4.8001,4.8001,4.8001,6.1699,6.1699,6.1699,6.1699,6.1699,6.1699,6.1699,6.1699,6.1699,6.1252,6.0666,6.049,5.9462,5.8455,5.8007,5.7319,5.6488,5.5827,5.5602,5.5492,5.5415,5.5403,5.5396,5.5396,5.5396,5.5396,5.5396,5.5396,5.5396,5.5396,5.5396,5.5396,5.5396,5.5396,5.5396,5.5396,5.5396,5.5396,5.5396,5.5396,5.5396,5.5396,5.5396,5.5396,5.5396,5.5396,5.5364,5.5274,5.5163,5.5114,5.505,5.4971,5.4916,5.4829,5.4686,5.4349,5.4188,5.3861,5.3491,5.3183,5.2937,5.2676,5.2559,5.2533,5.251,5.2498,5.2498,5.2498,5.2498,5.2498,5.2498,5.2498,5.2498,5.2498,5.2498,5.2498,5.2498,5.2498,5.2498,5.2498,5.2498,5.2498,5.2498,5.2498,5.2417,5.2323,5.2216,5.2096,5.1962,5.1851,5.1771,5.1703,5.169,5.169,5.169,5.169,5.169,5.169,5.169,5.169,5.1665,5.1441,5.1123,5.0753,5.0321,4.9881,4.9411,4.8906,4.861,4.8483,4.8292,4.8066,4.8001,4.8001,4.8001,6.1699,6.1699,6.1699,6.1699,6.1699,6.1699,6.1699,6.1699,6.1699,6.1641,6.1387,6.0723,6.0281,5.9742,5.9079,5.817,5.7136,5.6294,5.5706,5.5588,5.5472,5.539,5.5396,5.5396,5.5396,5.5396,5.5396,5.5396,5.5396,5.5396,5.5396,5.5396,5.5396,5.5396,5.5396,5.5396,5.5396,5.5396,5.5396,5.5396,5.5396,5.5396,5.5396,5.5396,5.5396,5.5396,5.5364,5.528,5.5203,5.5157,5.5059,5.5007,5.4956,5.4864,5.4722,5.4552,5.4344,5.4045,5.3737,5.342,5.312,5.2831,5.2642,5.2547,5.2515,5.2498,5.2498,5.2498,5.2498,5.2498,5.2498,5.2498,5.2498,5.2498,5.2498,5.2498,5.2498,5.2498,5.2498,5.2498,5.2498,5.2498,5.2498,5.2486,5.244,5.237,5.2287,5.2168,5.2023,5.1925,5.1833,5.1771,5.169,5.169,5.169,5.169,5.169,5.169,5.169,5.169,5.1627,5.1454,5.1163,5.0793,5.0349,4.9866,4.9379,4.8906,4.8657,4.8483,4.8244,4.8001,4.8001,4.8001,4.8001,6.1699,6.1699,6.1699,6.1699,6.1699,6.1699,6.1699,6.1699,6.1699,6.1699,6.1582,6.123,6.0787,6.037,5.995,5.9037,5.7937,5.6892,5.6346,5.6149,5.5676,5.539,5.5422,5.5415,5.5396,5.5396,5.5396,5.5396,5.5396,5.5396,5.5396,5.5396,5.5396,5.5396,5.5396,5.5396,5.5396,5.5396,5.5396,5.5396,5.5396,5.5396,5.5396,5.5396,5.5396,5.5396,5.539,5.5339,5.5261,5.5203,5.5142,5.5066,5.5007,5.4927,5.4849,5.4691,5.4478,5.4232,5.3954,5.363,5.3305,5.3042,5.2794,5.2608,5.2536,5.2508,5.2498,5.2498,5.2498,5.2498,5.2498,5.2498,5.2498,5.2498,5.2498,5.2498,5.2498,5.2498,5.2498,5.2498,5.2498,5.2498,5.2498,5.2486,5.2463,5.2417,5.2364,5.2228,5.2108,5.198,5.1895,5.1796,5.1715,5.169,5.169,5.169,5.169,5.169,5.169,5.169,5.1615,5.1454,5.1189,5.0847,5.038,4.9837,4.9426,4.8969,4.872,4.8452,4.8212,4.8033,4.8001,4.8001,4.8001,6.1699,6.1699,6.1699,6.1699,6.1699,6.1699,6.1699,6.1699,6.1699,6.1699,6.1699,6.1659,6.1298,6.0742,6.0302,5.9724,5.8798,5.7815,5.7283,5.6907,5.6172,5.5696,5.5626,5.5454,5.5396,5.5396,5.5396,5.5396,5.5396,5.5396,5.5396,5.5396,5.5396,5.5396,5.5396,5.5396,5.5396,5.5396,5.5396,5.5396,5.5396,5.5396,5.5396,5.5396,5.5396,5.5396,5.5396,5.5371,5.5332,5.528,5.5203,5.5149,5.505,5.5007,5.4934,5.481,5.4662,5.443,5.4135,5.386,5.3531,5.3222,5.2908,5.2743,5.2556,5.2531,5.2498,5.2498,5.2498,5.2498,5.2498,5.2498,5.2498,5.2498,5.2498,5.2498,5.2498,5.2498,5.2498,5.2498,5.2498,5.2498,5.2498,5.2498,5.2475,5.2475,5.2417,5.2335,5.2216,5.2054,5.1944,5.1845,5.1771,5.1703,5.169,5.169,5.169,5.169,5.169,5.169,5.1589,5.1479,5.1171,5.0847,5.031,4.9793,4.9394,4.9,4.8642,4.8356,4.8164,4.805,4.8017,4.8001,4.8001,6.1699,6.1699,6.1699,6.1699,6.1699,6.1699,6.1699,6.1699,6.1699,6.1699,6.1699,6.1698,6.1633,6.1332,6.0604,6.0126,5.9572,5.878,5.814,5.7825,5.7007,5.6531,5.6333,5.5689,5.5568,5.5511,5.5454,5.5396,5.5396,5.5396,5.5396,5.5396,5.5396,5.5396,5.5396,5.5396,5.5396,5.5396,5.5396,5.5396,5.5396,5.5396,5.5396,5.5396,5.5396,5.5396,5.5396,5.5396,5.5371,5.5358,5.5255,5.5169,5.5094,5.5016,5.4963,5.4886,5.478,5.4611,5.4306,5.4072,5.3775,5.343,5.3172,5.2959,5.2687,5.2542,5.2498,5.2498,5.2498,5.2498,5.2498,5.2498,5.2498,5.2498,5.2498,5.2498,5.2498,5.2498,5.2498,5.2498,5.2498,5.2498,5.2498,5.2498,5.2498,5.2498,5.2475,5.2405,5.2293,5.2138,5.1926,5.1802,5.1758,5.1703,5.169,5.169,5.169,5.169,5.169,5.169,5.1602,5.1475,5.1158,5.078,5.0236,4.9706,4.9228,4.8845,4.8483,4.8276,4.8131,4.805,4.8001,4.8001,4.8001,6.1699,6.1699,6.1699,6.1699,6.1699,6.1699,6.1699,6.1699,6.1699,6.1699,6.1699,6.1699,6.1711,6.1548,6.1103,6.0893,6.0519,5.9657,5.9069,5.8692,5.7964,5.7462,5.7149,5.653,5.6091,5.5976,5.5651,5.5396,5.5396,5.5415,5.5396,5.5396,5.5396,5.5396,5.5396,5.5396,5.5396,5.5396,5.5396,5.5396,5.5396,5.5396,5.5396,5.5396,5.5396,5.5396,5.5396,5.5396,5.5396,5.5364,5.5261,5.5157,5.5101,5.5042,5.4982,5.4909,5.4871,5.473,5.4473,5.4293,5.3963,5.3631,5.3369,5.3048,5.2721,5.2542,5.2498,5.2498,5.2498,5.2498,5.2498,5.2498,5.2498,5.2498,5.2498,5.2498,5.2498,5.2498,5.2498,5.2498,5.2498,5.2498,5.2498,5.2498,5.2498,5.2498,5.2486,5.2434,5.2328,5.221,5.1975,5.174,5.1715,5.169,5.169,5.169,5.169,5.169,5.169,5.1678,5.164,5.1444,5.1132,5.0725,5.0222,4.9674,4.9106,4.8751,4.8468,4.8276,4.8098,4.805,4.8001,4.8001,4.8001,6.1699,6.1699,6.1699,6.1699,6.1699,6.1699,6.1699,6.1699,6.1699,6.1699,6.1699,6.1698,6.1711,6.1687,6.1534,6.1364,6.1232,6.0474,6.0033,5.9519,5.8915,5.8362,5.7965,5.739,5.6938,5.6899,5.6148,5.5842,5.5708,5.553,5.5396,5.5396,5.5396,5.5396,5.5396,5.5396,5.5396,5.5396,5.5396,5.5396,5.5396,5.5396,5.5396,5.5396,5.5396,5.5396,5.5396,5.5396,5.5396,5.5364,5.528,5.5157,5.5101,5.5023,5.4963,5.4916,5.4886,5.4849,5.4648,5.4445,5.4153,5.3804,5.3392,5.2973,5.2732,5.2565,5.2498,5.2498,5.2498,5.2498,5.2498,5.2498,5.2498,5.2498,5.2498,5.2498,5.2498,5.2498,5.2498,5.2498,5.2498,5.2498,5.2498,5.2498,5.2498,5.2498,5.2486,5.2457,5.234,5.2198,5.1975,5.1715,5.1703,5.169,5.169,5.169,5.169,5.169,5.169,5.1678,5.164,5.141,5.1083,5.063,5.0165,4.9585,4.8968,4.8688,4.8436,4.8228,4.805,4.8033,4.8001,4.8001,4.8001,6.1699,6.1699,6.1699,6.1699,6.1699,6.1699,6.1699,6.1699,6.1699,6.1699,6.1699,6.1698,6.1711,6.1691,6.1608,6.1512,6.137,6.1112,6.0785,6.0335,5.9765,5.923,5.8787,5.8307,5.7791,5.7657,5.695,5.6556,5.6326,5.5804,5.5549,5.5396,5.5396,5.5396,5.5396,5.5396,5.5396,5.5396,5.5396,5.5396,5.5396,5.5396,5.5396,5.5396,5.5396,5.5396,5.5396,5.5396,5.5371,5.5364,5.5248,5.5155,5.508,5.5009,5.4949,5.4916,5.4901,5.4879,5.4776,5.4603,5.4293,5.3842,5.3312,5.2883,5.2761,5.2577,5.2503,5.2498,5.2498,5.2498,5.2498,5.2498,5.2498,5.2498,5.2498,5.2498,5.2498,5.2498,5.2498,5.2498,5.2498,5.2498,5.2498,5.2498,5.2498,5.2498,5.241,5.2387,5.221,5.2066,5.1901,5.174,5.1703,5.169,5.169,5.169,5.169,5.169,5.169,5.1678,5.1665,5.1359,5.1017,5.0519,5.0037,4.9419,4.8889,4.8593,4.8324,4.8131,4.8001,4.8001,4.8001,4.8001,4.8001,6.1699,6.1699,6.1699,6.1699,6.1699,6.1699,6.1699,6.1699,6.1699,6.1699,6.1699,6.1698,6.1716,6.1681,6.1592,6.1488,6.1369,6.1192,6.0997,6.0769,6.0303,6.0053,5.9654,5.9128,5.8625,5.8459,5.7791,5.7008,5.6536,5.6231,5.5785,5.5568,5.5435,5.5396,5.5396,5.5396,5.5396,5.5396,5.5396,5.5396,5.5396,5.5396,5.5396,5.5396,5.5396,5.5396,5.5396,5.5396,5.5339,5.5261,5.5182,5.5114,5.5057,5.4978,5.4938,5.4901,5.4901,5.4894,5.4864,5.4694,5.4388,5.3832,5.3238,5.2794,5.2783,5.2618,5.2503,5.2498,5.2498,5.2498,5.2498,5.2498,5.2498,5.2498,5.2498,5.2498,5.2498,5.2498,5.2498,5.2498,5.2498,5.2498,5.2498,5.2498,5.2498,5.2486,5.2399,5.2305,5.2138,5.198,5.1845,5.174,5.1703,5.169,5.169,5.169,5.169,5.169,5.169,5.1652,5.1602,5.1337,5.095,5.045,4.9907,4.9316,4.8828,4.8483,4.8243,4.8066,4.8001,4.8001,4.8001,4.8001,4.8001,6.1699,6.1699,6.1699,6.1699,6.1699,6.1699,6.1699,6.1699,6.1699,6.1699,6.1699,6.1699,6.1716,6.1679,6.1596,6.148,6.136,6.1181,6.1002,6.08,6.0622,6.0545,6.0248,5.9906,5.9491,5.9281,5.867,5.7905,5.7523,5.688,5.6326,5.588,5.5536,5.5415,5.5396,5.5396,5.5396,5.5396,5.5396,5.5396,5.5396,5.5396,5.5396,5.5396,5.5396,5.5396,5.5396,5.539,5.5313,5.5235,5.5142,5.5066,5.5007,5.4953,5.4909,5.4901,5.4894,5.4913,5.4837,5.4587,5.4267,5.3728,5.3175,5.2872,5.2739,5.2629,5.251,5.2498,5.2498,5.2498,5.2498,5.2498,5.2498,5.2498,5.2498,5.2498,5.2498,5.2498,5.2498,5.2498,5.2498,5.2498,5.2498,5.2498,5.2498,5.2434,5.2305,5.2234,5.2126,5.1968,5.1808,5.1728,5.1703,5.169,5.169,5.169,5.169,5.169,5.1678,5.162,5.1505,5.122,5.0855,5.0307,4.9759,4.9197,4.8783,4.842,4.8212,4.8017,4.8001,4.8001,4.8001,4.8001,4.8001,6.1699,6.1699,6.1699,6.1699,6.1699,6.1699,6.1699,6.1699,6.1699,6.1699,6.1699,6.1699,6.1713,6.1676,6.1617,6.151,6.1376,6.1193,6.1036,6.0878,6.0673,6.0578,6.0473,6.0285,6.009,6.0109,5.9529,5.9014,5.8797,5.7657,5.6899,5.6243,5.5766,5.5396,5.5396,5.5396,5.5396,5.5396,5.5396,5.5396,5.5396,5.5396,5.5396,5.5396,5.5396,5.5396,5.5396,5.5364,5.5294,5.5189,5.5121,5.5064,5.5004,5.4938,5.4901,5.4901,5.4901,5.4856,5.4756,5.4298,5.3934,5.3603,5.3101,5.2828,5.2757,5.2629,5.2498,5.2498,5.2498,5.2498,5.2498,5.2498,5.2498,5.2498,5.2498,5.2498,5.2498,5.2498,5.2498,5.2498,5.2498,5.2498,5.2498,5.2498,5.2498,5.241,5.2216,5.212,5.209,5.1968,5.182,5.1728,5.169,5.169,5.169,5.169,5.169,5.169,5.1665,5.1607,5.1397,5.1079,5.0671,5.0162,4.9583,4.8983,4.8657,4.8357,4.8163,4.8017,4.8001,4.8001,4.8001,4.8001,4.8001,6.1699,6.1699,6.1699,6.1699,6.1699,6.1699,6.1699,6.1699,6.1699,6.1699,6.1699,6.1699,6.1711,6.1672,6.1619,6.1537,6.1434,6.1197,6.1032,6.0908,6.0703,6.0565,6.0499,6.0444,6.0403,6.032,5.9995,5.9548,5.9007,5.8268,5.7447,5.674,5.5919,5.5435,5.5396,5.5396,5.5396,5.5396,5.5396,5.5396,5.5396,5.5396,5.5396,5.5396,5.5396,5.5396,5.539,5.5351,5.5235,5.5149,5.5092,5.5014,5.4968,5.4901,5.4901,5.4901,5.4894,5.4772,5.453,5.4143,5.3823,5.3474,5.3112,5.2783,5.2683,5.2565,5.2503,5.2498,5.2498,5.2498,5.2498,5.2498,5.2498,5.2498,5.2498,5.2498,5.2498,5.2498,5.2498,5.2498,5.2498,5.2498,5.2498,5.2498,5.2498,5.2475,5.2317,5.2198,5.2126,5.1993,5.1845,5.1758,5.169,5.169,5.169,5.169,5.169,5.169,5.1652,5.1589,5.1315,5.0986,5.0533,5.0037,4.9406,4.8765,4.8483,4.826,4.8115,4.8017,4.8001,4.8001,4.8001,4.8001,4.8001,6.1699,6.1699,6.1699,6.1699,6.1699,6.1699,6.1699,6.1699,6.1699,6.1699,6.1699,6.1698,6.1689,6.1649,6.1615,6.1534,6.144,6.1248,6.1079,6.0922,6.0746,6.061,6.0532,6.0451,6.0403,6.0396,6.0339,6.0026,5.9599,5.9255,5.8154,5.6823,5.6071,5.5721,5.5549,5.5396,5.5396,5.5396,5.5396,5.5396,5.5396,5.5396,5.5396,5.5396,5.5396,5.5396,5.5364,5.528,5.5176,5.512,5.5042,5.4963,5.4923,5.4901,5.4901,5.4901,5.4818,5.4662,5.4344,5.4045,5.3708,5.3318,5.2999,5.2772,5.2631,5.2542,5.2503,5.2498,5.2498,5.2498,5.2498,5.2498,5.2498,5.2498,5.2498,5.2498,5.2498,5.2498,5.2498,5.2498,5.2498,5.2498,5.2498,5.2498,5.2498,5.2463,5.2428,5.2293,5.2174,5.2029,5.1895,5.1808,5.1715,5.1703,5.1703,5.169,5.169,5.169,5.164,5.1577,5.1255,5.0892,5.0425,4.9895,4.9256,4.8703,4.8388,4.8147,4.8049,4.8001,4.8001,4.8001,4.8001,4.8001,4.8001,6.1699,6.1699,6.1699,6.1699,6.1699,6.1699,6.1699,6.1699,6.1699,6.1699,6.1699,6.1718,6.1664,6.1598,6.1592,6.1532,6.1408,6.1264,6.1133,6.0982,6.0793,6.0673,6.0571,6.0472,6.0417,6.0396,6.0377,6.032,6.0217,5.9484,5.823,5.7141,5.6613,5.6167,5.5766,5.5473,5.5435,5.5396,5.5396,5.5396,5.5396,5.5396,5.5396,5.5396,5.5396,5.5396,5.5358,5.5267,5.5169,5.5094,5.5016,5.4963,5.4931,5.4901,5.4901,5.4856,5.4767,5.4513,5.4223,5.3935,5.3552,5.3162,5.2923,5.2732,5.2627,5.2549,5.2503,5.2498,5.2498,5.2498,5.2498,5.2498,5.2498,5.2498,5.2498,5.2498,5.2498,5.2498,5.2498,5.2498,5.2498,5.2498,5.2498,5.2498,5.2498,5.2486,5.2463,5.241,5.2281,5.2114,5.198,5.187,5.1796,5.1746,5.1715,5.169,5.169,5.169,5.1627,5.1526,5.1176,5.077,5.0268,4.9735,4.9121,4.8625,4.8243,4.8082,4.8033,4.8001,4.8001,4.8001,4.8001,4.8001,4.8001,6.1699,6.1699,6.1699,6.1699,6.1699,6.1699,6.1699,6.1699,6.1699,6.1699,6.1699,6.1709,6.1655,6.1615,6.1592,6.1534,6.1449,6.134,6.1195,6.1041,6.0833,6.0704,6.0578,6.0472,6.0417,6.0396,6.0396,6.0377,6.0205,5.9529,5.9102,5.8414,5.7294,5.667,5.6205,5.5708,5.5549,5.5435,5.5454,5.5396,5.5396,5.5396,5.5396,5.5396,5.5396,5.5396,5.5358,5.5222,5.5135,5.5094,5.4985,5.4923,5.4909,5.4894,5.4905,5.4814,5.4654,5.443,5.4154,5.3842,5.3454,5.3077,5.2861,5.2712,5.2577,5.2515,5.2498,5.2498,5.2498,5.2498,5.2498,5.2498,5.2498,5.2498,5.2498,5.2498,5.2498,5.2498,5.2498,5.2498,5.2498,5.2498,5.2498,5.2498,5.2498,5.2498,5.2505,5.2499,5.2411,5.2264,5.2066,5.1956,5.1858,5.1796,5.1715,5.169,5.169,5.1678,5.1615,5.1449,5.1097,5.0661,5.0126,4.9526,4.8875,4.8436,4.8098,4.8001,4.8001,4.8001,4.8001,4.8001,4.8001,4.8001,4.8001,6.1699,6.1699,6.1699,6.1699,6.1699,6.1699,6.1699,6.1699,6.1699,6.1699,6.1716,6.1705,6.167,6.1595,6.159,6.1564,6.1497,6.1391,6.1251,6.1065,6.0855,6.0729,6.0591,6.0472,6.041,6.0396,6.0396,6.0396,6.0243,5.995,5.9529,5.8949,5.7886,5.7504,5.7008,5.6415,5.5976,5.5804,5.5651,5.5454,5.5396,5.5396,5.5396,5.5396,5.5396,5.5396,5.5383,5.5227,5.5142,5.5094,5.4985,5.4931,5.4916,5.4894,5.4883,5.4791,5.4603,5.4344,5.4035,5.3737,5.3343,5.3016,5.2806,5.2667,5.2572,5.2498,5.2498,5.2498,5.2498,5.2498,5.2498,5.2498,5.2498,5.2498,5.2498,5.2498,5.2498,5.2498,5.2498,5.2498,5.2498,5.2498,5.2498,5.2516,5.2498,5.2498,5.2607,5.2776,5.2675,5.2515,5.2252,5.2041,5.1932,5.1845,5.1753,5.169,5.169,5.1683,5.1594,5.1389,5.1003,5.0478,4.9893,4.9256,4.8626,4.8292,4.8017,4.8001,4.8001,4.8001,4.8001,4.8001,4.8001,4.8001,4.8001,6.1699,6.1699,6.1699,6.1699,6.1699,6.1699,6.1699,6.1699,6.1699,6.1699,6.1715,6.1684,6.1669,6.1593,6.1588,6.1556,6.1506,6.1408,6.1267,6.1089,6.0889,6.0729,6.0597,6.0472,6.041,6.0396,6.0396,6.0396,6.0396,6.0205,5.9835,5.9236,5.8968,5.8548,5.7905,5.7141,5.674,5.6632,5.6071,5.5632,5.5435,5.5396,5.5396,5.5396,5.5396,5.5396,5.5364,5.528,5.5182,5.5107,5.5023,5.4982,5.4923,5.4894,5.4867,5.4725,5.4554,5.4258,5.3926,5.363,5.3266,5.2937,5.2676,5.2593,5.2519,5.2498,5.2498,5.2498,5.2498,5.2498,5.2498,5.2498,5.2498,5.2498,5.2498,5.2498,5.2498,5.2498,5.2498,5.2498,5.2498,5.2534,5.2896,5.2951,5.3222,5.2896,5.3023,5.3313,5.326,5.3098,5.275,5.2408,5.2065,5.1943,5.174,5.169,5.169,5.167,5.1556,5.1268,5.0865,5.0278,4.961,4.9012,4.842,4.8228,4.8017,4.8017,4.8001,4.8001,4.8001,4.8001,4.8001,4.8001,4.8001,6.1699,6.1699,6.1699,6.1699,6.1699,6.1699,6.1699,6.1699,6.1699,6.1698,6.1694,6.1636,6.162,6.1593,6.1578,6.1563,6.1484,6.1411,6.1291,6.1094,6.09,6.0722,6.0617,6.0479,6.041,6.0396,6.0396,6.0396,6.0396,6.0358,6.032,6.0007,5.9606,5.9033,5.8803,5.8001,5.7581,5.7504,5.6785,5.6071,5.5721,5.5492,5.5396,5.5396,5.5396,5.5396,5.5358,5.5287,5.5216,5.5169,5.5064,5.4971,5.4901,5.4901,5.4826,5.4686,5.4455,5.4153,5.3823,5.3491,5.3148,5.2893,5.2676,5.2581,5.2508,5.2503,5.2498,5.2498,5.2498,5.2498,5.2498,5.2498,5.2498,5.2498,5.2498,5.2498,5.2534,5.2607,5.2589,5.2607,5.2607,5.2878,5.3277,5.3518,5.3784,5.4007,5.4279,5.446,5.4406,5.4237,5.3742,5.3278,5.2384,5.2113,5.1856,5.169,5.1678,5.1577,5.1479,5.1119,5.0698,4.9904,4.9133,4.8718,4.8292,4.8131,4.8033,4.8017,4.8001,4.8001,4.8001,4.8001,4.8001,4.8001,4.8001,6.1699,6.1699,6.1699,6.1699,6.1699,6.1699,6.1699,6.1699,6.1699,6.1715,6.1689,6.163,6.1577,6.159,6.1591,6.1558,6.15,6.1438,6.1287,6.1094,6.0927,6.0746,6.0623,6.0492,6.0438,6.041,6.0403,6.0396,6.0396,6.0396,6.0358,6.032,5.9816,5.9606,5.9529,5.8899,5.8434,5.8376,5.7581,5.695,5.6301,5.5931,5.5473,5.5396,5.5396,5.5396,5.5371,5.5319,5.5261,5.5182,5.5085,5.4971,5.4923,5.4901,5.4776,5.4595,5.4344,5.4044,5.3718,5.3369,5.3042,5.2828,5.2627,5.2526,5.2515,5.2498,5.2498,5.2498,5.2498,5.2498,5.2498,5.2498,5.2498,5.2498,5.257,5.2625,5.3114,5.3585,5.3693,5.3856,5.3856,5.3929,5.4206,5.4255,5.4454,5.446,5.484,5.5251,5.5257,5.5177,5.4729,5.4185,5.3301,5.2334,5.1801,5.1678,5.1683,5.1556,5.1473,5.0797,5.0228,4.9359,4.8639,4.8387,4.8212,4.8082,4.8001,4.8067,4.8017,4.8001,4.8001,4.8001,4.805,4.8183,4.8199,6.1699,6.1699,6.1699,6.1699,6.1699,6.1699,6.1699,6.1699,6.1699,6.1713,6.1699,6.1625,6.1597,6.1578,6.1591,6.1539,6.15,6.1438,6.1271,6.1103,6.0948,6.0769,6.0636,6.0545,6.0458,6.0417,6.0403,6.0396,6.0396,6.0396,6.0396,6.0396,6.0396,6.0377,6.0148,5.9759,5.9255,5.9064,5.8574,5.8116,5.7351,5.6492,5.5893,5.5606,5.5454,5.5415,5.5396,5.5371,5.5326,5.5202,5.5073,5.4978,5.4916,5.4871,5.4733,5.4538,5.4248,5.3935,5.3602,5.3225,5.297,5.275,5.2595,5.2564,5.2589,5.2697,5.2697,5.2842,5.2842,5.2715,5.2733,5.286,5.286,5.2896,5.2987,5.3078,5.3802,5.4436,5.4635,5.4834,5.4852,5.4858,5.5033,5.5051,5.5106,5.5106,5.5305,5.5631,5.586,5.5755,5.548,5.4975,5.4311,5.3299,5.2304,5.2129,5.2264,5.1865,5.1688,5.0704,4.9801,4.9075,4.8562,4.8275,4.8115,4.81,4.815,4.8216,4.815,4.8249,4.863,4.8845,4.8779,4.8845,4.8614,6.1699,6.1699,6.1699,6.1699,6.1699,6.1699,6.1699,6.1699,6.1698,6.1711,6.1696,6.1623,6.1588,6.1588,6.1582,6.1558,6.1506,6.1418,6.1271,6.1099,6.0964,6.0781,6.0629,6.0519,6.0477,6.0424,6.0396,6.0396,6.0396,6.0396,6.0396,6.0396,6.0396,6.0396,6.0358,6.0071,5.9969,5.9739,5.9376,5.888,5.8421,5.7542,5.6606,5.6167,5.5747,5.553,5.5396,5.5396,5.5326,5.5208,5.5073,5.4978,5.4909,5.4852,5.4702,5.4472,5.4178,5.3851,5.3502,5.3109,5.285,5.2858,5.2826,5.2999,5.315,5.3494,5.3657,5.4074,5.3983,5.3621,5.3639,5.4037,5.4164,5.4218,5.4291,5.4345,5.4713,5.4943,5.5088,5.516,5.516,5.5414,5.5794,5.5903,5.6066,5.6156,5.6391,5.6681,5.6614,5.6429,5.6163,5.5718,5.5207,5.4603,5.3755,5.3311,5.3192,5.2635,5.1942,5.1038,5.0058,4.8987,4.8533,4.8644,4.8381,4.8233,4.8315,4.8713,4.8796,4.9028,4.9574,4.9839,4.969,4.9524,4.9309]}]]